<?xml version="1.0" encoding="UTF-8" standalone="no" ?>
<gpx xmlns="http://www.topografix.com/GPX/1/1" xmlns:xsi="http://www.w3.org/2001/XMLSchema-instance" xsi:schemaLocation="http://www.topografix.com/GPX/1/1 http://www.topografix.com/GPX/1/1/gpx.xsd" version="1.1" creator="VisuGPX - https://www.visugpx.com">
  <metadata>
    <name>Reconnaissance 01 05 2019</name>
    <desc><![CDATA[30 kms en 5 heures sans difficulté quelques "pass" à ouvrir.....]]></desc>
  </metadata>
  <trk>
    <name><![CDATA[20190502164653-ulK3T]]></name>
    <trkseg>
      <trkpt lat="44.94686" lon="3.38099">
        <ele>1170</ele>
        <time>2019-05-01T08:03:05Z</time>
      </trkpt>
      <trkpt lat="44.94686" lon="3.381">
        <ele>1170</ele>
        <time>2019-05-01T08:03:06Z</time>
      </trkpt>
      <trkpt lat="44.94683" lon="3.38101">
        <ele>1165</ele>
        <time>2019-05-01T08:03:26Z</time>
      </trkpt>
      <trkpt lat="44.94681" lon="3.38105">
        <ele>1164</ele>
        <time>2019-05-01T08:03:41Z</time>
      </trkpt>
      <trkpt lat="44.94679" lon="3.381">
        <ele>1164</ele>
        <time>2019-05-01T08:04:49Z</time>
      </trkpt>
      <trkpt lat="44.94671" lon="3.38085">
        <ele>1165</ele>
        <time>2019-05-01T08:05:13Z</time>
      </trkpt>
      <trkpt lat="44.94672" lon="3.38086">
        <ele>1165</ele>
        <time>2019-05-01T08:05:53Z</time>
      </trkpt>
      <trkpt lat="44.9467" lon="3.3809">
        <ele>1165</ele>
        <time>2019-05-01T08:06:20Z</time>
      </trkpt>
      <trkpt lat="44.94671" lon="3.38095">
        <ele>1165</ele>
        <time>2019-05-01T08:06:22Z</time>
      </trkpt>
      <trkpt lat="44.94669" lon="3.38109">
        <ele>1165</ele>
        <time>2019-05-01T08:06:28Z</time>
      </trkpt>
      <trkpt lat="44.94668" lon="3.38116">
        <ele>1165</ele>
        <time>2019-05-01T08:06:31Z</time>
      </trkpt>
      <trkpt lat="44.94674" lon="3.38131">
        <ele>1165</ele>
        <time>2019-05-01T08:06:38Z</time>
      </trkpt>
      <trkpt lat="44.94678" lon="3.38136">
        <ele>1165</ele>
        <time>2019-05-01T08:06:41Z</time>
      </trkpt>
      <trkpt lat="44.94683" lon="3.38143">
        <ele>1165</ele>
        <time>2019-05-01T08:06:45Z</time>
      </trkpt>
      <trkpt lat="44.94694" lon="3.38168">
        <ele>1165</ele>
        <time>2019-05-01T08:06:57Z</time>
      </trkpt>
      <trkpt lat="44.94695" lon="3.38175">
        <ele>1165</ele>
        <time>2019-05-01T08:07:00Z</time>
      </trkpt>
      <trkpt lat="44.94712" lon="3.3823">
        <ele>1165</ele>
        <time>2019-05-01T08:07:27Z</time>
      </trkpt>
      <trkpt lat="44.94712" lon="3.38244">
        <ele>1166</ele>
        <time>2019-05-01T08:07:34Z</time>
      </trkpt>
      <trkpt lat="44.94707" lon="3.3827">
        <ele>1166</ele>
        <time>2019-05-01T08:07:47Z</time>
      </trkpt>
      <trkpt lat="44.94709" lon="3.38276">
        <ele>1166</ele>
        <time>2019-05-01T08:07:50Z</time>
      </trkpt>
      <trkpt lat="44.94707" lon="3.38283">
        <ele>1166</ele>
        <time>2019-05-01T08:07:53Z</time>
      </trkpt>
      <trkpt lat="44.94705" lon="3.38316">
        <ele>1166</ele>
        <time>2019-05-01T08:08:08Z</time>
      </trkpt>
      <trkpt lat="44.947" lon="3.38332">
        <ele>1166</ele>
        <time>2019-05-01T08:08:17Z</time>
      </trkpt>
      <trkpt lat="44.94687" lon="3.38346">
        <ele>1166</ele>
        <time>2019-05-01T08:08:27Z</time>
      </trkpt>
      <trkpt lat="44.94678" lon="3.38352">
        <ele>1166</ele>
        <time>2019-05-01T08:08:33Z</time>
      </trkpt>
      <trkpt lat="44.94674" lon="3.38354">
        <ele>1166</ele>
        <time>2019-05-01T08:08:36Z</time>
      </trkpt>
      <trkpt lat="44.94664" lon="3.38352">
        <ele>1166</ele>
        <time>2019-05-01T08:08:42Z</time>
      </trkpt>
      <trkpt lat="44.94648" lon="3.38339">
        <ele>1165</ele>
        <time>2019-05-01T08:08:52Z</time>
      </trkpt>
      <trkpt lat="44.94644" lon="3.38339">
        <ele>1165</ele>
        <time>2019-05-01T08:08:55Z</time>
      </trkpt>
      <trkpt lat="44.94631" lon="3.38345">
        <ele>1165</ele>
        <time>2019-05-01T08:09:04Z</time>
      </trkpt>
      <trkpt lat="44.94626" lon="3.38349">
        <ele>1165</ele>
        <time>2019-05-01T08:09:07Z</time>
      </trkpt>
      <trkpt lat="44.94624" lon="3.38353">
        <ele>1165</ele>
        <time>2019-05-01T08:09:09Z</time>
      </trkpt>
      <trkpt lat="44.94623" lon="3.38359">
        <ele>1165</ele>
        <time>2019-05-01T08:09:13Z</time>
      </trkpt>
      <trkpt lat="44.94621" lon="3.38372">
        <ele>1165</ele>
        <time>2019-05-01T08:09:18Z</time>
      </trkpt>
      <trkpt lat="44.94629" lon="3.38415">
        <ele>1165</ele>
        <time>2019-05-01T08:09:38Z</time>
      </trkpt>
      <trkpt lat="44.9463" lon="3.38421">
        <ele>1165</ele>
        <time>2019-05-01T08:09:41Z</time>
      </trkpt>
      <trkpt lat="44.94628" lon="3.38435">
        <ele>1165</ele>
        <time>2019-05-01T08:09:47Z</time>
      </trkpt>
      <trkpt lat="44.94628" lon="3.38442">
        <ele>1165</ele>
        <time>2019-05-01T08:09:50Z</time>
      </trkpt>
      <trkpt lat="44.94629" lon="3.3847">
        <ele>1165</ele>
        <time>2019-05-01T08:10:02Z</time>
      </trkpt>
      <trkpt lat="44.94635" lon="3.38501">
        <ele>1165</ele>
        <time>2019-05-01T08:10:17Z</time>
      </trkpt>
      <trkpt lat="44.94638" lon="3.38508">
        <ele>1165</ele>
        <time>2019-05-01T08:10:20Z</time>
      </trkpt>
      <trkpt lat="44.9465" lon="3.38544">
        <ele>1164</ele>
        <time>2019-05-01T08:10:34Z</time>
      </trkpt>
      <trkpt lat="44.94655" lon="3.38552">
        <ele>1164</ele>
        <time>2019-05-01T08:10:38Z</time>
      </trkpt>
      <trkpt lat="44.94678" lon="3.38618">
        <ele>1163</ele>
        <time>2019-05-01T08:11:08Z</time>
      </trkpt>
      <trkpt lat="44.94694" lon="3.38685">
        <ele>1163</ele>
        <time>2019-05-01T08:11:38Z</time>
      </trkpt>
      <trkpt lat="44.94699" lon="3.38703">
        <ele>1162</ele>
        <time>2019-05-01T08:11:47Z</time>
      </trkpt>
      <trkpt lat="44.94714" lon="3.38763">
        <ele>1162</ele>
        <time>2019-05-01T08:12:15Z</time>
      </trkpt>
      <trkpt lat="44.94721" lon="3.3879">
        <ele>1162</ele>
        <time>2019-05-01T08:12:27Z</time>
      </trkpt>
      <trkpt lat="44.94724" lon="3.38803">
        <ele>1161</ele>
        <time>2019-05-01T08:12:33Z</time>
      </trkpt>
      <trkpt lat="44.94727" lon="3.38842">
        <ele>1161</ele>
        <time>2019-05-01T08:12:51Z</time>
      </trkpt>
      <trkpt lat="44.94725" lon="3.38862">
        <ele>1161</ele>
        <time>2019-05-01T08:13:00Z</time>
      </trkpt>
      <trkpt lat="44.94723" lon="3.38875">
        <ele>1161</ele>
        <time>2019-05-01T08:13:05Z</time>
      </trkpt>
      <trkpt lat="44.94717" lon="3.38884">
        <ele>1161</ele>
        <time>2019-05-01T08:13:11Z</time>
      </trkpt>
      <trkpt lat="44.94714" lon="3.38889">
        <ele>1161</ele>
        <time>2019-05-01T08:13:14Z</time>
      </trkpt>
      <trkpt lat="44.94709" lon="3.38897">
        <ele>1161</ele>
        <time>2019-05-01T08:13:20Z</time>
      </trkpt>
      <trkpt lat="44.94679" lon="3.38927">
        <ele>1161</ele>
        <time>2019-05-01T08:13:43Z</time>
      </trkpt>
      <trkpt lat="44.94676" lon="3.3893">
        <ele>1161</ele>
        <time>2019-05-01T08:13:45Z</time>
      </trkpt>
      <trkpt lat="44.94635" lon="3.38968">
        <ele>1160</ele>
        <time>2019-05-01T08:14:17Z</time>
      </trkpt>
      <trkpt lat="44.94618" lon="3.38981">
        <ele>1160</ele>
        <time>2019-05-01T08:14:29Z</time>
      </trkpt>
      <trkpt lat="44.94594" lon="3.39018">
        <ele>1160</ele>
        <time>2019-05-01T08:14:51Z</time>
      </trkpt>
      <trkpt lat="44.94591" lon="3.39024">
        <ele>1160</ele>
        <time>2019-05-01T08:14:54Z</time>
      </trkpt>
      <trkpt lat="44.94588" lon="3.39035">
        <ele>1160</ele>
        <time>2019-05-01T08:15:00Z</time>
      </trkpt>
      <trkpt lat="44.94586" lon="3.39041">
        <ele>1160</ele>
        <time>2019-05-01T08:15:03Z</time>
      </trkpt>
      <trkpt lat="44.94586" lon="3.39046">
        <ele>1160</ele>
        <time>2019-05-01T08:15:05Z</time>
      </trkpt>
      <trkpt lat="44.94585" lon="3.39058">
        <ele>1160</ele>
        <time>2019-05-01T08:15:11Z</time>
      </trkpt>
      <trkpt lat="44.94586" lon="3.39065">
        <ele>1159</ele>
        <time>2019-05-01T08:15:14Z</time>
      </trkpt>
      <trkpt lat="44.94589" lon="3.39077">
        <ele>1159</ele>
        <time>2019-05-01T08:15:19Z</time>
      </trkpt>
      <trkpt lat="44.9459" lon="3.39089">
        <ele>1159</ele>
        <time>2019-05-01T08:15:24Z</time>
      </trkpt>
      <trkpt lat="44.94587" lon="3.39123">
        <ele>1159</ele>
        <time>2019-05-01T08:15:39Z</time>
      </trkpt>
      <trkpt lat="44.94586" lon="3.39128">
        <ele>1159</ele>
        <time>2019-05-01T08:15:41Z</time>
      </trkpt>
      <trkpt lat="44.94583" lon="3.39134">
        <ele>1159</ele>
        <time>2019-05-01T08:15:44Z</time>
      </trkpt>
      <trkpt lat="44.94582" lon="3.39139">
        <ele>1158</ele>
        <time>2019-05-01T08:15:47Z</time>
      </trkpt>
      <trkpt lat="44.94576" lon="3.39164">
        <ele>1158</ele>
        <time>2019-05-01T08:15:59Z</time>
      </trkpt>
      <trkpt lat="44.94575" lon="3.39172">
        <ele>1158</ele>
        <time>2019-05-01T08:16:03Z</time>
      </trkpt>
      <trkpt lat="44.94552" lon="3.39236">
        <ele>1156</ele>
        <time>2019-05-01T08:16:34Z</time>
      </trkpt>
      <trkpt lat="44.94529" lon="3.39283">
        <ele>1154</ele>
        <time>2019-05-01T08:16:55Z</time>
      </trkpt>
      <trkpt lat="44.9452" lon="3.39296">
        <ele>1153</ele>
        <time>2019-05-01T08:17:01Z</time>
      </trkpt>
      <trkpt lat="44.94517" lon="3.39302">
        <ele>1153</ele>
        <time>2019-05-01T08:17:04Z</time>
      </trkpt>
      <trkpt lat="44.94513" lon="3.39309">
        <ele>1152</ele>
        <time>2019-05-01T08:17:08Z</time>
      </trkpt>
      <trkpt lat="44.94513" lon="3.39324">
        <ele>1152</ele>
        <time>2019-05-01T08:17:13Z</time>
      </trkpt>
      <trkpt lat="44.94513" lon="3.39329">
        <ele>1151</ele>
        <time>2019-05-01T08:17:15Z</time>
      </trkpt>
      <trkpt lat="44.94521" lon="3.39357">
        <ele>1149</ele>
        <time>2019-05-01T08:17:26Z</time>
      </trkpt>
      <trkpt lat="44.94522" lon="3.39367">
        <ele>1149</ele>
        <time>2019-05-01T08:17:30Z</time>
      </trkpt>
      <trkpt lat="44.94523" lon="3.39375">
        <ele>1148</ele>
        <time>2019-05-01T08:17:33Z</time>
      </trkpt>
      <trkpt lat="44.94528" lon="3.39418">
        <ele>1144</ele>
        <time>2019-05-01T08:17:50Z</time>
      </trkpt>
      <trkpt lat="44.94535" lon="3.39446">
        <ele>1142</ele>
        <time>2019-05-01T08:18:02Z</time>
      </trkpt>
      <trkpt lat="44.94536" lon="3.39457">
        <ele>1141</ele>
        <time>2019-05-01T08:18:06Z</time>
      </trkpt>
      <trkpt lat="44.94535" lon="3.39475">
        <ele>1140</ele>
        <time>2019-05-01T08:18:14Z</time>
      </trkpt>
      <trkpt lat="44.94515" lon="3.39513">
        <ele>1136</ele>
        <time>2019-05-01T08:18:32Z</time>
      </trkpt>
      <trkpt lat="44.94509" lon="3.39522">
        <ele>1136</ele>
        <time>2019-05-01T08:18:36Z</time>
      </trkpt>
      <trkpt lat="44.94497" lon="3.39552">
        <ele>1133</ele>
        <time>2019-05-01T08:18:49Z</time>
      </trkpt>
      <trkpt lat="44.94494" lon="3.39557">
        <ele>1133</ele>
        <time>2019-05-01T08:18:52Z</time>
      </trkpt>
      <trkpt lat="44.9449" lon="3.39561">
        <ele>1132</ele>
        <time>2019-05-01T08:18:55Z</time>
      </trkpt>
      <trkpt lat="44.94487" lon="3.39566">
        <ele>1132</ele>
        <time>2019-05-01T08:18:59Z</time>
      </trkpt>
      <trkpt lat="44.94475" lon="3.39585">
        <ele>1130</ele>
        <time>2019-05-01T08:19:09Z</time>
      </trkpt>
      <trkpt lat="44.94464" lon="3.39593">
        <ele>1130</ele>
        <time>2019-05-01T08:19:15Z</time>
      </trkpt>
      <trkpt lat="44.9445" lon="3.39597">
        <ele>1129</ele>
        <time>2019-05-01T08:19:23Z</time>
      </trkpt>
      <trkpt lat="44.94426" lon="3.39612">
        <ele>1128</ele>
        <time>2019-05-01T08:19:40Z</time>
      </trkpt>
      <trkpt lat="44.94414" lon="3.39615">
        <ele>1127</ele>
        <time>2019-05-01T08:19:48Z</time>
      </trkpt>
      <trkpt lat="44.9441" lon="3.39616">
        <ele>1127</ele>
        <time>2019-05-01T08:19:50Z</time>
      </trkpt>
      <trkpt lat="44.94397" lon="3.39621">
        <ele>1127</ele>
        <time>2019-05-01T08:19:56Z</time>
      </trkpt>
      <trkpt lat="44.94392" lon="3.39622">
        <ele>1127</ele>
        <time>2019-05-01T08:19:58Z</time>
      </trkpt>
      <trkpt lat="44.94349" lon="3.39647">
        <ele>1127</ele>
        <time>2019-05-01T08:20:25Z</time>
      </trkpt>
      <trkpt lat="44.94298" lon="3.39687">
        <ele>1128</ele>
        <time>2019-05-01T08:20:56Z</time>
      </trkpt>
      <trkpt lat="44.94274" lon="3.39708">
        <ele>1128</ele>
        <time>2019-05-01T08:21:13Z</time>
      </trkpt>
      <trkpt lat="44.94271" lon="3.39711">
        <ele>1128</ele>
        <time>2019-05-01T08:21:15Z</time>
      </trkpt>
      <trkpt lat="44.94231" lon="3.39751">
        <ele>1129</ele>
        <time>2019-05-01T08:21:45Z</time>
      </trkpt>
      <trkpt lat="44.942" lon="3.39776">
        <ele>1130</ele>
        <time>2019-05-01T08:22:04Z</time>
      </trkpt>
      <trkpt lat="44.94195" lon="3.39779">
        <ele>1130</ele>
        <time>2019-05-01T08:22:08Z</time>
      </trkpt>
      <trkpt lat="44.9419" lon="3.39781">
        <ele>1130</ele>
        <time>2019-05-01T08:22:12Z</time>
      </trkpt>
      <trkpt lat="44.94162" lon="3.39804">
        <ele>1131</ele>
        <time>2019-05-01T08:22:31Z</time>
      </trkpt>
      <trkpt lat="44.94135" lon="3.39848">
        <ele>1132</ele>
        <time>2019-05-01T08:22:57Z</time>
      </trkpt>
      <trkpt lat="44.94122" lon="3.39881">
        <ele>1132</ele>
        <time>2019-05-01T08:23:13Z</time>
      </trkpt>
      <trkpt lat="44.94117" lon="3.39898">
        <ele>1132</ele>
        <time>2019-05-01T08:23:21Z</time>
      </trkpt>
      <trkpt lat="44.94111" lon="3.39912">
        <ele>1132</ele>
        <time>2019-05-01T08:23:29Z</time>
      </trkpt>
      <trkpt lat="44.94107" lon="3.39917">
        <ele>1133</ele>
        <time>2019-05-01T08:23:32Z</time>
      </trkpt>
      <trkpt lat="44.94103" lon="3.39924">
        <ele>1133</ele>
        <time>2019-05-01T08:23:35Z</time>
      </trkpt>
      <trkpt lat="44.941" lon="3.39931">
        <ele>1133</ele>
        <time>2019-05-01T08:23:39Z</time>
      </trkpt>
      <trkpt lat="44.94097" lon="3.39938">
        <ele>1133</ele>
        <time>2019-05-01T08:23:43Z</time>
      </trkpt>
      <trkpt lat="44.9409" lon="3.39954">
        <ele>1133</ele>
        <time>2019-05-01T08:23:51Z</time>
      </trkpt>
      <trkpt lat="44.94075" lon="3.3998">
        <ele>1133</ele>
        <time>2019-05-01T08:24:05Z</time>
      </trkpt>
      <trkpt lat="44.94071" lon="3.39996">
        <ele>1133</ele>
        <time>2019-05-01T08:24:12Z</time>
      </trkpt>
      <trkpt lat="44.9407" lon="3.40006">
        <ele>1133</ele>
        <time>2019-05-01T08:24:15Z</time>
      </trkpt>
      <trkpt lat="44.94071" lon="3.40032">
        <ele>1134</ele>
        <time>2019-05-01T08:24:23Z</time>
      </trkpt>
      <trkpt lat="44.94073" lon="3.40045">
        <ele>1134</ele>
        <time>2019-05-01T08:24:29Z</time>
      </trkpt>
      <trkpt lat="44.94075" lon="3.40052">
        <ele>1134</ele>
        <time>2019-05-01T08:24:32Z</time>
      </trkpt>
      <trkpt lat="44.94077" lon="3.40071">
        <ele>1135</ele>
        <time>2019-05-01T08:24:40Z</time>
      </trkpt>
      <trkpt lat="44.94076" lon="3.40078">
        <ele>1135</ele>
        <time>2019-05-01T08:24:43Z</time>
      </trkpt>
      <trkpt lat="44.94076" lon="3.40084">
        <ele>1136</ele>
        <time>2019-05-01T08:24:47Z</time>
      </trkpt>
      <trkpt lat="44.94074" lon="3.4009">
        <ele>1136</ele>
        <time>2019-05-01T08:24:51Z</time>
      </trkpt>
      <trkpt lat="44.94067" lon="3.40096">
        <ele>1136</ele>
        <time>2019-05-01T08:24:56Z</time>
      </trkpt>
      <trkpt lat="44.94063" lon="3.40099">
        <ele>1137</ele>
        <time>2019-05-01T08:25:00Z</time>
      </trkpt>
      <trkpt lat="44.94055" lon="3.40095">
        <ele>1137</ele>
        <time>2019-05-01T08:25:06Z</time>
      </trkpt>
      <trkpt lat="44.94052" lon="3.40093">
        <ele>1137</ele>
        <time>2019-05-01T08:25:08Z</time>
      </trkpt>
      <trkpt lat="44.94025" lon="3.40074">
        <ele>1138</ele>
        <time>2019-05-01T08:25:20Z</time>
      </trkpt>
      <trkpt lat="44.93981" lon="3.40045">
        <ele>1141</ele>
        <time>2019-05-01T08:25:44Z</time>
      </trkpt>
      <trkpt lat="44.93974" lon="3.40041">
        <ele>1141</ele>
        <time>2019-05-01T08:25:48Z</time>
      </trkpt>
      <trkpt lat="44.93941" lon="3.40029">
        <ele>1143</ele>
        <time>2019-05-01T08:26:06Z</time>
      </trkpt>
      <trkpt lat="44.93937" lon="3.40028">
        <ele>1143</ele>
        <time>2019-05-01T08:26:09Z</time>
      </trkpt>
      <trkpt lat="44.93915" lon="3.40029">
        <ele>1144</ele>
        <time>2019-05-01T08:26:20Z</time>
      </trkpt>
      <trkpt lat="44.93907" lon="3.40028">
        <ele>1145</ele>
        <time>2019-05-01T08:26:25Z</time>
      </trkpt>
      <trkpt lat="44.93871" lon="3.40031">
        <ele>1146</ele>
        <time>2019-05-01T08:26:47Z</time>
      </trkpt>
      <trkpt lat="44.93862" lon="3.4003">
        <ele>1147</ele>
        <time>2019-05-01T08:26:53Z</time>
      </trkpt>
      <trkpt lat="44.93836" lon="3.40036">
        <ele>1148</ele>
        <time>2019-05-01T08:27:06Z</time>
      </trkpt>
      <trkpt lat="44.93833" lon="3.40037">
        <ele>1148</ele>
        <time>2019-05-01T08:27:08Z</time>
      </trkpt>
      <trkpt lat="44.9382" lon="3.4004">
        <ele>1148</ele>
        <time>2019-05-01T08:27:15Z</time>
      </trkpt>
      <trkpt lat="44.938" lon="3.40052">
        <ele>1149</ele>
        <time>2019-05-01T08:27:29Z</time>
      </trkpt>
      <trkpt lat="44.93791" lon="3.40055">
        <ele>1149</ele>
        <time>2019-05-01T08:27:35Z</time>
      </trkpt>
      <trkpt lat="44.93787" lon="3.40055">
        <ele>1150</ele>
        <time>2019-05-01T08:28:03Z</time>
      </trkpt>
      <trkpt lat="44.93772" lon="3.40078">
        <ele>1151</ele>
        <time>2019-05-01T08:28:16Z</time>
      </trkpt>
      <trkpt lat="44.93759" lon="3.40103">
        <ele>1151</ele>
        <time>2019-05-01T08:28:28Z</time>
      </trkpt>
      <trkpt lat="44.93754" lon="3.40109">
        <ele>1152</ele>
        <time>2019-05-01T08:28:32Z</time>
      </trkpt>
      <trkpt lat="44.93745" lon="3.40117">
        <ele>1152</ele>
        <time>2019-05-01T08:28:39Z</time>
      </trkpt>
      <trkpt lat="44.93739" lon="3.40121">
        <ele>1152</ele>
        <time>2019-05-01T08:28:43Z</time>
      </trkpt>
      <trkpt lat="44.93733" lon="3.40127">
        <ele>1152</ele>
        <time>2019-05-01T08:28:47Z</time>
      </trkpt>
      <trkpt lat="44.93719" lon="3.40142">
        <ele>1153</ele>
        <time>2019-05-01T08:28:59Z</time>
      </trkpt>
      <trkpt lat="44.93703" lon="3.4016">
        <ele>1154</ele>
        <time>2019-05-01T08:29:09Z</time>
      </trkpt>
      <trkpt lat="44.93697" lon="3.40175">
        <ele>1154</ele>
        <time>2019-05-01T08:29:16Z</time>
      </trkpt>
      <trkpt lat="44.9369" lon="3.40204">
        <ele>1155</ele>
        <time>2019-05-01T08:29:27Z</time>
      </trkpt>
      <trkpt lat="44.93672" lon="3.40233">
        <ele>1156</ele>
        <time>2019-05-01T08:29:43Z</time>
      </trkpt>
      <trkpt lat="44.93669" lon="3.40238">
        <ele>1156</ele>
        <time>2019-05-01T08:29:45Z</time>
      </trkpt>
      <trkpt lat="44.93662" lon="3.40249">
        <ele>1156</ele>
        <time>2019-05-01T08:29:51Z</time>
      </trkpt>
      <trkpt lat="44.93661" lon="3.40254">
        <ele>1157</ele>
        <time>2019-05-01T08:29:53Z</time>
      </trkpt>
      <trkpt lat="44.93661" lon="3.40259">
        <ele>1157</ele>
        <time>2019-05-01T08:29:55Z</time>
      </trkpt>
      <trkpt lat="44.9366" lon="3.40265">
        <ele>1157</ele>
        <time>2019-05-01T08:29:58Z</time>
      </trkpt>
      <trkpt lat="44.93658" lon="3.40272">
        <ele>1157</ele>
        <time>2019-05-01T08:30:01Z</time>
      </trkpt>
      <trkpt lat="44.93656" lon="3.40278">
        <ele>1158</ele>
        <time>2019-05-01T08:30:04Z</time>
      </trkpt>
      <trkpt lat="44.93645" lon="3.40293">
        <ele>1158</ele>
        <time>2019-05-01T08:30:12Z</time>
      </trkpt>
      <trkpt lat="44.93642" lon="3.40307">
        <ele>1159</ele>
        <time>2019-05-01T08:30:17Z</time>
      </trkpt>
      <trkpt lat="44.93647" lon="3.40347">
        <ele>1160</ele>
        <time>2019-05-01T08:30:30Z</time>
      </trkpt>
      <trkpt lat="44.93647" lon="3.40353">
        <ele>1160</ele>
        <time>2019-05-01T08:30:33Z</time>
      </trkpt>
      <trkpt lat="44.93644" lon="3.4036">
        <ele>1161</ele>
        <time>2019-05-01T08:30:37Z</time>
      </trkpt>
      <trkpt lat="44.93604" lon="3.40391">
        <ele>1163</ele>
        <time>2019-05-01T08:31:07Z</time>
      </trkpt>
      <trkpt lat="44.93594" lon="3.40397">
        <ele>1164</ele>
        <time>2019-05-01T08:31:15Z</time>
      </trkpt>
      <trkpt lat="44.93588" lon="3.40404">
        <ele>1164</ele>
        <time>2019-05-01T08:31:20Z</time>
      </trkpt>
      <trkpt lat="44.93585" lon="3.40411">
        <ele>1165</ele>
        <time>2019-05-01T08:31:25Z</time>
      </trkpt>
      <trkpt lat="44.93566" lon="3.40426">
        <ele>1166</ele>
        <time>2019-05-01T08:31:36Z</time>
      </trkpt>
      <trkpt lat="44.93517" lon="3.40452">
        <ele>1170</ele>
        <time>2019-05-01T08:32:07Z</time>
      </trkpt>
      <trkpt lat="44.93503" lon="3.40461">
        <ele>1171</ele>
        <time>2019-05-01T08:32:15Z</time>
      </trkpt>
      <trkpt lat="44.93498" lon="3.40466">
        <ele>1171</ele>
        <time>2019-05-01T08:32:19Z</time>
      </trkpt>
      <trkpt lat="44.93494" lon="3.40472">
        <ele>1172</ele>
        <time>2019-05-01T08:32:23Z</time>
      </trkpt>
      <trkpt lat="44.93495" lon="3.40479">
        <ele>1172</ele>
        <time>2019-05-01T08:32:25Z</time>
      </trkpt>
      <trkpt lat="44.93496" lon="3.40484">
        <ele>1172</ele>
        <time>2019-05-01T08:32:27Z</time>
      </trkpt>
      <trkpt lat="44.93499" lon="3.40509">
        <ele>1174</ele>
        <time>2019-05-01T08:32:38Z</time>
      </trkpt>
      <trkpt lat="44.93491" lon="3.40544">
        <ele>1177</ele>
        <time>2019-05-01T08:32:53Z</time>
      </trkpt>
      <trkpt lat="44.9347" lon="3.40567">
        <ele>1180</ele>
        <time>2019-05-01T08:33:08Z</time>
      </trkpt>
      <trkpt lat="44.93466" lon="3.40571">
        <ele>1181</ele>
        <time>2019-05-01T08:33:11Z</time>
      </trkpt>
      <trkpt lat="44.93455" lon="3.40583">
        <ele>1182</ele>
        <time>2019-05-01T08:33:19Z</time>
      </trkpt>
      <trkpt lat="44.93451" lon="3.40588">
        <ele>1183</ele>
        <time>2019-05-01T08:33:22Z</time>
      </trkpt>
      <trkpt lat="44.93445" lon="3.40595">
        <ele>1183</ele>
        <time>2019-05-01T08:33:26Z</time>
      </trkpt>
      <trkpt lat="44.93438" lon="3.40598">
        <ele>1184</ele>
        <time>2019-05-01T08:33:30Z</time>
      </trkpt>
      <trkpt lat="44.93435" lon="3.40605">
        <ele>1184</ele>
        <time>2019-05-01T08:33:33Z</time>
      </trkpt>
      <trkpt lat="44.93415" lon="3.40618">
        <ele>1187</ele>
        <time>2019-05-01T08:33:48Z</time>
      </trkpt>
      <trkpt lat="44.93397" lon="3.40645">
        <ele>1189</ele>
        <time>2019-05-01T08:34:02Z</time>
      </trkpt>
      <trkpt lat="44.93387" lon="3.40654">
        <ele>1190</ele>
        <time>2019-05-01T08:34:08Z</time>
      </trkpt>
      <trkpt lat="44.93378" lon="3.40666">
        <ele>1190</ele>
        <time>2019-05-01T08:34:14Z</time>
      </trkpt>
      <trkpt lat="44.93368" lon="3.40676">
        <ele>1191</ele>
        <time>2019-05-01T08:34:21Z</time>
      </trkpt>
      <trkpt lat="44.93364" lon="3.40683">
        <ele>1192</ele>
        <time>2019-05-01T08:34:26Z</time>
      </trkpt>
      <trkpt lat="44.9332" lon="3.40731">
        <ele>1198</ele>
        <time>2019-05-01T08:34:58Z</time>
      </trkpt>
      <trkpt lat="44.93314" lon="3.40737">
        <ele>1199</ele>
        <time>2019-05-01T08:35:03Z</time>
      </trkpt>
      <trkpt lat="44.93309" lon="3.40741">
        <ele>1200</ele>
        <time>2019-05-01T08:35:07Z</time>
      </trkpt>
      <trkpt lat="44.93298" lon="3.40753">
        <ele>1202</ele>
        <time>2019-05-01T08:35:17Z</time>
      </trkpt>
      <trkpt lat="44.93296" lon="3.40761">
        <ele>1202</ele>
        <time>2019-05-01T08:35:19Z</time>
      </trkpt>
      <trkpt lat="44.93291" lon="3.40766">
        <ele>1203</ele>
        <time>2019-05-01T08:35:23Z</time>
      </trkpt>
      <trkpt lat="44.93286" lon="3.40772">
        <ele>1204</ele>
        <time>2019-05-01T08:35:27Z</time>
      </trkpt>
      <trkpt lat="44.93235" lon="3.40803">
        <ele>1211</ele>
        <time>2019-05-01T08:35:57Z</time>
      </trkpt>
      <trkpt lat="44.93206" lon="3.40822">
        <ele>1217</ele>
        <time>2019-05-01T08:36:15Z</time>
      </trkpt>
      <trkpt lat="44.93181" lon="3.40844">
        <ele>1221</ele>
        <time>2019-05-01T08:36:30Z</time>
      </trkpt>
      <trkpt lat="44.93175" lon="3.40847">
        <ele>1223</ele>
        <time>2019-05-01T08:36:34Z</time>
      </trkpt>
      <trkpt lat="44.93157" lon="3.40855">
        <ele>1226</ele>
        <time>2019-05-01T08:36:46Z</time>
      </trkpt>
      <trkpt lat="44.93138" lon="3.40861">
        <ele>1229</ele>
        <time>2019-05-01T08:36:59Z</time>
      </trkpt>
      <trkpt lat="44.93119" lon="3.40885">
        <ele>1234</ele>
        <time>2019-05-01T08:37:15Z</time>
      </trkpt>
      <trkpt lat="44.93111" lon="3.40898">
        <ele>1236</ele>
        <time>2019-05-01T08:37:23Z</time>
      </trkpt>
      <trkpt lat="44.93091" lon="3.40921">
        <ele>1239</ele>
        <time>2019-05-01T08:37:39Z</time>
      </trkpt>
      <trkpt lat="44.93078" lon="3.40937">
        <ele>1242</ele>
        <time>2019-05-01T08:37:51Z</time>
      </trkpt>
      <trkpt lat="44.93067" lon="3.40947">
        <ele>1243</ele>
        <time>2019-05-01T08:37:59Z</time>
      </trkpt>
      <trkpt lat="44.93033" lon="3.41">
        <ele>1247</ele>
        <time>2019-05-01T08:38:32Z</time>
      </trkpt>
      <trkpt lat="44.93023" lon="3.41014">
        <ele>1248</ele>
        <time>2019-05-01T08:38:38Z</time>
      </trkpt>
      <trkpt lat="44.93018" lon="3.41019">
        <ele>1248</ele>
        <time>2019-05-01T08:38:41Z</time>
      </trkpt>
      <trkpt lat="44.9301" lon="3.41029">
        <ele>1249</ele>
        <time>2019-05-01T08:38:50Z</time>
      </trkpt>
      <trkpt lat="44.92996" lon="3.41047">
        <ele>1250</ele>
        <time>2019-05-01T08:39:02Z</time>
      </trkpt>
      <trkpt lat="44.92992" lon="3.41053">
        <ele>1250</ele>
        <time>2019-05-01T08:39:06Z</time>
      </trkpt>
      <trkpt lat="44.92987" lon="3.41059">
        <ele>1250</ele>
        <time>2019-05-01T08:39:09Z</time>
      </trkpt>
      <trkpt lat="44.92979" lon="3.41071">
        <ele>1251</ele>
        <time>2019-05-01T08:39:16Z</time>
      </trkpt>
      <trkpt lat="44.92963" lon="3.41085">
        <ele>1252</ele>
        <time>2019-05-01T08:39:28Z</time>
      </trkpt>
      <trkpt lat="44.92953" lon="3.41095">
        <ele>1252</ele>
        <time>2019-05-01T08:39:36Z</time>
      </trkpt>
      <trkpt lat="44.92948" lon="3.41101">
        <ele>1252</ele>
        <time>2019-05-01T08:39:39Z</time>
      </trkpt>
      <trkpt lat="44.92909" lon="3.41138">
        <ele>1254</ele>
        <time>2019-05-01T08:40:08Z</time>
      </trkpt>
      <trkpt lat="44.92905" lon="3.41141">
        <ele>1255</ele>
        <time>2019-05-01T08:40:11Z</time>
      </trkpt>
      <trkpt lat="44.929" lon="3.41143">
        <ele>1255</ele>
        <time>2019-05-01T08:40:14Z</time>
      </trkpt>
      <trkpt lat="44.92897" lon="3.41148">
        <ele>1255</ele>
        <time>2019-05-01T08:40:17Z</time>
      </trkpt>
      <trkpt lat="44.92894" lon="3.41152">
        <ele>1255</ele>
        <time>2019-05-01T08:40:19Z</time>
      </trkpt>
      <trkpt lat="44.9289" lon="3.41155">
        <ele>1255</ele>
        <time>2019-05-01T08:40:21Z</time>
      </trkpt>
      <trkpt lat="44.92871" lon="3.4118">
        <ele>1256</ele>
        <time>2019-05-01T08:40:38Z</time>
      </trkpt>
      <trkpt lat="44.92863" lon="3.41183">
        <ele>1257</ele>
        <time>2019-05-01T08:40:42Z</time>
      </trkpt>
      <trkpt lat="44.92843" lon="3.41191">
        <ele>1258</ele>
        <time>2019-05-01T08:40:56Z</time>
      </trkpt>
      <trkpt lat="44.92835" lon="3.41196">
        <ele>1258</ele>
        <time>2019-05-01T08:41:02Z</time>
      </trkpt>
      <trkpt lat="44.9283" lon="3.41199">
        <ele>1258</ele>
        <time>2019-05-01T08:41:05Z</time>
      </trkpt>
      <trkpt lat="44.92823" lon="3.41206">
        <ele>1259</ele>
        <time>2019-05-01T08:41:10Z</time>
      </trkpt>
      <trkpt lat="44.92789" lon="3.41236">
        <ele>1261</ele>
        <time>2019-05-01T08:41:39Z</time>
      </trkpt>
      <trkpt lat="44.92778" lon="3.41258">
        <ele>1261</ele>
        <time>2019-05-01T08:41:51Z</time>
      </trkpt>
      <trkpt lat="44.92776" lon="3.41265">
        <ele>1261</ele>
        <time>2019-05-01T08:41:54Z</time>
      </trkpt>
      <trkpt lat="44.92772" lon="3.41281">
        <ele>1262</ele>
        <time>2019-05-01T08:42:01Z</time>
      </trkpt>
      <trkpt lat="44.9277" lon="3.41287">
        <ele>1262</ele>
        <time>2019-05-01T08:42:04Z</time>
      </trkpt>
      <trkpt lat="44.92769" lon="3.41294">
        <ele>1262</ele>
        <time>2019-05-01T08:42:08Z</time>
      </trkpt>
      <trkpt lat="44.92746" lon="3.41315">
        <ele>1263</ele>
        <time>2019-05-01T08:42:25Z</time>
      </trkpt>
      <trkpt lat="44.92743" lon="3.41318">
        <ele>1263</ele>
        <time>2019-05-01T08:42:27Z</time>
      </trkpt>
      <trkpt lat="44.92739" lon="3.41319">
        <ele>1263</ele>
        <time>2019-05-01T08:42:30Z</time>
      </trkpt>
      <trkpt lat="44.92734" lon="3.41317">
        <ele>1264</ele>
        <time>2019-05-01T08:42:37Z</time>
      </trkpt>
      <trkpt lat="44.92731" lon="3.41314">
        <ele>1264</ele>
        <time>2019-05-01T08:42:39Z</time>
      </trkpt>
      <trkpt lat="44.92727" lon="3.41311">
        <ele>1264</ele>
        <time>2019-05-01T08:42:41Z</time>
      </trkpt>
      <trkpt lat="44.92713" lon="3.41298">
        <ele>1264</ele>
        <time>2019-05-01T08:42:51Z</time>
      </trkpt>
      <trkpt lat="44.9271" lon="3.41292">
        <ele>1264</ele>
        <time>2019-05-01T08:42:54Z</time>
      </trkpt>
      <trkpt lat="44.92697" lon="3.41287">
        <ele>1265</ele>
        <time>2019-05-01T08:43:03Z</time>
      </trkpt>
      <trkpt lat="44.92692" lon="3.41283">
        <ele>1265</ele>
        <time>2019-05-01T08:43:07Z</time>
      </trkpt>
      <trkpt lat="44.92681" lon="3.41273">
        <ele>1265</ele>
        <time>2019-05-01T08:43:14Z</time>
      </trkpt>
      <trkpt lat="44.92637" lon="3.41237">
        <ele>1266</ele>
        <time>2019-05-01T08:43:44Z</time>
      </trkpt>
      <trkpt lat="44.92633" lon="3.41234">
        <ele>1266</ele>
        <time>2019-05-01T08:43:48Z</time>
      </trkpt>
      <trkpt lat="44.92619" lon="3.41223">
        <ele>1267</ele>
        <time>2019-05-01T08:43:59Z</time>
      </trkpt>
      <trkpt lat="44.92613" lon="3.41223">
        <ele>1267</ele>
        <time>2019-05-01T08:44:02Z</time>
      </trkpt>
      <trkpt lat="44.92608" lon="3.4122">
        <ele>1267</ele>
        <time>2019-05-01T08:44:05Z</time>
      </trkpt>
      <trkpt lat="44.92604" lon="3.41215">
        <ele>1267</ele>
        <time>2019-05-01T08:44:08Z</time>
      </trkpt>
      <trkpt lat="44.92597" lon="3.41209">
        <ele>1267</ele>
        <time>2019-05-01T08:44:11Z</time>
      </trkpt>
      <trkpt lat="44.92591" lon="3.41206">
        <ele>1267</ele>
        <time>2019-05-01T08:44:15Z</time>
      </trkpt>
      <trkpt lat="44.92584" lon="3.41202">
        <ele>1267</ele>
        <time>2019-05-01T08:44:20Z</time>
      </trkpt>
      <trkpt lat="44.92578" lon="3.41198">
        <ele>1267</ele>
        <time>2019-05-01T08:44:23Z</time>
      </trkpt>
      <trkpt lat="44.92573" lon="3.41191">
        <ele>1267</ele>
        <time>2019-05-01T08:44:28Z</time>
      </trkpt>
      <trkpt lat="44.92568" lon="3.41188">
        <ele>1268</ele>
        <time>2019-05-01T08:44:34Z</time>
      </trkpt>
      <trkpt lat="44.92564" lon="3.41182">
        <ele>1268</ele>
        <time>2019-05-01T08:44:38Z</time>
      </trkpt>
      <trkpt lat="44.92559" lon="3.41178">
        <ele>1268</ele>
        <time>2019-05-01T08:44:43Z</time>
      </trkpt>
      <trkpt lat="44.92541" lon="3.41167">
        <ele>1268</ele>
        <time>2019-05-01T08:44:55Z</time>
      </trkpt>
      <trkpt lat="44.92535" lon="3.41164">
        <ele>1268</ele>
        <time>2019-05-01T08:44:59Z</time>
      </trkpt>
      <trkpt lat="44.92527" lon="3.4116">
        <ele>1269</ele>
        <time>2019-05-01T08:45:06Z</time>
      </trkpt>
      <trkpt lat="44.92522" lon="3.41157">
        <ele>1269</ele>
        <time>2019-05-01T08:45:09Z</time>
      </trkpt>
      <trkpt lat="44.92517" lon="3.41155">
        <ele>1269</ele>
        <time>2019-05-01T08:45:12Z</time>
      </trkpt>
      <trkpt lat="44.92495" lon="3.4114">
        <ele>1269</ele>
        <time>2019-05-01T08:45:27Z</time>
      </trkpt>
      <trkpt lat="44.9249" lon="3.41136">
        <ele>1269</ele>
        <time>2019-05-01T08:45:30Z</time>
      </trkpt>
      <trkpt lat="44.92486" lon="3.41134">
        <ele>1269</ele>
        <time>2019-05-01T08:45:33Z</time>
      </trkpt>
      <trkpt lat="44.92475" lon="3.41139">
        <ele>1270</ele>
        <time>2019-05-01T08:45:42Z</time>
      </trkpt>
      <trkpt lat="44.92457" lon="3.41137">
        <ele>1270</ele>
        <time>2019-05-01T08:45:53Z</time>
      </trkpt>
      <trkpt lat="44.92444" lon="3.41136">
        <ele>1271</ele>
        <time>2019-05-01T08:46:01Z</time>
      </trkpt>
      <trkpt lat="44.92431" lon="3.41133">
        <ele>1271</ele>
        <time>2019-05-01T08:46:09Z</time>
      </trkpt>
      <trkpt lat="44.92419" lon="3.41124">
        <ele>1271</ele>
        <time>2019-05-01T08:46:18Z</time>
      </trkpt>
      <trkpt lat="44.92416" lon="3.41122">
        <ele>1271</ele>
        <time>2019-05-01T08:46:20Z</time>
      </trkpt>
      <trkpt lat="44.92411" lon="3.41119">
        <ele>1271</ele>
        <time>2019-05-01T08:46:23Z</time>
      </trkpt>
      <trkpt lat="44.92402" lon="3.41107">
        <ele>1272</ele>
        <time>2019-05-01T08:46:32Z</time>
      </trkpt>
      <trkpt lat="44.92399" lon="3.41104">
        <ele>1272</ele>
        <time>2019-05-01T08:46:35Z</time>
      </trkpt>
      <trkpt lat="44.92392" lon="3.41099">
        <ele>1272</ele>
        <time>2019-05-01T08:46:42Z</time>
      </trkpt>
      <trkpt lat="44.92389" lon="3.41096">
        <ele>1272</ele>
        <time>2019-05-01T08:46:47Z</time>
      </trkpt>
      <trkpt lat="44.92385" lon="3.41095">
        <ele>1272</ele>
        <time>2019-05-01T08:46:52Z</time>
      </trkpt>
      <trkpt lat="44.92381" lon="3.4109">
        <ele>1272</ele>
        <time>2019-05-01T08:46:58Z</time>
      </trkpt>
      <trkpt lat="44.92375" lon="3.41087">
        <ele>1272</ele>
        <time>2019-05-01T08:47:02Z</time>
      </trkpt>
      <trkpt lat="44.92362" lon="3.4108">
        <ele>1273</ele>
        <time>2019-05-01T08:47:10Z</time>
      </trkpt>
      <trkpt lat="44.92315" lon="3.41065">
        <ele>1273</ele>
        <time>2019-05-01T08:47:36Z</time>
      </trkpt>
      <trkpt lat="44.92304" lon="3.41066">
        <ele>1273</ele>
        <time>2019-05-01T08:47:43Z</time>
      </trkpt>
      <trkpt lat="44.9229" lon="3.41066">
        <ele>1273</ele>
        <time>2019-05-01T08:47:52Z</time>
      </trkpt>
      <trkpt lat="44.92278" lon="3.41068">
        <ele>1273</ele>
        <time>2019-05-01T08:48:02Z</time>
      </trkpt>
      <trkpt lat="44.92274" lon="3.4107">
        <ele>1273</ele>
        <time>2019-05-01T08:48:04Z</time>
      </trkpt>
      <trkpt lat="44.92249" lon="3.41075">
        <ele>1273</ele>
        <time>2019-05-01T08:48:19Z</time>
      </trkpt>
      <trkpt lat="44.92241" lon="3.41075">
        <ele>1273</ele>
        <time>2019-05-01T08:48:24Z</time>
      </trkpt>
      <trkpt lat="44.92227" lon="3.41075">
        <ele>1273</ele>
        <time>2019-05-01T08:48:35Z</time>
      </trkpt>
      <trkpt lat="44.92221" lon="3.41075">
        <ele>1273</ele>
        <time>2019-05-01T08:48:39Z</time>
      </trkpt>
      <trkpt lat="44.92208" lon="3.41073">
        <ele>1273</ele>
        <time>2019-05-01T08:48:48Z</time>
      </trkpt>
      <trkpt lat="44.92196" lon="3.41072">
        <ele>1273</ele>
        <time>2019-05-01T08:48:56Z</time>
      </trkpt>
      <trkpt lat="44.92182" lon="3.4107">
        <ele>1273</ele>
        <time>2019-05-01T08:49:04Z</time>
      </trkpt>
      <trkpt lat="44.9216" lon="3.41063">
        <ele>1273</ele>
        <time>2019-05-01T08:49:21Z</time>
      </trkpt>
      <trkpt lat="44.92156" lon="3.41061">
        <ele>1273</ele>
        <time>2019-05-01T08:49:24Z</time>
      </trkpt>
      <trkpt lat="44.92131" lon="3.41062">
        <ele>1273</ele>
        <time>2019-05-01T08:49:40Z</time>
      </trkpt>
      <trkpt lat="44.92123" lon="3.41058">
        <ele>1273</ele>
        <time>2019-05-01T08:49:44Z</time>
      </trkpt>
      <trkpt lat="44.92118" lon="3.41053">
        <ele>1273</ele>
        <time>2019-05-01T08:49:48Z</time>
      </trkpt>
      <trkpt lat="44.92107" lon="3.41057">
        <ele>1273</ele>
        <time>2019-05-01T08:49:55Z</time>
      </trkpt>
      <trkpt lat="44.92101" lon="3.41057">
        <ele>1273</ele>
        <time>2019-05-01T08:50:00Z</time>
      </trkpt>
      <trkpt lat="44.92095" lon="3.41057">
        <ele>1273</ele>
        <time>2019-05-01T08:50:03Z</time>
      </trkpt>
      <trkpt lat="44.92091" lon="3.41056">
        <ele>1273</ele>
        <time>2019-05-01T08:50:06Z</time>
      </trkpt>
      <trkpt lat="44.92087" lon="3.41055">
        <ele>1273</ele>
        <time>2019-05-01T08:50:09Z</time>
      </trkpt>
      <trkpt lat="44.92049" lon="3.41052">
        <ele>1273</ele>
        <time>2019-05-01T08:50:33Z</time>
      </trkpt>
      <trkpt lat="44.92041" lon="3.41051">
        <ele>1273</ele>
        <time>2019-05-01T08:50:38Z</time>
      </trkpt>
      <trkpt lat="44.92028" lon="3.41051">
        <ele>1273</ele>
        <time>2019-05-01T08:50:47Z</time>
      </trkpt>
      <trkpt lat="44.92016" lon="3.4105">
        <ele>1273</ele>
        <time>2019-05-01T08:50:55Z</time>
      </trkpt>
      <trkpt lat="44.92003" lon="3.41051">
        <ele>1273</ele>
        <time>2019-05-01T08:51:04Z</time>
      </trkpt>
      <trkpt lat="44.92" lon="3.41052">
        <ele>1273</ele>
        <time>2019-05-01T08:51:06Z</time>
      </trkpt>
      <trkpt lat="44.91996" lon="3.41054">
        <ele>1273</ele>
        <time>2019-05-01T08:51:08Z</time>
      </trkpt>
      <trkpt lat="44.91991" lon="3.41053">
        <ele>1273</ele>
        <time>2019-05-01T08:51:11Z</time>
      </trkpt>
      <trkpt lat="44.91967" lon="3.41056">
        <ele>1273</ele>
        <time>2019-05-01T08:51:27Z</time>
      </trkpt>
      <trkpt lat="44.91961" lon="3.41058">
        <ele>1273</ele>
        <time>2019-05-01T08:51:32Z</time>
      </trkpt>
      <trkpt lat="44.91945" lon="3.41062">
        <ele>1273</ele>
        <time>2019-05-01T08:51:45Z</time>
      </trkpt>
      <trkpt lat="44.9194" lon="3.41063">
        <ele>1273</ele>
        <time>2019-05-01T08:51:48Z</time>
      </trkpt>
      <trkpt lat="44.91936" lon="3.41063">
        <ele>1273</ele>
        <time>2019-05-01T08:51:51Z</time>
      </trkpt>
      <trkpt lat="44.91925" lon="3.41067">
        <ele>1273</ele>
        <time>2019-05-01T08:51:58Z</time>
      </trkpt>
      <trkpt lat="44.919" lon="3.41079">
        <ele>1273</ele>
        <time>2019-05-01T08:52:13Z</time>
      </trkpt>
      <trkpt lat="44.91893" lon="3.41083">
        <ele>1273</ele>
        <time>2019-05-01T08:52:19Z</time>
      </trkpt>
      <trkpt lat="44.91882" lon="3.41093">
        <ele>1273</ele>
        <time>2019-05-01T08:52:27Z</time>
      </trkpt>
      <trkpt lat="44.91877" lon="3.41098">
        <ele>1273</ele>
        <time>2019-05-01T08:52:30Z</time>
      </trkpt>
      <trkpt lat="44.91866" lon="3.41105">
        <ele>1273</ele>
        <time>2019-05-01T08:52:37Z</time>
      </trkpt>
      <trkpt lat="44.91862" lon="3.41107">
        <ele>1273</ele>
        <time>2019-05-01T08:52:40Z</time>
      </trkpt>
      <trkpt lat="44.91851" lon="3.41119">
        <ele>1273</ele>
        <time>2019-05-01T08:52:50Z</time>
      </trkpt>
      <trkpt lat="44.91842" lon="3.41124">
        <ele>1273</ele>
        <time>2019-05-01T08:52:57Z</time>
      </trkpt>
      <trkpt lat="44.91833" lon="3.41131">
        <ele>1273</ele>
        <time>2019-05-01T08:53:04Z</time>
      </trkpt>
      <trkpt lat="44.91827" lon="3.41132">
        <ele>1273</ele>
        <time>2019-05-01T08:53:09Z</time>
      </trkpt>
      <trkpt lat="44.91788" lon="3.41142">
        <ele>1272</ele>
        <time>2019-05-01T08:53:36Z</time>
      </trkpt>
      <trkpt lat="44.91783" lon="3.41142">
        <ele>1272</ele>
        <time>2019-05-01T08:53:41Z</time>
      </trkpt>
      <trkpt lat="44.91775" lon="3.41146">
        <ele>1272</ele>
        <time>2019-05-01T08:53:45Z</time>
      </trkpt>
      <trkpt lat="44.91757" lon="3.41152">
        <ele>1272</ele>
        <time>2019-05-01T08:53:59Z</time>
      </trkpt>
      <trkpt lat="44.91739" lon="3.41162">
        <ele>1272</ele>
        <time>2019-05-01T08:54:08Z</time>
      </trkpt>
      <trkpt lat="44.91734" lon="3.41164">
        <ele>1272</ele>
        <time>2019-05-01T08:54:11Z</time>
      </trkpt>
      <trkpt lat="44.91723" lon="3.41174">
        <ele>1272</ele>
        <time>2019-05-01T08:54:19Z</time>
      </trkpt>
      <trkpt lat="44.91719" lon="3.4118">
        <ele>1272</ele>
        <time>2019-05-01T08:54:23Z</time>
      </trkpt>
      <trkpt lat="44.91705" lon="3.41199">
        <ele>1272</ele>
        <time>2019-05-01T08:54:34Z</time>
      </trkpt>
      <trkpt lat="44.91702" lon="3.41204">
        <ele>1271</ele>
        <time>2019-05-01T08:54:37Z</time>
      </trkpt>
      <trkpt lat="44.91693" lon="3.41217">
        <ele>1271</ele>
        <time>2019-05-01T08:54:45Z</time>
      </trkpt>
      <trkpt lat="44.91691" lon="3.41221">
        <ele>1271</ele>
        <time>2019-05-01T08:54:48Z</time>
      </trkpt>
      <trkpt lat="44.91682" lon="3.4123">
        <ele>1271</ele>
        <time>2019-05-01T08:54:55Z</time>
      </trkpt>
      <trkpt lat="44.91672" lon="3.41233">
        <ele>1271</ele>
        <time>2019-05-01T08:55:02Z</time>
      </trkpt>
      <trkpt lat="44.91668" lon="3.4123">
        <ele>1271</ele>
        <time>2019-05-01T08:55:04Z</time>
      </trkpt>
      <trkpt lat="44.91664" lon="3.41228">
        <ele>1271</ele>
        <time>2019-05-01T08:55:07Z</time>
      </trkpt>
      <trkpt lat="44.91658" lon="3.4123">
        <ele>1271</ele>
        <time>2019-05-01T08:55:11Z</time>
      </trkpt>
      <trkpt lat="44.91653" lon="3.41228">
        <ele>1271</ele>
        <time>2019-05-01T08:55:15Z</time>
      </trkpt>
      <trkpt lat="44.91647" lon="3.41228">
        <ele>1271</ele>
        <time>2019-05-01T08:55:18Z</time>
      </trkpt>
      <trkpt lat="44.9164" lon="3.4123">
        <ele>1271</ele>
        <time>2019-05-01T08:55:21Z</time>
      </trkpt>
      <trkpt lat="44.91634" lon="3.41234">
        <ele>1271</ele>
        <time>2019-05-01T08:55:25Z</time>
      </trkpt>
      <trkpt lat="44.91614" lon="3.41253">
        <ele>1270</ele>
        <time>2019-05-01T08:55:47Z</time>
      </trkpt>
      <trkpt lat="44.9161" lon="3.41258">
        <ele>1270</ele>
        <time>2019-05-01T08:55:52Z</time>
      </trkpt>
      <trkpt lat="44.91605" lon="3.41264">
        <ele>1270</ele>
        <time>2019-05-01T08:55:56Z</time>
      </trkpt>
      <trkpt lat="44.916" lon="3.41268">
        <ele>1270</ele>
        <time>2019-05-01T08:56:02Z</time>
      </trkpt>
      <trkpt lat="44.91595" lon="3.41276">
        <ele>1270</ele>
        <time>2019-05-01T08:56:07Z</time>
      </trkpt>
      <trkpt lat="44.91589" lon="3.41282">
        <ele>1270</ele>
        <time>2019-05-01T08:56:12Z</time>
      </trkpt>
      <trkpt lat="44.91583" lon="3.41289">
        <ele>1270</ele>
        <time>2019-05-01T08:56:17Z</time>
      </trkpt>
      <trkpt lat="44.91577" lon="3.41296">
        <ele>1270</ele>
        <time>2019-05-01T08:56:23Z</time>
      </trkpt>
      <trkpt lat="44.91571" lon="3.41301">
        <ele>1270</ele>
        <time>2019-05-01T08:56:30Z</time>
      </trkpt>
      <trkpt lat="44.91566" lon="3.41294">
        <ele>1270</ele>
        <time>2019-05-01T08:56:35Z</time>
      </trkpt>
      <trkpt lat="44.91568" lon="3.41287">
        <ele>1270</ele>
        <time>2019-05-01T08:56:40Z</time>
      </trkpt>
      <trkpt lat="44.91578" lon="3.41275">
        <ele>1270</ele>
        <time>2019-05-01T08:56:54Z</time>
      </trkpt>
      <trkpt lat="44.91581" lon="3.41263">
        <ele>1270</ele>
        <time>2019-05-01T08:57:01Z</time>
      </trkpt>
      <trkpt lat="44.91582" lon="3.41254">
        <ele>1270</ele>
        <time>2019-05-01T08:57:05Z</time>
      </trkpt>
      <trkpt lat="44.91582" lon="3.41246">
        <ele>1270</ele>
        <time>2019-05-01T08:57:08Z</time>
      </trkpt>
      <trkpt lat="44.91586" lon="3.41236">
        <ele>1270</ele>
        <time>2019-05-01T08:57:13Z</time>
      </trkpt>
      <trkpt lat="44.91589" lon="3.41223">
        <ele>1270</ele>
        <time>2019-05-01T08:57:17Z</time>
      </trkpt>
      <trkpt lat="44.9159" lon="3.41211">
        <ele>1270</ele>
        <time>2019-05-01T08:57:21Z</time>
      </trkpt>
      <trkpt lat="44.91588" lon="3.41193">
        <ele>1270</ele>
        <time>2019-05-01T08:57:31Z</time>
      </trkpt>
      <trkpt lat="44.91587" lon="3.41178">
        <ele>1270</ele>
        <time>2019-05-01T08:57:37Z</time>
      </trkpt>
      <trkpt lat="44.91588" lon="3.41167">
        <ele>1270</ele>
        <time>2019-05-01T08:57:41Z</time>
      </trkpt>
      <trkpt lat="44.91582" lon="3.41119">
        <ele>1270</ele>
        <time>2019-05-01T08:58:04Z</time>
      </trkpt>
      <trkpt lat="44.91579" lon="3.41107">
        <ele>1270</ele>
        <time>2019-05-01T08:58:10Z</time>
      </trkpt>
      <trkpt lat="44.91577" lon="3.41103">
        <ele>1270</ele>
        <time>2019-05-01T08:58:13Z</time>
      </trkpt>
      <trkpt lat="44.91574" lon="3.4109">
        <ele>1270</ele>
        <time>2019-05-01T08:58:19Z</time>
      </trkpt>
      <trkpt lat="44.91573" lon="3.41084">
        <ele>1270</ele>
        <time>2019-05-01T08:58:22Z</time>
      </trkpt>
      <trkpt lat="44.91571" lon="3.41072">
        <ele>1270</ele>
        <time>2019-05-01T08:58:28Z</time>
      </trkpt>
      <trkpt lat="44.9157" lon="3.41067">
        <ele>1270</ele>
        <time>2019-05-01T08:58:30Z</time>
      </trkpt>
      <trkpt lat="44.9157" lon="3.41062">
        <ele>1270</ele>
        <time>2019-05-01T08:58:32Z</time>
      </trkpt>
      <trkpt lat="44.91569" lon="3.41057">
        <ele>1270</ele>
        <time>2019-05-01T08:58:34Z</time>
      </trkpt>
      <trkpt lat="44.91565" lon="3.41043">
        <ele>1270</ele>
        <time>2019-05-01T08:58:40Z</time>
      </trkpt>
      <trkpt lat="44.91562" lon="3.41034">
        <ele>1270</ele>
        <time>2019-05-01T08:58:45Z</time>
      </trkpt>
      <trkpt lat="44.91561" lon="3.4103">
        <ele>1270</ele>
        <time>2019-05-01T08:58:49Z</time>
      </trkpt>
      <trkpt lat="44.91555" lon="3.41019">
        <ele>1270</ele>
        <time>2019-05-01T08:58:55Z</time>
      </trkpt>
      <trkpt lat="44.91554" lon="3.41015">
        <ele>1271</ele>
        <time>2019-05-01T08:58:57Z</time>
      </trkpt>
      <trkpt lat="44.91553" lon="3.41011">
        <ele>1271</ele>
        <time>2019-05-01T08:59:00Z</time>
      </trkpt>
      <trkpt lat="44.91551" lon="3.41">
        <ele>1271</ele>
        <time>2019-05-01T08:59:04Z</time>
      </trkpt>
      <trkpt lat="44.91548" lon="3.40992">
        <ele>1271</ele>
        <time>2019-05-01T08:59:08Z</time>
      </trkpt>
      <trkpt lat="44.91545" lon="3.40989">
        <ele>1271</ele>
        <time>2019-05-01T08:59:11Z</time>
      </trkpt>
      <trkpt lat="44.91544" lon="3.40985">
        <ele>1271</ele>
        <time>2019-05-01T08:59:14Z</time>
      </trkpt>
      <trkpt lat="44.91542" lon="3.40982">
        <ele>1271</ele>
        <time>2019-05-01T08:59:16Z</time>
      </trkpt>
      <trkpt lat="44.91539" lon="3.4098">
        <ele>1271</ele>
        <time>2019-05-01T08:59:19Z</time>
      </trkpt>
      <trkpt lat="44.91536" lon="3.40983">
        <ele>1271</ele>
        <time>2019-05-01T08:59:24Z</time>
      </trkpt>
      <trkpt lat="44.91534" lon="3.41012">
        <ele>1272</ele>
        <time>2019-05-01T08:59:32Z</time>
      </trkpt>
      <trkpt lat="44.91531" lon="3.41026">
        <ele>1272</ele>
        <time>2019-05-01T08:59:41Z</time>
      </trkpt>
      <trkpt lat="44.91528" lon="3.41036">
        <ele>1273</ele>
        <time>2019-05-01T08:59:49Z</time>
      </trkpt>
      <trkpt lat="44.91523" lon="3.41039">
        <ele>1273</ele>
        <time>2019-05-01T08:59:53Z</time>
      </trkpt>
      <trkpt lat="44.9152" lon="3.41037">
        <ele>1273</ele>
        <time>2019-05-01T08:59:55Z</time>
      </trkpt>
      <trkpt lat="44.91516" lon="3.41034">
        <ele>1273</ele>
        <time>2019-05-01T08:59:57Z</time>
      </trkpt>
      <trkpt lat="44.91514" lon="3.41031">
        <ele>1273</ele>
        <time>2019-05-01T08:59:59Z</time>
      </trkpt>
      <trkpt lat="44.91509" lon="3.41019">
        <ele>1274</ele>
        <time>2019-05-01T09:00:06Z</time>
      </trkpt>
      <trkpt lat="44.91506" lon="3.41008">
        <ele>1274</ele>
        <time>2019-05-01T09:00:12Z</time>
      </trkpt>
      <trkpt lat="44.91501" lon="3.40998">
        <ele>1274</ele>
        <time>2019-05-01T09:00:19Z</time>
      </trkpt>
      <trkpt lat="44.91499" lon="3.40993">
        <ele>1274</ele>
        <time>2019-05-01T09:00:22Z</time>
      </trkpt>
      <trkpt lat="44.91494" lon="3.40984">
        <ele>1275</ele>
        <time>2019-05-01T09:00:27Z</time>
      </trkpt>
      <trkpt lat="44.91489" lon="3.40975">
        <ele>1275</ele>
        <time>2019-05-01T09:00:32Z</time>
      </trkpt>
      <trkpt lat="44.91487" lon="3.40971">
        <ele>1275</ele>
        <time>2019-05-01T09:00:34Z</time>
      </trkpt>
      <trkpt lat="44.91483" lon="3.40966">
        <ele>1275</ele>
        <time>2019-05-01T09:00:37Z</time>
      </trkpt>
      <trkpt lat="44.91481" lon="3.40963">
        <ele>1275</ele>
        <time>2019-05-01T09:00:40Z</time>
      </trkpt>
      <trkpt lat="44.9148" lon="3.40957">
        <ele>1275</ele>
        <time>2019-05-01T09:00:43Z</time>
      </trkpt>
      <trkpt lat="44.91478" lon="3.40953">
        <ele>1275</ele>
        <time>2019-05-01T09:00:45Z</time>
      </trkpt>
      <trkpt lat="44.91476" lon="3.40946">
        <ele>1276</ele>
        <time>2019-05-01T09:00:48Z</time>
      </trkpt>
      <trkpt lat="44.91476" lon="3.4094">
        <ele>1276</ele>
        <time>2019-05-01T09:00:50Z</time>
      </trkpt>
      <trkpt lat="44.91473" lon="3.40925">
        <ele>1276</ele>
        <time>2019-05-01T09:00:58Z</time>
      </trkpt>
      <trkpt lat="44.91472" lon="3.40911">
        <ele>1276</ele>
        <time>2019-05-01T09:01:04Z</time>
      </trkpt>
      <trkpt lat="44.91472" lon="3.40898">
        <ele>1276</ele>
        <time>2019-05-01T09:01:10Z</time>
      </trkpt>
      <trkpt lat="44.91472" lon="3.40893">
        <ele>1276</ele>
        <time>2019-05-01T09:01:12Z</time>
      </trkpt>
      <trkpt lat="44.9147" lon="3.40888">
        <ele>1276</ele>
        <time>2019-05-01T09:01:14Z</time>
      </trkpt>
      <trkpt lat="44.91469" lon="3.40883">
        <ele>1277</ele>
        <time>2019-05-01T09:01:17Z</time>
      </trkpt>
      <trkpt lat="44.91469" lon="3.4087">
        <ele>1277</ele>
        <time>2019-05-01T09:01:25Z</time>
      </trkpt>
      <trkpt lat="44.91469" lon="3.40864">
        <ele>1277</ele>
        <time>2019-05-01T09:01:27Z</time>
      </trkpt>
      <trkpt lat="44.9147" lon="3.40858">
        <ele>1277</ele>
        <time>2019-05-01T09:01:30Z</time>
      </trkpt>
      <trkpt lat="44.91469" lon="3.4084">
        <ele>1277</ele>
        <time>2019-05-01T09:01:41Z</time>
      </trkpt>
      <trkpt lat="44.91467" lon="3.40825">
        <ele>1278</ele>
        <time>2019-05-01T09:01:47Z</time>
      </trkpt>
      <trkpt lat="44.91466" lon="3.40818">
        <ele>1278</ele>
        <time>2019-05-01T09:01:50Z</time>
      </trkpt>
      <trkpt lat="44.91464" lon="3.40799">
        <ele>1278</ele>
        <time>2019-05-01T09:01:58Z</time>
      </trkpt>
      <trkpt lat="44.91462" lon="3.40793">
        <ele>1278</ele>
        <time>2019-05-01T09:02:01Z</time>
      </trkpt>
      <trkpt lat="44.9146" lon="3.40789">
        <ele>1278</ele>
        <time>2019-05-01T09:02:03Z</time>
      </trkpt>
      <trkpt lat="44.91459" lon="3.40783">
        <ele>1278</ele>
        <time>2019-05-01T09:02:06Z</time>
      </trkpt>
      <trkpt lat="44.91453" lon="3.40763">
        <ele>1278</ele>
        <time>2019-05-01T09:02:16Z</time>
      </trkpt>
      <trkpt lat="44.91451" lon="3.40758">
        <ele>1279</ele>
        <time>2019-05-01T09:02:18Z</time>
      </trkpt>
      <trkpt lat="44.91451" lon="3.40752">
        <ele>1279</ele>
        <time>2019-05-01T09:02:21Z</time>
      </trkpt>
      <trkpt lat="44.91449" lon="3.40745">
        <ele>1279</ele>
        <time>2019-05-01T09:02:24Z</time>
      </trkpt>
      <trkpt lat="44.91449" lon="3.40739">
        <ele>1279</ele>
        <time>2019-05-01T09:02:27Z</time>
      </trkpt>
      <trkpt lat="44.91448" lon="3.40734">
        <ele>1279</ele>
        <time>2019-05-01T09:02:30Z</time>
      </trkpt>
      <trkpt lat="44.91445" lon="3.40723">
        <ele>1279</ele>
        <time>2019-05-01T09:02:35Z</time>
      </trkpt>
      <trkpt lat="44.91443" lon="3.40718">
        <ele>1279</ele>
        <time>2019-05-01T09:02:37Z</time>
      </trkpt>
      <trkpt lat="44.9144" lon="3.40708">
        <ele>1280</ele>
        <time>2019-05-01T09:02:42Z</time>
      </trkpt>
      <trkpt lat="44.91439" lon="3.40704">
        <ele>1280</ele>
        <time>2019-05-01T09:02:44Z</time>
      </trkpt>
      <trkpt lat="44.91437" lon="3.40698">
        <ele>1280</ele>
        <time>2019-05-01T09:02:47Z</time>
      </trkpt>
      <trkpt lat="44.9143" lon="3.40676">
        <ele>1280</ele>
        <time>2019-05-01T09:02:58Z</time>
      </trkpt>
      <trkpt lat="44.91429" lon="3.40671">
        <ele>1280</ele>
        <time>2019-05-01T09:03:00Z</time>
      </trkpt>
      <trkpt lat="44.91424" lon="3.40653">
        <ele>1281</ele>
        <time>2019-05-01T09:03:09Z</time>
      </trkpt>
      <trkpt lat="44.91423" lon="3.40648">
        <ele>1281</ele>
        <time>2019-05-01T09:03:14Z</time>
      </trkpt>
      <trkpt lat="44.91421" lon="3.40642">
        <ele>1281</ele>
        <time>2019-05-01T09:03:19Z</time>
      </trkpt>
      <trkpt lat="44.91417" lon="3.40631">
        <ele>1282</ele>
        <time>2019-05-01T09:03:25Z</time>
      </trkpt>
      <trkpt lat="44.91415" lon="3.40626">
        <ele>1282</ele>
        <time>2019-05-01T09:03:27Z</time>
      </trkpt>
      <trkpt lat="44.91402" lon="3.40602">
        <ele>1284</ele>
        <time>2019-05-01T09:03:38Z</time>
      </trkpt>
      <trkpt lat="44.91391" lon="3.40584">
        <ele>1285</ele>
        <time>2019-05-01T09:03:50Z</time>
      </trkpt>
      <trkpt lat="44.91365" lon="3.40541">
        <ele>1290</ele>
        <time>2019-05-01T09:04:17Z</time>
      </trkpt>
      <trkpt lat="44.91362" lon="3.40537">
        <ele>1290</ele>
        <time>2019-05-01T09:04:20Z</time>
      </trkpt>
      <trkpt lat="44.91331" lon="3.40481">
        <ele>1295</ele>
        <time>2019-05-01T09:04:50Z</time>
      </trkpt>
      <trkpt lat="44.91326" lon="3.40472">
        <ele>1296</ele>
        <time>2019-05-01T09:04:55Z</time>
      </trkpt>
      <trkpt lat="44.91316" lon="3.40457">
        <ele>1297</ele>
        <time>2019-05-01T09:05:04Z</time>
      </trkpt>
      <trkpt lat="44.91293" lon="3.40409">
        <ele>1301</ele>
        <time>2019-05-01T09:05:34Z</time>
      </trkpt>
      <trkpt lat="44.91281" lon="3.40386">
        <ele>1302</ele>
        <time>2019-05-01T09:05:45Z</time>
      </trkpt>
      <trkpt lat="44.91275" lon="3.40369">
        <ele>1304</ele>
        <time>2019-05-01T09:05:54Z</time>
      </trkpt>
      <trkpt lat="44.91274" lon="3.40365">
        <ele>1304</ele>
        <time>2019-05-01T09:05:56Z</time>
      </trkpt>
      <trkpt lat="44.91271" lon="3.40361">
        <ele>1304</ele>
        <time>2019-05-01T09:05:59Z</time>
      </trkpt>
      <trkpt lat="44.91268" lon="3.40353">
        <ele>1305</ele>
        <time>2019-05-01T09:06:03Z</time>
      </trkpt>
      <trkpt lat="44.91261" lon="3.40342">
        <ele>1306</ele>
        <time>2019-05-01T09:06:09Z</time>
      </trkpt>
      <trkpt lat="44.91257" lon="3.40328">
        <ele>1307</ele>
        <time>2019-05-01T09:06:16Z</time>
      </trkpt>
      <trkpt lat="44.91248" lon="3.40318">
        <ele>1307</ele>
        <time>2019-05-01T09:06:20Z</time>
      </trkpt>
      <trkpt lat="44.91231" lon="3.40282">
        <ele>1310</ele>
        <time>2019-05-01T09:06:40Z</time>
      </trkpt>
      <trkpt lat="44.91218" lon="3.40264">
        <ele>1311</ele>
        <time>2019-05-01T09:06:49Z</time>
      </trkpt>
      <trkpt lat="44.91201" lon="3.40224">
        <ele>1314</ele>
        <time>2019-05-01T09:07:13Z</time>
      </trkpt>
      <trkpt lat="44.9119" lon="3.40215">
        <ele>1315</ele>
        <time>2019-05-01T09:07:20Z</time>
      </trkpt>
      <trkpt lat="44.91187" lon="3.4021">
        <ele>1315</ele>
        <time>2019-05-01T09:07:22Z</time>
      </trkpt>
      <trkpt lat="44.91185" lon="3.40207">
        <ele>1315</ele>
        <time>2019-05-01T09:07:24Z</time>
      </trkpt>
      <trkpt lat="44.91183" lon="3.40203">
        <ele>1315</ele>
        <time>2019-05-01T09:07:26Z</time>
      </trkpt>
      <trkpt lat="44.91154" lon="3.40155">
        <ele>1319</ele>
        <time>2019-05-01T09:07:58Z</time>
      </trkpt>
      <trkpt lat="44.91132" lon="3.40121">
        <ele>1321</ele>
        <time>2019-05-01T09:08:21Z</time>
      </trkpt>
      <trkpt lat="44.9113" lon="3.40119">
        <ele>1322</ele>
        <time>2019-05-01T09:08:24Z</time>
      </trkpt>
      <trkpt lat="44.91126" lon="3.40119">
        <ele>1322</ele>
        <time>2019-05-01T09:08:27Z</time>
      </trkpt>
      <trkpt lat="44.91115" lon="3.40122">
        <ele>1323</ele>
        <time>2019-05-01T09:08:35Z</time>
      </trkpt>
      <trkpt lat="44.91107" lon="3.40123">
        <ele>1324</ele>
        <time>2019-05-01T09:08:42Z</time>
      </trkpt>
      <trkpt lat="44.91097" lon="3.40155">
        <ele>1325</ele>
        <time>2019-05-01T09:08:58Z</time>
      </trkpt>
      <trkpt lat="44.91097" lon="3.40166">
        <ele>1326</ele>
        <time>2019-05-01T09:09:03Z</time>
      </trkpt>
      <trkpt lat="44.91093" lon="3.40172">
        <ele>1326</ele>
        <time>2019-05-01T09:09:06Z</time>
      </trkpt>
      <trkpt lat="44.91091" lon="3.40184">
        <ele>1327</ele>
        <time>2019-05-01T09:09:11Z</time>
      </trkpt>
      <trkpt lat="44.91092" lon="3.40193">
        <ele>1327</ele>
        <time>2019-05-01T09:09:15Z</time>
      </trkpt>
      <trkpt lat="44.91091" lon="3.40203">
        <ele>1328</ele>
        <time>2019-05-01T09:09:19Z</time>
      </trkpt>
      <trkpt lat="44.91089" lon="3.40219">
        <ele>1328</ele>
        <time>2019-05-01T09:09:26Z</time>
      </trkpt>
      <trkpt lat="44.91089" lon="3.40227">
        <ele>1329</ele>
        <time>2019-05-01T09:09:29Z</time>
      </trkpt>
      <trkpt lat="44.91088" lon="3.40235">
        <ele>1329</ele>
        <time>2019-05-01T09:09:34Z</time>
      </trkpt>
      <trkpt lat="44.91082" lon="3.40276">
        <ele>1331</ele>
        <time>2019-05-01T09:09:51Z</time>
      </trkpt>
      <trkpt lat="44.9108" lon="3.40281">
        <ele>1331</ele>
        <time>2019-05-01T09:09:54Z</time>
      </trkpt>
      <trkpt lat="44.91066" lon="3.40295">
        <ele>1332</ele>
        <time>2019-05-01T09:10:05Z</time>
      </trkpt>
      <trkpt lat="44.91061" lon="3.40298">
        <ele>1332</ele>
        <time>2019-05-01T09:10:09Z</time>
      </trkpt>
      <trkpt lat="44.91055" lon="3.40301">
        <ele>1332</ele>
        <time>2019-05-01T09:10:13Z</time>
      </trkpt>
      <trkpt lat="44.91048" lon="3.40301">
        <ele>1332</ele>
        <time>2019-05-01T09:10:17Z</time>
      </trkpt>
      <trkpt lat="44.91042" lon="3.40305">
        <ele>1333</ele>
        <time>2019-05-01T09:10:21Z</time>
      </trkpt>
      <trkpt lat="44.91035" lon="3.40309">
        <ele>1333</ele>
        <time>2019-05-01T09:10:26Z</time>
      </trkpt>
      <trkpt lat="44.91027" lon="3.40312">
        <ele>1333</ele>
        <time>2019-05-01T09:10:31Z</time>
      </trkpt>
      <trkpt lat="44.9102" lon="3.40316">
        <ele>1333</ele>
        <time>2019-05-01T09:10:36Z</time>
      </trkpt>
      <trkpt lat="44.91014" lon="3.40316">
        <ele>1333</ele>
        <time>2019-05-01T09:10:41Z</time>
      </trkpt>
      <trkpt lat="44.90981" lon="3.40327">
        <ele>1335</ele>
        <time>2019-05-01T09:11:03Z</time>
      </trkpt>
      <trkpt lat="44.90977" lon="3.40332">
        <ele>1335</ele>
        <time>2019-05-01T09:11:08Z</time>
      </trkpt>
      <trkpt lat="44.90972" lon="3.40342">
        <ele>1335</ele>
        <time>2019-05-01T09:11:14Z</time>
      </trkpt>
      <trkpt lat="44.90968" lon="3.40351">
        <ele>1336</ele>
        <time>2019-05-01T09:11:23Z</time>
      </trkpt>
      <trkpt lat="44.90965" lon="3.40357">
        <ele>1336</ele>
        <time>2019-05-01T09:11:27Z</time>
      </trkpt>
      <trkpt lat="44.90963" lon="3.40364">
        <ele>1336</ele>
        <time>2019-05-01T09:11:29Z</time>
      </trkpt>
      <trkpt lat="44.90955" lon="3.40391">
        <ele>1337</ele>
        <time>2019-05-01T09:11:40Z</time>
      </trkpt>
      <trkpt lat="44.90952" lon="3.40408">
        <ele>1338</ele>
        <time>2019-05-01T09:11:48Z</time>
      </trkpt>
      <trkpt lat="44.9095" lon="3.40419">
        <ele>1339</ele>
        <time>2019-05-01T09:11:52Z</time>
      </trkpt>
      <trkpt lat="44.90948" lon="3.40425">
        <ele>1339</ele>
        <time>2019-05-01T09:11:54Z</time>
      </trkpt>
      <trkpt lat="44.90946" lon="3.40432">
        <ele>1340</ele>
        <time>2019-05-01T09:11:57Z</time>
      </trkpt>
      <trkpt lat="44.90944" lon="3.40446">
        <ele>1340</ele>
        <time>2019-05-01T09:12:03Z</time>
      </trkpt>
      <trkpt lat="44.90943" lon="3.40451">
        <ele>1341</ele>
        <time>2019-05-01T09:12:05Z</time>
      </trkpt>
      <trkpt lat="44.90942" lon="3.40458">
        <ele>1341</ele>
        <time>2019-05-01T09:12:08Z</time>
      </trkpt>
      <trkpt lat="44.9094" lon="3.40464">
        <ele>1342</ele>
        <time>2019-05-01T09:12:11Z</time>
      </trkpt>
      <trkpt lat="44.90937" lon="3.40476">
        <ele>1343</ele>
        <time>2019-05-01T09:12:17Z</time>
      </trkpt>
      <trkpt lat="44.90936" lon="3.40481">
        <ele>1343</ele>
        <time>2019-05-01T09:12:19Z</time>
      </trkpt>
      <trkpt lat="44.90932" lon="3.40499">
        <ele>1344</ele>
        <time>2019-05-01T09:12:27Z</time>
      </trkpt>
      <trkpt lat="44.9093" lon="3.40504">
        <ele>1345</ele>
        <time>2019-05-01T09:12:30Z</time>
      </trkpt>
      <trkpt lat="44.90926" lon="3.40522">
        <ele>1346</ele>
        <time>2019-05-01T09:12:40Z</time>
      </trkpt>
      <trkpt lat="44.90924" lon="3.40527">
        <ele>1346</ele>
        <time>2019-05-01T09:12:43Z</time>
      </trkpt>
      <trkpt lat="44.90923" lon="3.40532">
        <ele>1347</ele>
        <time>2019-05-01T09:12:45Z</time>
      </trkpt>
      <trkpt lat="44.9092" lon="3.40538">
        <ele>1347</ele>
        <time>2019-05-01T09:12:48Z</time>
      </trkpt>
      <trkpt lat="44.90919" lon="3.40543">
        <ele>1347</ele>
        <time>2019-05-01T09:12:51Z</time>
      </trkpt>
      <trkpt lat="44.90918" lon="3.40549">
        <ele>1348</ele>
        <time>2019-05-01T09:12:54Z</time>
      </trkpt>
      <trkpt lat="44.90916" lon="3.40555">
        <ele>1348</ele>
        <time>2019-05-01T09:12:58Z</time>
      </trkpt>
      <trkpt lat="44.90916" lon="3.4056">
        <ele>1349</ele>
        <time>2019-05-01T09:13:00Z</time>
      </trkpt>
      <trkpt lat="44.90915" lon="3.40566">
        <ele>1349</ele>
        <time>2019-05-01T09:13:03Z</time>
      </trkpt>
      <trkpt lat="44.90914" lon="3.40571">
        <ele>1349</ele>
        <time>2019-05-01T09:13:07Z</time>
      </trkpt>
      <trkpt lat="44.90911" lon="3.40589">
        <ele>1351</ele>
        <time>2019-05-01T09:13:20Z</time>
      </trkpt>
      <trkpt lat="44.90907" lon="3.40603">
        <ele>1351</ele>
        <time>2019-05-01T09:13:28Z</time>
      </trkpt>
      <trkpt lat="44.90905" lon="3.40612">
        <ele>1352</ele>
        <time>2019-05-01T09:13:32Z</time>
      </trkpt>
      <trkpt lat="44.90904" lon="3.4062">
        <ele>1352</ele>
        <time>2019-05-01T09:13:35Z</time>
      </trkpt>
      <trkpt lat="44.90903" lon="3.40628">
        <ele>1352</ele>
        <time>2019-05-01T09:13:38Z</time>
      </trkpt>
      <trkpt lat="44.90902" lon="3.40632">
        <ele>1353</ele>
        <time>2019-05-01T09:13:41Z</time>
      </trkpt>
      <trkpt lat="44.90902" lon="3.40639">
        <ele>1353</ele>
        <time>2019-05-01T09:13:44Z</time>
      </trkpt>
      <trkpt lat="44.909" lon="3.40644">
        <ele>1353</ele>
        <time>2019-05-01T09:13:46Z</time>
      </trkpt>
      <trkpt lat="44.90898" lon="3.4065">
        <ele>1353</ele>
        <time>2019-05-01T09:13:49Z</time>
      </trkpt>
      <trkpt lat="44.90893" lon="3.40673">
        <ele>1354</ele>
        <time>2019-05-01T09:14:01Z</time>
      </trkpt>
      <trkpt lat="44.90892" lon="3.40678">
        <ele>1354</ele>
        <time>2019-05-01T09:14:03Z</time>
      </trkpt>
      <trkpt lat="44.90888" lon="3.40693">
        <ele>1355</ele>
        <time>2019-05-01T09:14:12Z</time>
      </trkpt>
      <trkpt lat="44.90885" lon="3.40706">
        <ele>1355</ele>
        <time>2019-05-01T09:14:18Z</time>
      </trkpt>
      <trkpt lat="44.90885" lon="3.40711">
        <ele>1355</ele>
        <time>2019-05-01T09:14:21Z</time>
      </trkpt>
      <trkpt lat="44.90883" lon="3.40716">
        <ele>1355</ele>
        <time>2019-05-01T09:14:23Z</time>
      </trkpt>
      <trkpt lat="44.90876" lon="3.40744">
        <ele>1356</ele>
        <time>2019-05-01T09:14:35Z</time>
      </trkpt>
      <trkpt lat="44.90872" lon="3.40764">
        <ele>1357</ele>
        <time>2019-05-01T09:14:44Z</time>
      </trkpt>
      <trkpt lat="44.90858" lon="3.40817">
        <ele>1358</ele>
        <time>2019-05-01T09:15:05Z</time>
      </trkpt>
      <trkpt lat="44.90856" lon="3.40822">
        <ele>1358</ele>
        <time>2019-05-01T09:15:08Z</time>
      </trkpt>
      <trkpt lat="44.90855" lon="3.40827">
        <ele>1358</ele>
        <time>2019-05-01T09:15:11Z</time>
      </trkpt>
      <trkpt lat="44.90854" lon="3.40834">
        <ele>1358</ele>
        <time>2019-05-01T09:15:14Z</time>
      </trkpt>
      <trkpt lat="44.90847" lon="3.40878">
        <ele>1360</ele>
        <time>2019-05-01T09:15:33Z</time>
      </trkpt>
      <trkpt lat="44.90844" lon="3.40903">
        <ele>1360</ele>
        <time>2019-05-01T09:15:44Z</time>
      </trkpt>
      <trkpt lat="44.90843" lon="3.40908">
        <ele>1361</ele>
        <time>2019-05-01T09:15:46Z</time>
      </trkpt>
      <trkpt lat="44.90841" lon="3.40916">
        <ele>1361</ele>
        <time>2019-05-01T09:15:49Z</time>
      </trkpt>
      <trkpt lat="44.9084" lon="3.40923">
        <ele>1361</ele>
        <time>2019-05-01T09:15:52Z</time>
      </trkpt>
      <trkpt lat="44.90838" lon="3.40929">
        <ele>1361</ele>
        <time>2019-05-01T09:15:55Z</time>
      </trkpt>
      <trkpt lat="44.90839" lon="3.40935">
        <ele>1361</ele>
        <time>2019-05-01T09:15:57Z</time>
      </trkpt>
      <trkpt lat="44.90828" lon="3.40972">
        <ele>1362</ele>
        <time>2019-05-01T09:16:13Z</time>
      </trkpt>
      <trkpt lat="44.90825" lon="3.40992">
        <ele>1363</ele>
        <time>2019-05-01T09:16:21Z</time>
      </trkpt>
      <trkpt lat="44.90824" lon="3.40998">
        <ele>1363</ele>
        <time>2019-05-01T09:16:23Z</time>
      </trkpt>
      <trkpt lat="44.90821" lon="3.41009">
        <ele>1363</ele>
        <time>2019-05-01T09:16:28Z</time>
      </trkpt>
      <trkpt lat="44.9082" lon="3.41021">
        <ele>1363</ele>
        <time>2019-05-01T09:16:34Z</time>
      </trkpt>
      <trkpt lat="44.90817" lon="3.41039">
        <ele>1364</ele>
        <time>2019-05-01T09:16:42Z</time>
      </trkpt>
      <trkpt lat="44.90816" lon="3.41044">
        <ele>1364</ele>
        <time>2019-05-01T09:16:45Z</time>
      </trkpt>
      <trkpt lat="44.90814" lon="3.4105">
        <ele>1364</ele>
        <time>2019-05-01T09:16:53Z</time>
      </trkpt>
      <trkpt lat="44.90815" lon="3.41056">
        <ele>1364</ele>
        <time>2019-05-01T09:16:56Z</time>
      </trkpt>
      <trkpt lat="44.90814" lon="3.41062">
        <ele>1365</ele>
        <time>2019-05-01T09:16:59Z</time>
      </trkpt>
      <trkpt lat="44.90814" lon="3.41067">
        <ele>1365</ele>
        <time>2019-05-01T09:17:02Z</time>
      </trkpt>
      <trkpt lat="44.90813" lon="3.41073">
        <ele>1365</ele>
        <time>2019-05-01T09:17:04Z</time>
      </trkpt>
      <trkpt lat="44.9081" lon="3.41099">
        <ele>1365</ele>
        <time>2019-05-01T09:17:14Z</time>
      </trkpt>
      <trkpt lat="44.9081" lon="3.41104">
        <ele>1366</ele>
        <time>2019-05-01T09:17:17Z</time>
      </trkpt>
      <trkpt lat="44.90808" lon="3.4111">
        <ele>1366</ele>
        <time>2019-05-01T09:17:20Z</time>
      </trkpt>
      <trkpt lat="44.90808" lon="3.41115">
        <ele>1366</ele>
        <time>2019-05-01T09:17:22Z</time>
      </trkpt>
      <trkpt lat="44.90807" lon="3.41122">
        <ele>1366</ele>
        <time>2019-05-01T09:17:25Z</time>
      </trkpt>
      <trkpt lat="44.90806" lon="3.41127">
        <ele>1366</ele>
        <time>2019-05-01T09:17:27Z</time>
      </trkpt>
      <trkpt lat="44.90806" lon="3.41133">
        <ele>1366</ele>
        <time>2019-05-01T09:17:30Z</time>
      </trkpt>
      <trkpt lat="44.90806" lon="3.41139">
        <ele>1366</ele>
        <time>2019-05-01T09:17:33Z</time>
      </trkpt>
      <trkpt lat="44.90798" lon="3.41146">
        <ele>1367</ele>
        <time>2019-05-01T09:17:39Z</time>
      </trkpt>
      <trkpt lat="44.90792" lon="3.41147">
        <ele>1367</ele>
        <time>2019-05-01T09:17:42Z</time>
      </trkpt>
      <trkpt lat="44.90786" lon="3.41147">
        <ele>1367</ele>
        <time>2019-05-01T09:17:45Z</time>
      </trkpt>
      <trkpt lat="44.90766" lon="3.41147">
        <ele>1368</ele>
        <time>2019-05-01T09:17:57Z</time>
      </trkpt>
      <trkpt lat="44.9076" lon="3.41147">
        <ele>1368</ele>
        <time>2019-05-01T09:18:01Z</time>
      </trkpt>
      <trkpt lat="44.90754" lon="3.41149">
        <ele>1368</ele>
        <time>2019-05-01T09:18:05Z</time>
      </trkpt>
      <trkpt lat="44.90747" lon="3.41149">
        <ele>1368</ele>
        <time>2019-05-01T09:18:09Z</time>
      </trkpt>
      <trkpt lat="44.90741" lon="3.41145">
        <ele>1368</ele>
        <time>2019-05-01T09:18:14Z</time>
      </trkpt>
      <trkpt lat="44.90717" lon="3.41146">
        <ele>1369</ele>
        <time>2019-05-01T09:18:31Z</time>
      </trkpt>
      <trkpt lat="44.90688" lon="3.41144">
        <ele>1370</ele>
        <time>2019-05-01T09:18:47Z</time>
      </trkpt>
      <trkpt lat="44.90682" lon="3.41144">
        <ele>1370</ele>
        <time>2019-05-01T09:18:51Z</time>
      </trkpt>
      <trkpt lat="44.90677" lon="3.41143">
        <ele>1370</ele>
        <time>2019-05-01T09:18:55Z</time>
      </trkpt>
      <trkpt lat="44.9067" lon="3.41143">
        <ele>1370</ele>
        <time>2019-05-01T09:18:59Z</time>
      </trkpt>
      <trkpt lat="44.90665" lon="3.41144">
        <ele>1371</ele>
        <time>2019-05-01T09:19:03Z</time>
      </trkpt>
      <trkpt lat="44.90651" lon="3.41142">
        <ele>1371</ele>
        <time>2019-05-01T09:19:13Z</time>
      </trkpt>
      <trkpt lat="44.90635" lon="3.41143">
        <ele>1372</ele>
        <time>2019-05-01T09:19:22Z</time>
      </trkpt>
      <trkpt lat="44.90631" lon="3.41142">
        <ele>1372</ele>
        <time>2019-05-01T09:19:25Z</time>
      </trkpt>
      <trkpt lat="44.90618" lon="3.4114">
        <ele>1373</ele>
        <time>2019-05-01T09:19:34Z</time>
      </trkpt>
      <trkpt lat="44.90615" lon="3.41142">
        <ele>1373</ele>
        <time>2019-05-01T09:19:38Z</time>
      </trkpt>
      <trkpt lat="44.90585" lon="3.41149">
        <ele>1375</ele>
        <time>2019-05-01T09:19:56Z</time>
      </trkpt>
      <trkpt lat="44.90579" lon="3.41148">
        <ele>1375</ele>
        <time>2019-05-01T09:20:00Z</time>
      </trkpt>
      <trkpt lat="44.9053" lon="3.41141">
        <ele>1380</ele>
        <time>2019-05-01T09:20:31Z</time>
      </trkpt>
      <trkpt lat="44.90518" lon="3.41141">
        <ele>1381</ele>
        <time>2019-05-01T09:20:39Z</time>
      </trkpt>
      <trkpt lat="44.90512" lon="3.41142">
        <ele>1382</ele>
        <time>2019-05-01T09:20:44Z</time>
      </trkpt>
      <trkpt lat="44.90506" lon="3.41141">
        <ele>1382</ele>
        <time>2019-05-01T09:20:48Z</time>
      </trkpt>
      <trkpt lat="44.905" lon="3.41142">
        <ele>1384</ele>
        <time>2019-05-01T09:20:53Z</time>
      </trkpt>
      <trkpt lat="44.90493" lon="3.41143">
        <ele>1385</ele>
        <time>2019-05-01T09:20:57Z</time>
      </trkpt>
      <trkpt lat="44.90486" lon="3.41142">
        <ele>1385</ele>
        <time>2019-05-01T09:21:01Z</time>
      </trkpt>
      <trkpt lat="44.90463" lon="3.41154">
        <ele>1388</ele>
        <time>2019-05-01T09:21:18Z</time>
      </trkpt>
      <trkpt lat="44.90457" lon="3.41153">
        <ele>1389</ele>
        <time>2019-05-01T09:21:20Z</time>
      </trkpt>
      <trkpt lat="44.90445" lon="3.41154">
        <ele>1391</ele>
        <time>2019-05-01T09:21:26Z</time>
      </trkpt>
      <trkpt lat="44.90438" lon="3.41154">
        <ele>1392</ele>
        <time>2019-05-01T09:21:31Z</time>
      </trkpt>
      <trkpt lat="44.90428" lon="3.41152">
        <ele>1393</ele>
        <time>2019-05-01T09:21:37Z</time>
      </trkpt>
      <trkpt lat="44.90416" lon="3.41152">
        <ele>1396</ele>
        <time>2019-05-01T09:21:44Z</time>
      </trkpt>
      <trkpt lat="44.90412" lon="3.41152">
        <ele>1396</ele>
        <time>2019-05-01T09:21:47Z</time>
      </trkpt>
      <trkpt lat="44.90406" lon="3.4115">
        <ele>1397</ele>
        <time>2019-05-01T09:21:50Z</time>
      </trkpt>
      <trkpt lat="44.90402" lon="3.4115">
        <ele>1398</ele>
        <time>2019-05-01T09:21:52Z</time>
      </trkpt>
      <trkpt lat="44.9039" lon="3.41149">
        <ele>1399</ele>
        <time>2019-05-01T09:21:59Z</time>
      </trkpt>
      <trkpt lat="44.90386" lon="3.41149">
        <ele>1400</ele>
        <time>2019-05-01T09:22:02Z</time>
      </trkpt>
      <trkpt lat="44.90382" lon="3.41149">
        <ele>1401</ele>
        <time>2019-05-01T09:22:05Z</time>
      </trkpt>
      <trkpt lat="44.90377" lon="3.41149">
        <ele>1402</ele>
        <time>2019-05-01T09:22:08Z</time>
      </trkpt>
      <trkpt lat="44.90367" lon="3.41149">
        <ele>1403</ele>
        <time>2019-05-01T09:22:14Z</time>
      </trkpt>
      <trkpt lat="44.90324" lon="3.4115">
        <ele>1410</ele>
        <time>2019-05-01T09:22:44Z</time>
      </trkpt>
      <trkpt lat="44.90285" lon="3.41155">
        <ele>1415</ele>
        <time>2019-05-01T09:23:06Z</time>
      </trkpt>
      <trkpt lat="44.90282" lon="3.41155">
        <ele>1415</ele>
        <time>2019-05-01T09:23:08Z</time>
      </trkpt>
      <trkpt lat="44.90255" lon="3.41149">
        <ele>1419</ele>
        <time>2019-05-01T09:23:26Z</time>
      </trkpt>
      <trkpt lat="44.90252" lon="3.41148">
        <ele>1420</ele>
        <time>2019-05-01T09:23:28Z</time>
      </trkpt>
      <trkpt lat="44.9025" lon="3.41146">
        <ele>1420</ele>
        <time>2019-05-01T09:23:30Z</time>
      </trkpt>
      <trkpt lat="44.90242" lon="3.41146">
        <ele>1421</ele>
        <time>2019-05-01T09:23:35Z</time>
      </trkpt>
      <trkpt lat="44.90239" lon="3.41145">
        <ele>1422</ele>
        <time>2019-05-01T09:23:37Z</time>
      </trkpt>
      <trkpt lat="44.90235" lon="3.41144">
        <ele>1422</ele>
        <time>2019-05-01T09:23:39Z</time>
      </trkpt>
      <trkpt lat="44.90227" lon="3.41146">
        <ele>1423</ele>
        <time>2019-05-01T09:23:43Z</time>
      </trkpt>
      <trkpt lat="44.90224" lon="3.41146">
        <ele>1423</ele>
        <time>2019-05-01T09:23:45Z</time>
      </trkpt>
      <trkpt lat="44.90218" lon="3.41145">
        <ele>1424</ele>
        <time>2019-05-01T09:23:49Z</time>
      </trkpt>
      <trkpt lat="44.90209" lon="3.41147">
        <ele>1425</ele>
        <time>2019-05-01T09:23:56Z</time>
      </trkpt>
      <trkpt lat="44.90203" lon="3.41147">
        <ele>1426</ele>
        <time>2019-05-01T09:24:00Z</time>
      </trkpt>
      <trkpt lat="44.902" lon="3.41147">
        <ele>1426</ele>
        <time>2019-05-01T09:24:02Z</time>
      </trkpt>
      <trkpt lat="44.90194" lon="3.41148">
        <ele>1427</ele>
        <time>2019-05-01T09:24:06Z</time>
      </trkpt>
      <trkpt lat="44.90181" lon="3.4115">
        <ele>1428</ele>
        <time>2019-05-01T09:24:11Z</time>
      </trkpt>
      <trkpt lat="44.90104" lon="3.41182">
        <ele>1431</ele>
        <time>2019-05-01T09:24:35Z</time>
      </trkpt>
      <trkpt lat="44.90098" lon="3.41185">
        <ele>1432</ele>
        <time>2019-05-01T09:24:37Z</time>
      </trkpt>
      <trkpt lat="44.89999" lon="3.4123">
        <ele>1433</ele>
        <time>2019-05-01T09:25:07Z</time>
      </trkpt>
      <trkpt lat="44.89992" lon="3.41233">
        <ele>1434</ele>
        <time>2019-05-01T09:25:09Z</time>
      </trkpt>
      <trkpt lat="44.89989" lon="3.41235">
        <ele>1434</ele>
        <time>2019-05-01T09:25:10Z</time>
      </trkpt>
      <trkpt lat="44.89968" lon="3.41243">
        <ele>1434</ele>
        <time>2019-05-01T09:25:17Z</time>
      </trkpt>
      <trkpt lat="44.89964" lon="3.41244">
        <ele>1434</ele>
        <time>2019-05-01T09:25:19Z</time>
      </trkpt>
      <trkpt lat="44.89961" lon="3.41248">
        <ele>1434</ele>
        <time>2019-05-01T09:25:21Z</time>
      </trkpt>
      <trkpt lat="44.89957" lon="3.41252">
        <ele>1434</ele>
        <time>2019-05-01T09:25:23Z</time>
      </trkpt>
      <trkpt lat="44.89942" lon="3.4126">
        <ele>1434</ele>
        <time>2019-05-01T09:25:31Z</time>
      </trkpt>
      <trkpt lat="44.89937" lon="3.41261">
        <ele>1434</ele>
        <time>2019-05-01T09:25:34Z</time>
      </trkpt>
      <trkpt lat="44.89929" lon="3.41265">
        <ele>1434</ele>
        <time>2019-05-01T09:25:40Z</time>
      </trkpt>
      <trkpt lat="44.89925" lon="3.41266">
        <ele>1434</ele>
        <time>2019-05-01T09:25:42Z</time>
      </trkpt>
      <trkpt lat="44.89879" lon="3.41294">
        <ele>1435</ele>
        <time>2019-05-01T09:26:13Z</time>
      </trkpt>
      <trkpt lat="44.89859" lon="3.41305">
        <ele>1435</ele>
        <time>2019-05-01T09:26:28Z</time>
      </trkpt>
      <trkpt lat="44.89856" lon="3.41305">
        <ele>1435</ele>
        <time>2019-05-01T09:26:31Z</time>
      </trkpt>
      <trkpt lat="44.8985" lon="3.41307">
        <ele>1436</ele>
        <time>2019-05-01T09:26:35Z</time>
      </trkpt>
      <trkpt lat="44.89814" lon="3.41319">
        <ele>1436</ele>
        <time>2019-05-01T09:26:59Z</time>
      </trkpt>
      <trkpt lat="44.89808" lon="3.4132">
        <ele>1437</ele>
        <time>2019-05-01T09:27:02Z</time>
      </trkpt>
      <trkpt lat="44.89791" lon="3.41336">
        <ele>1437</ele>
        <time>2019-05-01T09:27:14Z</time>
      </trkpt>
      <trkpt lat="44.89785" lon="3.41338">
        <ele>1437</ele>
        <time>2019-05-01T09:27:18Z</time>
      </trkpt>
      <trkpt lat="44.8978" lon="3.41338">
        <ele>1437</ele>
        <time>2019-05-01T09:27:21Z</time>
      </trkpt>
      <trkpt lat="44.89772" lon="3.41343">
        <ele>1437</ele>
        <time>2019-05-01T09:27:27Z</time>
      </trkpt>
      <trkpt lat="44.89766" lon="3.41345">
        <ele>1437</ele>
        <time>2019-05-01T09:27:31Z</time>
      </trkpt>
      <trkpt lat="44.89762" lon="3.41346">
        <ele>1437</ele>
        <time>2019-05-01T09:27:34Z</time>
      </trkpt>
      <trkpt lat="44.89758" lon="3.41346">
        <ele>1437</ele>
        <time>2019-05-01T09:27:37Z</time>
      </trkpt>
      <trkpt lat="44.89754" lon="3.41348">
        <ele>1437</ele>
        <time>2019-05-01T09:27:39Z</time>
      </trkpt>
      <trkpt lat="44.89749" lon="3.41349">
        <ele>1437</ele>
        <time>2019-05-01T09:27:42Z</time>
      </trkpt>
      <trkpt lat="44.89745" lon="3.4135">
        <ele>1437</ele>
        <time>2019-05-01T09:27:45Z</time>
      </trkpt>
      <trkpt lat="44.89731" lon="3.41355">
        <ele>1438</ele>
        <time>2019-05-01T09:27:54Z</time>
      </trkpt>
      <trkpt lat="44.8971" lon="3.41366">
        <ele>1438</ele>
        <time>2019-05-01T09:28:06Z</time>
      </trkpt>
      <trkpt lat="44.89706" lon="3.41367">
        <ele>1438</ele>
        <time>2019-05-01T09:28:09Z</time>
      </trkpt>
      <trkpt lat="44.897" lon="3.4137">
        <ele>1438</ele>
        <time>2019-05-01T09:28:13Z</time>
      </trkpt>
      <trkpt lat="44.89692" lon="3.41376">
        <ele>1438</ele>
        <time>2019-05-01T09:28:18Z</time>
      </trkpt>
      <trkpt lat="44.89686" lon="3.4138">
        <ele>1438</ele>
        <time>2019-05-01T09:28:22Z</time>
      </trkpt>
      <trkpt lat="44.89676" lon="3.41388">
        <ele>1438</ele>
        <time>2019-05-01T09:28:28Z</time>
      </trkpt>
      <trkpt lat="44.8967" lon="3.41393">
        <ele>1438</ele>
        <time>2019-05-01T09:28:32Z</time>
      </trkpt>
      <trkpt lat="44.89667" lon="3.41394">
        <ele>1438</ele>
        <time>2019-05-01T09:28:34Z</time>
      </trkpt>
      <trkpt lat="44.89608" lon="3.41431">
        <ele>1439</ele>
        <time>2019-05-01T09:29:04Z</time>
      </trkpt>
      <trkpt lat="44.89605" lon="3.41433">
        <ele>1439</ele>
        <time>2019-05-01T09:29:05Z</time>
      </trkpt>
      <trkpt lat="44.89582" lon="3.41452">
        <ele>1439</ele>
        <time>2019-05-01T09:29:13Z</time>
      </trkpt>
      <trkpt lat="44.89559" lon="3.41479">
        <ele>1439</ele>
        <time>2019-05-01T09:29:22Z</time>
      </trkpt>
      <trkpt lat="44.89554" lon="3.41485">
        <ele>1439</ele>
        <time>2019-05-01T09:29:24Z</time>
      </trkpt>
      <trkpt lat="44.89551" lon="3.41488">
        <ele>1439</ele>
        <time>2019-05-01T09:29:25Z</time>
      </trkpt>
      <trkpt lat="44.89536" lon="3.41502">
        <ele>1439</ele>
        <time>2019-05-01T09:29:30Z</time>
      </trkpt>
      <trkpt lat="44.8953" lon="3.41507">
        <ele>1439</ele>
        <time>2019-05-01T09:29:32Z</time>
      </trkpt>
      <trkpt lat="44.89516" lon="3.41523">
        <ele>1439</ele>
        <time>2019-05-01T09:29:37Z</time>
      </trkpt>
      <trkpt lat="44.89501" lon="3.41529">
        <ele>1439</ele>
        <time>2019-05-01T09:29:42Z</time>
      </trkpt>
      <trkpt lat="44.89486" lon="3.41541">
        <ele>1439</ele>
        <time>2019-05-01T09:29:47Z</time>
      </trkpt>
      <trkpt lat="44.89478" lon="3.41552">
        <ele>1439</ele>
        <time>2019-05-01T09:29:49Z</time>
      </trkpt>
      <trkpt lat="44.89468" lon="3.41563">
        <ele>1439</ele>
        <time>2019-05-01T09:29:53Z</time>
      </trkpt>
      <trkpt lat="44.89459" lon="3.41569">
        <ele>1439</ele>
        <time>2019-05-01T09:29:57Z</time>
      </trkpt>
      <trkpt lat="44.89451" lon="3.41574">
        <ele>1439</ele>
        <time>2019-05-01T09:30:00Z</time>
      </trkpt>
      <trkpt lat="44.89408" lon="3.41615">
        <ele>1439</ele>
        <time>2019-05-01T09:30:16Z</time>
      </trkpt>
      <trkpt lat="44.89403" lon="3.41622">
        <ele>1439</ele>
        <time>2019-05-01T09:30:22Z</time>
      </trkpt>
      <trkpt lat="44.89387" lon="3.41639">
        <ele>1439</ele>
        <time>2019-05-01T09:30:34Z</time>
      </trkpt>
      <trkpt lat="44.89381" lon="3.41641">
        <ele>1439</ele>
        <time>2019-05-01T09:30:39Z</time>
      </trkpt>
      <trkpt lat="44.89348" lon="3.41681">
        <ele>1440</ele>
        <time>2019-05-01T09:31:09Z</time>
      </trkpt>
      <trkpt lat="44.89343" lon="3.41688">
        <ele>1440</ele>
        <time>2019-05-01T09:31:16Z</time>
      </trkpt>
      <trkpt lat="44.89341" lon="3.41695">
        <ele>1440</ele>
        <time>2019-05-01T09:31:19Z</time>
      </trkpt>
      <trkpt lat="44.89334" lon="3.417">
        <ele>1440</ele>
        <time>2019-05-01T09:31:29Z</time>
      </trkpt>
      <trkpt lat="44.89331" lon="3.41709">
        <ele>1440</ele>
        <time>2019-05-01T09:31:33Z</time>
      </trkpt>
      <trkpt lat="44.89324" lon="3.41716">
        <ele>1440</ele>
        <time>2019-05-01T09:31:38Z</time>
      </trkpt>
      <trkpt lat="44.8932" lon="3.41729">
        <ele>1440</ele>
        <time>2019-05-01T09:31:41Z</time>
      </trkpt>
      <trkpt lat="44.89318" lon="3.41739">
        <ele>1440</ele>
        <time>2019-05-01T09:31:43Z</time>
      </trkpt>
      <trkpt lat="44.89305" lon="3.41772">
        <ele>1440</ele>
        <time>2019-05-01T09:32:00Z</time>
      </trkpt>
      <trkpt lat="44.89305" lon="3.41789">
        <ele>1440</ele>
        <time>2019-05-01T09:32:10Z</time>
      </trkpt>
      <trkpt lat="44.89305" lon="3.41796">
        <ele>1440</ele>
        <time>2019-05-01T09:32:13Z</time>
      </trkpt>
      <trkpt lat="44.89304" lon="3.41801">
        <ele>1440</ele>
        <time>2019-05-01T09:32:16Z</time>
      </trkpt>
      <trkpt lat="44.89305" lon="3.41808">
        <ele>1440</ele>
        <time>2019-05-01T09:32:21Z</time>
      </trkpt>
      <trkpt lat="44.89306" lon="3.41815">
        <ele>1441</ele>
        <time>2019-05-01T09:32:24Z</time>
      </trkpt>
      <trkpt lat="44.89306" lon="3.41822">
        <ele>1441</ele>
        <time>2019-05-01T09:32:27Z</time>
      </trkpt>
      <trkpt lat="44.89305" lon="3.41828">
        <ele>1441</ele>
        <time>2019-05-01T09:32:30Z</time>
      </trkpt>
      <trkpt lat="44.89306" lon="3.41834">
        <ele>1441</ele>
        <time>2019-05-01T09:32:33Z</time>
      </trkpt>
      <trkpt lat="44.89307" lon="3.4184">
        <ele>1441</ele>
        <time>2019-05-01T09:32:36Z</time>
      </trkpt>
      <trkpt lat="44.89307" lon="3.41846">
        <ele>1441</ele>
        <time>2019-05-01T09:32:40Z</time>
      </trkpt>
      <trkpt lat="44.89306" lon="3.41852">
        <ele>1441</ele>
        <time>2019-05-01T09:32:43Z</time>
      </trkpt>
      <trkpt lat="44.89303" lon="3.41857">
        <ele>1441</ele>
        <time>2019-05-01T09:32:47Z</time>
      </trkpt>
      <trkpt lat="44.89299" lon="3.41861">
        <ele>1441</ele>
        <time>2019-05-01T09:32:51Z</time>
      </trkpt>
      <trkpt lat="44.89294" lon="3.41862">
        <ele>1441</ele>
        <time>2019-05-01T09:32:54Z</time>
      </trkpt>
      <trkpt lat="44.89291" lon="3.41864">
        <ele>1441</ele>
        <time>2019-05-01T09:32:57Z</time>
      </trkpt>
      <trkpt lat="44.89279" lon="3.41869">
        <ele>1442</ele>
        <time>2019-05-01T09:33:06Z</time>
      </trkpt>
      <trkpt lat="44.89272" lon="3.4187">
        <ele>1442</ele>
        <time>2019-05-01T09:33:11Z</time>
      </trkpt>
      <trkpt lat="44.89267" lon="3.41872">
        <ele>1442</ele>
        <time>2019-05-01T09:33:16Z</time>
      </trkpt>
      <trkpt lat="44.8925" lon="3.41878">
        <ele>1442</ele>
        <time>2019-05-01T09:33:26Z</time>
      </trkpt>
      <trkpt lat="44.89245" lon="3.41882">
        <ele>1442</ele>
        <time>2019-05-01T09:33:30Z</time>
      </trkpt>
      <trkpt lat="44.89228" lon="3.41882">
        <ele>1442</ele>
        <time>2019-05-01T09:33:43Z</time>
      </trkpt>
      <trkpt lat="44.89214" lon="3.41887">
        <ele>1442</ele>
        <time>2019-05-01T09:33:54Z</time>
      </trkpt>
      <trkpt lat="44.89191" lon="3.41897">
        <ele>1442</ele>
        <time>2019-05-01T09:34:09Z</time>
      </trkpt>
      <trkpt lat="44.89186" lon="3.41903">
        <ele>1443</ele>
        <time>2019-05-01T09:34:13Z</time>
      </trkpt>
      <trkpt lat="44.89181" lon="3.41908">
        <ele>1443</ele>
        <time>2019-05-01T09:34:16Z</time>
      </trkpt>
      <trkpt lat="44.89176" lon="3.41913">
        <ele>1443</ele>
        <time>2019-05-01T09:34:20Z</time>
      </trkpt>
      <trkpt lat="44.89171" lon="3.41917">
        <ele>1443</ele>
        <time>2019-05-01T09:34:23Z</time>
      </trkpt>
      <trkpt lat="44.89159" lon="3.41923">
        <ele>1443</ele>
        <time>2019-05-01T09:34:30Z</time>
      </trkpt>
      <trkpt lat="44.89154" lon="3.41925">
        <ele>1443</ele>
        <time>2019-05-01T09:34:34Z</time>
      </trkpt>
      <trkpt lat="44.89139" lon="3.41935">
        <ele>1443</ele>
        <time>2019-05-01T09:34:44Z</time>
      </trkpt>
      <trkpt lat="44.89126" lon="3.41943">
        <ele>1442</ele>
        <time>2019-05-01T09:34:54Z</time>
      </trkpt>
      <trkpt lat="44.89121" lon="3.41945">
        <ele>1442</ele>
        <time>2019-05-01T09:34:58Z</time>
      </trkpt>
      <trkpt lat="44.89116" lon="3.41948">
        <ele>1442</ele>
        <time>2019-05-01T09:35:03Z</time>
      </trkpt>
      <trkpt lat="44.89104" lon="3.41954">
        <ele>1442</ele>
        <time>2019-05-01T09:35:11Z</time>
      </trkpt>
      <trkpt lat="44.89099" lon="3.41957">
        <ele>1442</ele>
        <time>2019-05-01T09:35:14Z</time>
      </trkpt>
      <trkpt lat="44.89093" lon="3.4196">
        <ele>1442</ele>
        <time>2019-05-01T09:35:18Z</time>
      </trkpt>
      <trkpt lat="44.89071" lon="3.41972">
        <ele>1442</ele>
        <time>2019-05-01T09:35:35Z</time>
      </trkpt>
      <trkpt lat="44.89061" lon="3.41975">
        <ele>1442</ele>
        <time>2019-05-01T09:35:42Z</time>
      </trkpt>
      <trkpt lat="44.89052" lon="3.41982">
        <ele>1442</ele>
        <time>2019-05-01T09:35:47Z</time>
      </trkpt>
      <trkpt lat="44.89046" lon="3.41986">
        <ele>1442</ele>
        <time>2019-05-01T09:35:52Z</time>
      </trkpt>
      <trkpt lat="44.89035" lon="3.41989">
        <ele>1442</ele>
        <time>2019-05-01T09:36:00Z</time>
      </trkpt>
      <trkpt lat="44.89028" lon="3.41994">
        <ele>1442</ele>
        <time>2019-05-01T09:36:04Z</time>
      </trkpt>
      <trkpt lat="44.89023" lon="3.41997">
        <ele>1442</ele>
        <time>2019-05-01T09:36:07Z</time>
      </trkpt>
      <trkpt lat="44.89019" lon="3.41998">
        <ele>1442</ele>
        <time>2019-05-01T09:36:09Z</time>
      </trkpt>
      <trkpt lat="44.89015" lon="3.41999">
        <ele>1442</ele>
        <time>2019-05-01T09:36:11Z</time>
      </trkpt>
      <trkpt lat="44.89001" lon="3.42013">
        <ele>1442</ele>
        <time>2019-05-01T09:36:21Z</time>
      </trkpt>
      <trkpt lat="44.88967" lon="3.42034">
        <ele>1441</ele>
        <time>2019-05-01T09:36:44Z</time>
      </trkpt>
      <trkpt lat="44.8896" lon="3.42037">
        <ele>1441</ele>
        <time>2019-05-01T09:36:48Z</time>
      </trkpt>
      <trkpt lat="44.88956" lon="3.42039">
        <ele>1441</ele>
        <time>2019-05-01T09:36:51Z</time>
      </trkpt>
      <trkpt lat="44.88947" lon="3.42044">
        <ele>1441</ele>
        <time>2019-05-01T09:36:58Z</time>
      </trkpt>
      <trkpt lat="44.88936" lon="3.42046">
        <ele>1440</ele>
        <time>2019-05-01T09:37:06Z</time>
      </trkpt>
      <trkpt lat="44.88932" lon="3.42049">
        <ele>1440</ele>
        <time>2019-05-01T09:37:09Z</time>
      </trkpt>
      <trkpt lat="44.88925" lon="3.42051">
        <ele>1440</ele>
        <time>2019-05-01T09:37:13Z</time>
      </trkpt>
      <trkpt lat="44.88919" lon="3.42053">
        <ele>1440</ele>
        <time>2019-05-01T09:37:17Z</time>
      </trkpt>
      <trkpt lat="44.88915" lon="3.42053">
        <ele>1440</ele>
        <time>2019-05-01T09:37:20Z</time>
      </trkpt>
      <trkpt lat="44.889" lon="3.42063">
        <ele>1440</ele>
        <time>2019-05-01T09:37:32Z</time>
      </trkpt>
      <trkpt lat="44.88882" lon="3.4207">
        <ele>1439</ele>
        <time>2019-05-01T09:37:43Z</time>
      </trkpt>
      <trkpt lat="44.88877" lon="3.42074">
        <ele>1439</ele>
        <time>2019-05-01T09:37:47Z</time>
      </trkpt>
      <trkpt lat="44.88873" lon="3.42077">
        <ele>1439</ele>
        <time>2019-05-01T09:37:50Z</time>
      </trkpt>
      <trkpt lat="44.88853" lon="3.4209">
        <ele>1439</ele>
        <time>2019-05-01T09:38:06Z</time>
      </trkpt>
      <trkpt lat="44.88824" lon="3.42127">
        <ele>1438</ele>
        <time>2019-05-01T09:38:30Z</time>
      </trkpt>
      <trkpt lat="44.88795" lon="3.42171">
        <ele>1436</ele>
        <time>2019-05-01T09:38:59Z</time>
      </trkpt>
      <trkpt lat="44.88782" lon="3.42187">
        <ele>1435</ele>
        <time>2019-05-01T09:39:10Z</time>
      </trkpt>
      <trkpt lat="44.88774" lon="3.42193">
        <ele>1434</ele>
        <time>2019-05-01T09:39:16Z</time>
      </trkpt>
      <trkpt lat="44.88765" lon="3.42199">
        <ele>1433</ele>
        <time>2019-05-01T09:39:22Z</time>
      </trkpt>
      <trkpt lat="44.88733" lon="3.42215">
        <ele>1431</ele>
        <time>2019-05-01T09:39:40Z</time>
      </trkpt>
      <trkpt lat="44.88709" lon="3.4223">
        <ele>1429</ele>
        <time>2019-05-01T09:39:56Z</time>
      </trkpt>
      <trkpt lat="44.88704" lon="3.42232">
        <ele>1429</ele>
        <time>2019-05-01T09:40:00Z</time>
      </trkpt>
      <trkpt lat="44.88699" lon="3.42235">
        <ele>1428</ele>
        <time>2019-05-01T09:40:03Z</time>
      </trkpt>
      <trkpt lat="44.88693" lon="3.42236">
        <ele>1428</ele>
        <time>2019-05-01T09:40:07Z</time>
      </trkpt>
      <trkpt lat="44.88687" lon="3.42242">
        <ele>1428</ele>
        <time>2019-05-01T09:40:11Z</time>
      </trkpt>
      <trkpt lat="44.88675" lon="3.42252">
        <ele>1427</ele>
        <time>2019-05-01T09:40:20Z</time>
      </trkpt>
      <trkpt lat="44.88658" lon="3.4226">
        <ele>1426</ele>
        <time>2019-05-01T09:40:33Z</time>
      </trkpt>
      <trkpt lat="44.88652" lon="3.42263">
        <ele>1426</ele>
        <time>2019-05-01T09:40:37Z</time>
      </trkpt>
      <trkpt lat="44.88637" lon="3.42277">
        <ele>1425</ele>
        <time>2019-05-01T09:40:49Z</time>
      </trkpt>
      <trkpt lat="44.88616" lon="3.42293">
        <ele>1425</ele>
        <time>2019-05-01T09:41:05Z</time>
      </trkpt>
      <trkpt lat="44.8859" lon="3.42327">
        <ele>1424</ele>
        <time>2019-05-01T09:41:31Z</time>
      </trkpt>
      <trkpt lat="44.88586" lon="3.42336">
        <ele>1424</ele>
        <time>2019-05-01T09:41:35Z</time>
      </trkpt>
      <trkpt lat="44.88582" lon="3.42345">
        <ele>1424</ele>
        <time>2019-05-01T09:41:38Z</time>
      </trkpt>
      <trkpt lat="44.88578" lon="3.42351">
        <ele>1424</ele>
        <time>2019-05-01T09:41:42Z</time>
      </trkpt>
      <trkpt lat="44.88574" lon="3.42356">
        <ele>1424</ele>
        <time>2019-05-01T09:41:46Z</time>
      </trkpt>
      <trkpt lat="44.88571" lon="3.42363">
        <ele>1424</ele>
        <time>2019-05-01T09:41:50Z</time>
      </trkpt>
      <trkpt lat="44.88567" lon="3.42369">
        <ele>1424</ele>
        <time>2019-05-01T09:41:54Z</time>
      </trkpt>
      <trkpt lat="44.88566" lon="3.42378">
        <ele>1423</ele>
        <time>2019-05-01T09:41:59Z</time>
      </trkpt>
      <trkpt lat="44.88557" lon="3.42393">
        <ele>1423</ele>
        <time>2019-05-01T09:42:05Z</time>
      </trkpt>
      <trkpt lat="44.88553" lon="3.424">
        <ele>1423</ele>
        <time>2019-05-01T09:42:09Z</time>
      </trkpt>
      <trkpt lat="44.88546" lon="3.42413">
        <ele>1423</ele>
        <time>2019-05-01T09:42:16Z</time>
      </trkpt>
      <trkpt lat="44.8854" lon="3.42428">
        <ele>1423</ele>
        <time>2019-05-01T09:42:23Z</time>
      </trkpt>
      <trkpt lat="44.88536" lon="3.42443">
        <ele>1423</ele>
        <time>2019-05-01T09:42:31Z</time>
      </trkpt>
      <trkpt lat="44.88531" lon="3.42449">
        <ele>1423</ele>
        <time>2019-05-01T09:42:35Z</time>
      </trkpt>
      <trkpt lat="44.88521" lon="3.42471">
        <ele>1423</ele>
        <time>2019-05-01T09:42:48Z</time>
      </trkpt>
      <trkpt lat="44.88508" lon="3.42491">
        <ele>1423</ele>
        <time>2019-05-01T09:42:59Z</time>
      </trkpt>
      <trkpt lat="44.88502" lon="3.42498">
        <ele>1424</ele>
        <time>2019-05-01T09:43:03Z</time>
      </trkpt>
      <trkpt lat="44.88498" lon="3.42505">
        <ele>1424</ele>
        <time>2019-05-01T09:43:07Z</time>
      </trkpt>
      <trkpt lat="44.88497" lon="3.42514">
        <ele>1424</ele>
        <time>2019-05-01T09:43:10Z</time>
      </trkpt>
      <trkpt lat="44.88494" lon="3.42521">
        <ele>1424</ele>
        <time>2019-05-01T09:43:13Z</time>
      </trkpt>
      <trkpt lat="44.88487" lon="3.42535">
        <ele>1424</ele>
        <time>2019-05-01T09:43:22Z</time>
      </trkpt>
      <trkpt lat="44.88483" lon="3.42541">
        <ele>1424</ele>
        <time>2019-05-01T09:43:28Z</time>
      </trkpt>
      <trkpt lat="44.88476" lon="3.42557">
        <ele>1424</ele>
        <time>2019-05-01T09:43:35Z</time>
      </trkpt>
      <trkpt lat="44.88472" lon="3.42564">
        <ele>1424</ele>
        <time>2019-05-01T09:43:38Z</time>
      </trkpt>
      <trkpt lat="44.88461" lon="3.42584">
        <ele>1424</ele>
        <time>2019-05-01T09:43:49Z</time>
      </trkpt>
      <trkpt lat="44.88457" lon="3.4259">
        <ele>1424</ele>
        <time>2019-05-01T09:43:53Z</time>
      </trkpt>
      <trkpt lat="44.88453" lon="3.42597">
        <ele>1424</ele>
        <time>2019-05-01T09:43:57Z</time>
      </trkpt>
      <trkpt lat="44.88448" lon="3.42612">
        <ele>1424</ele>
        <time>2019-05-01T09:44:06Z</time>
      </trkpt>
      <trkpt lat="44.88441" lon="3.42634">
        <ele>1424</ele>
        <time>2019-05-01T09:44:20Z</time>
      </trkpt>
      <trkpt lat="44.88429" lon="3.42657">
        <ele>1425</ele>
        <time>2019-05-01T09:44:35Z</time>
      </trkpt>
      <trkpt lat="44.88426" lon="3.42662">
        <ele>1425</ele>
        <time>2019-05-01T09:44:38Z</time>
      </trkpt>
      <trkpt lat="44.88391" lon="3.42701">
        <ele>1426</ele>
        <time>2019-05-01T09:45:08Z</time>
      </trkpt>
      <trkpt lat="44.88361" lon="3.42737">
        <ele>1428</ele>
        <time>2019-05-01T09:45:33Z</time>
      </trkpt>
      <trkpt lat="44.88351" lon="3.42743">
        <ele>1429</ele>
        <time>2019-05-01T09:45:40Z</time>
      </trkpt>
      <trkpt lat="44.88346" lon="3.42749">
        <ele>1429</ele>
        <time>2019-05-01T09:45:45Z</time>
      </trkpt>
      <trkpt lat="44.88305" lon="3.42779">
        <ele>1432</ele>
        <time>2019-05-01T09:46:16Z</time>
      </trkpt>
      <trkpt lat="44.88281" lon="3.42796">
        <ele>1434</ele>
        <time>2019-05-01T09:46:36Z</time>
      </trkpt>
      <trkpt lat="44.88272" lon="3.42802">
        <ele>1434</ele>
        <time>2019-05-01T09:46:43Z</time>
      </trkpt>
      <trkpt lat="44.8826" lon="3.4282">
        <ele>1434</ele>
        <time>2019-05-01T09:46:53Z</time>
      </trkpt>
      <trkpt lat="44.88258" lon="3.42822">
        <ele>1435</ele>
        <time>2019-05-01T09:46:55Z</time>
      </trkpt>
      <trkpt lat="44.88241" lon="3.42837">
        <ele>1435</ele>
        <time>2019-05-01T09:47:07Z</time>
      </trkpt>
      <trkpt lat="44.88238" lon="3.42839">
        <ele>1435</ele>
        <time>2019-05-01T09:47:09Z</time>
      </trkpt>
      <trkpt lat="44.88225" lon="3.42847">
        <ele>1435</ele>
        <time>2019-05-01T09:47:18Z</time>
      </trkpt>
      <trkpt lat="44.88211" lon="3.4286">
        <ele>1436</ele>
        <time>2019-05-01T09:47:28Z</time>
      </trkpt>
      <trkpt lat="44.88181" lon="3.42879">
        <ele>1436</ele>
        <time>2019-05-01T09:47:49Z</time>
      </trkpt>
      <trkpt lat="44.88177" lon="3.4288">
        <ele>1436</ele>
        <time>2019-05-01T09:47:52Z</time>
      </trkpt>
      <trkpt lat="44.88171" lon="3.42881">
        <ele>1437</ele>
        <time>2019-05-01T09:47:56Z</time>
      </trkpt>
      <trkpt lat="44.88142" lon="3.42881">
        <ele>1437</ele>
        <time>2019-05-01T09:48:13Z</time>
      </trkpt>
      <trkpt lat="44.88139" lon="3.42881">
        <ele>1437</ele>
        <time>2019-05-01T09:48:15Z</time>
      </trkpt>
      <trkpt lat="44.88132" lon="3.42878">
        <ele>1437</ele>
        <time>2019-05-01T09:48:20Z</time>
      </trkpt>
      <trkpt lat="44.88129" lon="3.42877">
        <ele>1437</ele>
        <time>2019-05-01T09:48:22Z</time>
      </trkpt>
      <trkpt lat="44.88094" lon="3.42855">
        <ele>1438</ele>
        <time>2019-05-01T09:48:48Z</time>
      </trkpt>
      <trkpt lat="44.88084" lon="3.42846">
        <ele>1438</ele>
        <time>2019-05-01T09:48:56Z</time>
      </trkpt>
      <trkpt lat="44.88078" lon="3.42843">
        <ele>1438</ele>
        <time>2019-05-01T09:49:00Z</time>
      </trkpt>
      <trkpt lat="44.8807" lon="3.42837">
        <ele>1438</ele>
        <time>2019-05-01T09:49:06Z</time>
      </trkpt>
      <trkpt lat="44.88054" lon="3.42815">
        <ele>1439</ele>
        <time>2019-05-01T09:49:18Z</time>
      </trkpt>
      <trkpt lat="44.88032" lon="3.42766">
        <ele>1439</ele>
        <time>2019-05-01T09:49:43Z</time>
      </trkpt>
      <trkpt lat="44.88021" lon="3.42753">
        <ele>1440</ele>
        <time>2019-05-01T09:49:52Z</time>
      </trkpt>
      <trkpt lat="44.88001" lon="3.42704">
        <ele>1440</ele>
        <time>2019-05-01T09:50:19Z</time>
      </trkpt>
      <trkpt lat="44.87999" lon="3.42694">
        <ele>1440</ele>
        <time>2019-05-01T09:50:23Z</time>
      </trkpt>
      <trkpt lat="44.87994" lon="3.42678">
        <ele>1441</ele>
        <time>2019-05-01T09:50:31Z</time>
      </trkpt>
      <trkpt lat="44.87994" lon="3.42673">
        <ele>1441</ele>
        <time>2019-05-01T09:50:33Z</time>
      </trkpt>
      <trkpt lat="44.87993" lon="3.42667">
        <ele>1441</ele>
        <time>2019-05-01T09:50:36Z</time>
      </trkpt>
      <trkpt lat="44.87991" lon="3.42661">
        <ele>1441</ele>
        <time>2019-05-01T09:50:40Z</time>
      </trkpt>
      <trkpt lat="44.87986" lon="3.42592">
        <ele>1441</ele>
        <time>2019-05-01T09:51:10Z</time>
      </trkpt>
      <trkpt lat="44.87982" lon="3.42558">
        <ele>1441</ele>
        <time>2019-05-01T09:51:26Z</time>
      </trkpt>
      <trkpt lat="44.87968" lon="3.4253">
        <ele>1441</ele>
        <time>2019-05-01T09:51:42Z</time>
      </trkpt>
      <trkpt lat="44.87956" lon="3.42519">
        <ele>1441</ele>
        <time>2019-05-01T09:51:50Z</time>
      </trkpt>
      <trkpt lat="44.87927" lon="3.42499">
        <ele>1441</ele>
        <time>2019-05-01T09:52:09Z</time>
      </trkpt>
      <trkpt lat="44.8788" lon="3.42488">
        <ele>1441</ele>
        <time>2019-05-01T09:52:38Z</time>
      </trkpt>
      <trkpt lat="44.87874" lon="3.42488">
        <ele>1441</ele>
        <time>2019-05-01T09:52:42Z</time>
      </trkpt>
      <trkpt lat="44.87849" lon="3.42475">
        <ele>1441</ele>
        <time>2019-05-01T09:52:59Z</time>
      </trkpt>
      <trkpt lat="44.87841" lon="3.42469">
        <ele>1440</ele>
        <time>2019-05-01T09:53:05Z</time>
      </trkpt>
      <trkpt lat="44.87827" lon="3.42464">
        <ele>1440</ele>
        <time>2019-05-01T09:53:15Z</time>
      </trkpt>
      <trkpt lat="44.87824" lon="3.42462">
        <ele>1440</ele>
        <time>2019-05-01T09:53:17Z</time>
      </trkpt>
      <trkpt lat="44.87808" lon="3.42446">
        <ele>1440</ele>
        <time>2019-05-01T09:53:31Z</time>
      </trkpt>
      <trkpt lat="44.87806" lon="3.42441">
        <ele>1440</ele>
        <time>2019-05-01T09:53:34Z</time>
      </trkpt>
      <trkpt lat="44.87804" lon="3.42437">
        <ele>1440</ele>
        <time>2019-05-01T09:53:37Z</time>
      </trkpt>
      <trkpt lat="44.87804" lon="3.42432">
        <ele>1440</ele>
        <time>2019-05-01T09:53:39Z</time>
      </trkpt>
      <trkpt lat="44.87783" lon="3.42373">
        <ele>1440</ele>
        <time>2019-05-01T09:54:11Z</time>
      </trkpt>
      <trkpt lat="44.87766" lon="3.42314">
        <ele>1440</ele>
        <time>2019-05-01T09:54:41Z</time>
      </trkpt>
      <trkpt lat="44.87762" lon="3.42302">
        <ele>1439</ele>
        <time>2019-05-01T09:54:47Z</time>
      </trkpt>
      <trkpt lat="44.8776" lon="3.4228">
        <ele>1439</ele>
        <time>2019-05-01T09:54:57Z</time>
      </trkpt>
      <trkpt lat="44.87759" lon="3.42275">
        <ele>1439</ele>
        <time>2019-05-01T09:54:59Z</time>
      </trkpt>
      <trkpt lat="44.87759" lon="3.42271">
        <ele>1439</ele>
        <time>2019-05-01T09:55:01Z</time>
      </trkpt>
      <trkpt lat="44.87762" lon="3.42252">
        <ele>1439</ele>
        <time>2019-05-01T09:55:09Z</time>
      </trkpt>
      <trkpt lat="44.87762" lon="3.42246">
        <ele>1439</ele>
        <time>2019-05-01T09:55:11Z</time>
      </trkpt>
      <trkpt lat="44.87771" lon="3.42195">
        <ele>1439</ele>
        <time>2019-05-01T09:55:33Z</time>
      </trkpt>
      <trkpt lat="44.8777" lon="3.42188">
        <ele>1439</ele>
        <time>2019-05-01T09:55:35Z</time>
      </trkpt>
      <trkpt lat="44.8777" lon="3.42183">
        <ele>1439</ele>
        <time>2019-05-01T09:55:37Z</time>
      </trkpt>
      <trkpt lat="44.87782" lon="3.4216">
        <ele>1439</ele>
        <time>2019-05-01T09:55:48Z</time>
      </trkpt>
      <trkpt lat="44.87784" lon="3.42155">
        <ele>1438</ele>
        <time>2019-05-01T09:55:51Z</time>
      </trkpt>
      <trkpt lat="44.87784" lon="3.4215">
        <ele>1438</ele>
        <time>2019-05-01T09:55:55Z</time>
      </trkpt>
      <trkpt lat="44.87785" lon="3.42144">
        <ele>1438</ele>
        <time>2019-05-01T09:55:59Z</time>
      </trkpt>
      <trkpt lat="44.87788" lon="3.42138">
        <ele>1438</ele>
        <time>2019-05-01T09:56:04Z</time>
      </trkpt>
      <trkpt lat="44.87793" lon="3.42133">
        <ele>1438</ele>
        <time>2019-05-01T09:56:07Z</time>
      </trkpt>
      <trkpt lat="44.87796" lon="3.4213">
        <ele>1438</ele>
        <time>2019-05-01T09:56:09Z</time>
      </trkpt>
      <trkpt lat="44.87804" lon="3.42116">
        <ele>1438</ele>
        <time>2019-05-01T09:56:17Z</time>
      </trkpt>
      <trkpt lat="44.87805" lon="3.42103">
        <ele>1438</ele>
        <time>2019-05-01T09:56:23Z</time>
      </trkpt>
      <trkpt lat="44.87805" lon="3.42098">
        <ele>1438</ele>
        <time>2019-05-01T09:56:26Z</time>
      </trkpt>
      <trkpt lat="44.87806" lon="3.42085">
        <ele>1438</ele>
        <time>2019-05-01T09:56:32Z</time>
      </trkpt>
      <trkpt lat="44.87807" lon="3.42075">
        <ele>1437</ele>
        <time>2019-05-01T09:56:37Z</time>
      </trkpt>
      <trkpt lat="44.87817" lon="3.42026">
        <ele>1436</ele>
        <time>2019-05-01T09:56:55Z</time>
      </trkpt>
      <trkpt lat="44.8782" lon="3.42018">
        <ele>1436</ele>
        <time>2019-05-01T09:56:59Z</time>
      </trkpt>
      <trkpt lat="44.87827" lon="3.42001">
        <ele>1435</ele>
        <time>2019-05-01T09:57:08Z</time>
      </trkpt>
      <trkpt lat="44.87829" lon="3.41993">
        <ele>1435</ele>
        <time>2019-05-01T09:57:13Z</time>
      </trkpt>
      <trkpt lat="44.8783" lon="3.41987">
        <ele>1435</ele>
        <time>2019-05-01T09:57:16Z</time>
      </trkpt>
      <trkpt lat="44.87842" lon="3.41966">
        <ele>1434</ele>
        <time>2019-05-01T09:57:26Z</time>
      </trkpt>
      <trkpt lat="44.87844" lon="3.41962">
        <ele>1434</ele>
        <time>2019-05-01T09:57:29Z</time>
      </trkpt>
      <trkpt lat="44.8785" lon="3.41931">
        <ele>1432</ele>
        <time>2019-05-01T09:57:43Z</time>
      </trkpt>
      <trkpt lat="44.87858" lon="3.41914">
        <ele>1431</ele>
        <time>2019-05-01T09:57:50Z</time>
      </trkpt>
      <trkpt lat="44.87871" lon="3.41891">
        <ele>1428</ele>
        <time>2019-05-01T09:58:02Z</time>
      </trkpt>
      <trkpt lat="44.87874" lon="3.41888">
        <ele>1427</ele>
        <time>2019-05-01T09:58:06Z</time>
      </trkpt>
      <trkpt lat="44.87874" lon="3.4188">
        <ele>1427</ele>
        <time>2019-05-01T09:58:09Z</time>
      </trkpt>
      <trkpt lat="44.87876" lon="3.41875">
        <ele>1426</ele>
        <time>2019-05-01T09:58:12Z</time>
      </trkpt>
      <trkpt lat="44.87878" lon="3.41867">
        <ele>1425</ele>
        <time>2019-05-01T09:58:19Z</time>
      </trkpt>
      <trkpt lat="44.87888" lon="3.41848">
        <ele>1422</ele>
        <time>2019-05-01T09:58:31Z</time>
      </trkpt>
      <trkpt lat="44.8789" lon="3.4184">
        <ele>1422</ele>
        <time>2019-05-01T09:58:34Z</time>
      </trkpt>
      <trkpt lat="44.87892" lon="3.41822">
        <ele>1420</ele>
        <time>2019-05-01T09:58:41Z</time>
      </trkpt>
      <trkpt lat="44.87893" lon="3.41811">
        <ele>1419</ele>
        <time>2019-05-01T09:58:46Z</time>
      </trkpt>
      <trkpt lat="44.87896" lon="3.41802">
        <ele>1418</ele>
        <time>2019-05-01T09:58:50Z</time>
      </trkpt>
      <trkpt lat="44.87898" lon="3.41794">
        <ele>1418</ele>
        <time>2019-05-01T09:58:53Z</time>
      </trkpt>
      <trkpt lat="44.879" lon="3.41705">
        <ele>1411</ele>
        <time>2019-05-01T09:59:26Z</time>
      </trkpt>
      <trkpt lat="44.87906" lon="3.41654">
        <ele>1407</ele>
        <time>2019-05-01T09:59:52Z</time>
      </trkpt>
      <trkpt lat="44.87906" lon="3.41645">
        <ele>1406</ele>
        <time>2019-05-01T10:00:02Z</time>
      </trkpt>
      <trkpt lat="44.87909" lon="3.41637">
        <ele>1405</ele>
        <time>2019-05-01T10:00:07Z</time>
      </trkpt>
      <trkpt lat="44.8791" lon="3.41628">
        <ele>1404</ele>
        <time>2019-05-01T10:00:12Z</time>
      </trkpt>
      <trkpt lat="44.87908" lon="3.41585">
        <ele>1401</ele>
        <time>2019-05-01T10:00:28Z</time>
      </trkpt>
      <trkpt lat="44.87905" lon="3.41575">
        <ele>1400</ele>
        <time>2019-05-01T10:00:32Z</time>
      </trkpt>
      <trkpt lat="44.87903" lon="3.41563">
        <ele>1399</ele>
        <time>2019-05-01T10:00:37Z</time>
      </trkpt>
      <trkpt lat="44.87898" lon="3.41547">
        <ele>1398</ele>
        <time>2019-05-01T10:00:43Z</time>
      </trkpt>
      <trkpt lat="44.87897" lon="3.41536">
        <ele>1398</ele>
        <time>2019-05-01T10:00:47Z</time>
      </trkpt>
      <trkpt lat="44.87895" lon="3.41523">
        <ele>1397</ele>
        <time>2019-05-01T10:00:53Z</time>
      </trkpt>
      <trkpt lat="44.87894" lon="3.41518">
        <ele>1396</ele>
        <time>2019-05-01T10:00:57Z</time>
      </trkpt>
      <trkpt lat="44.87893" lon="3.41511">
        <ele>1396</ele>
        <time>2019-05-01T10:01:00Z</time>
      </trkpt>
      <trkpt lat="44.87893" lon="3.41505">
        <ele>1396</ele>
        <time>2019-05-01T10:01:03Z</time>
      </trkpt>
      <trkpt lat="44.87889" lon="3.41482">
        <ele>1394</ele>
        <time>2019-05-01T10:01:14Z</time>
      </trkpt>
      <trkpt lat="44.87884" lon="3.41463">
        <ele>1393</ele>
        <time>2019-05-01T10:01:23Z</time>
      </trkpt>
      <trkpt lat="44.87881" lon="3.41452">
        <ele>1393</ele>
        <time>2019-05-01T10:01:30Z</time>
      </trkpt>
      <trkpt lat="44.87881" lon="3.41444">
        <ele>1392</ele>
        <time>2019-05-01T10:01:34Z</time>
      </trkpt>
      <trkpt lat="44.87883" lon="3.41438">
        <ele>1392</ele>
        <time>2019-05-01T10:01:36Z</time>
      </trkpt>
      <trkpt lat="44.87883" lon="3.41431">
        <ele>1392</ele>
        <time>2019-05-01T10:01:42Z</time>
      </trkpt>
      <trkpt lat="44.87892" lon="3.41397">
        <ele>1390</ele>
        <time>2019-05-01T10:01:55Z</time>
      </trkpt>
      <trkpt lat="44.87897" lon="3.41388">
        <ele>1389</ele>
        <time>2019-05-01T10:01:58Z</time>
      </trkpt>
      <trkpt lat="44.87903" lon="3.41381">
        <ele>1389</ele>
        <time>2019-05-01T10:02:00Z</time>
      </trkpt>
      <trkpt lat="44.87905" lon="3.41373">
        <ele>1388</ele>
        <time>2019-05-01T10:02:04Z</time>
      </trkpt>
      <trkpt lat="44.87906" lon="3.41368">
        <ele>1388</ele>
        <time>2019-05-01T10:02:06Z</time>
      </trkpt>
      <trkpt lat="44.87907" lon="3.41363">
        <ele>1387</ele>
        <time>2019-05-01T10:02:08Z</time>
      </trkpt>
      <trkpt lat="44.87908" lon="3.41354">
        <ele>1386</ele>
        <time>2019-05-01T10:02:15Z</time>
      </trkpt>
      <trkpt lat="44.87909" lon="3.41345">
        <ele>1385</ele>
        <time>2019-05-01T10:02:18Z</time>
      </trkpt>
      <trkpt lat="44.87908" lon="3.41336">
        <ele>1384</ele>
        <time>2019-05-01T10:02:21Z</time>
      </trkpt>
      <trkpt lat="44.8791" lon="3.41328">
        <ele>1383</ele>
        <time>2019-05-01T10:02:25Z</time>
      </trkpt>
      <trkpt lat="44.87917" lon="3.41315">
        <ele>1382</ele>
        <time>2019-05-01T10:02:34Z</time>
      </trkpt>
      <trkpt lat="44.87923" lon="3.41299">
        <ele>1380</ele>
        <time>2019-05-01T10:02:41Z</time>
      </trkpt>
      <trkpt lat="44.87926" lon="3.41262">
        <ele>1377</ele>
        <time>2019-05-01T10:02:55Z</time>
      </trkpt>
      <trkpt lat="44.87923" lon="3.41236">
        <ele>1375</ele>
        <time>2019-05-01T10:03:04Z</time>
      </trkpt>
      <trkpt lat="44.87925" lon="3.41229">
        <ele>1374</ele>
        <time>2019-05-01T10:03:08Z</time>
      </trkpt>
      <trkpt lat="44.87931" lon="3.41193">
        <ele>1371</ele>
        <time>2019-05-01T10:03:23Z</time>
      </trkpt>
      <trkpt lat="44.87931" lon="3.41184">
        <ele>1369</ele>
        <time>2019-05-01T10:03:27Z</time>
      </trkpt>
      <trkpt lat="44.87931" lon="3.41149">
        <ele>1367</ele>
        <time>2019-05-01T10:03:38Z</time>
      </trkpt>
      <trkpt lat="44.87932" lon="3.41139">
        <ele>1366</ele>
        <time>2019-05-01T10:03:41Z</time>
      </trkpt>
      <trkpt lat="44.87931" lon="3.41132">
        <ele>1365</ele>
        <time>2019-05-01T10:03:44Z</time>
      </trkpt>
      <trkpt lat="44.87927" lon="3.41122">
        <ele>1364</ele>
        <time>2019-05-01T10:03:49Z</time>
      </trkpt>
      <trkpt lat="44.87924" lon="3.41116">
        <ele>1363</ele>
        <time>2019-05-01T10:03:52Z</time>
      </trkpt>
      <trkpt lat="44.8792" lon="3.41114">
        <ele>1363</ele>
        <time>2019-05-01T10:03:56Z</time>
      </trkpt>
      <trkpt lat="44.87916" lon="3.41114">
        <ele>1362</ele>
        <time>2019-05-01T10:03:58Z</time>
      </trkpt>
      <trkpt lat="44.8791" lon="3.41114">
        <ele>1361</ele>
        <time>2019-05-01T10:04:01Z</time>
      </trkpt>
      <trkpt lat="44.87907" lon="3.41114">
        <ele>1361</ele>
        <time>2019-05-01T10:04:03Z</time>
      </trkpt>
      <trkpt lat="44.87899" lon="3.41119">
        <ele>1359</ele>
        <time>2019-05-01T10:04:08Z</time>
      </trkpt>
      <trkpt lat="44.87885" lon="3.41135">
        <ele>1357</ele>
        <time>2019-05-01T10:04:19Z</time>
      </trkpt>
      <trkpt lat="44.87858" lon="3.41163">
        <ele>1352</ele>
        <time>2019-05-01T10:04:41Z</time>
      </trkpt>
      <trkpt lat="44.87852" lon="3.41172">
        <ele>1351</ele>
        <time>2019-05-01T10:04:45Z</time>
      </trkpt>
      <trkpt lat="44.87842" lon="3.41179">
        <ele>1349</ele>
        <time>2019-05-01T10:04:51Z</time>
      </trkpt>
      <trkpt lat="44.87825" lon="3.41185">
        <ele>1347</ele>
        <time>2019-05-01T10:05:00Z</time>
      </trkpt>
      <trkpt lat="44.87801" lon="3.41186">
        <ele>1344</ele>
        <time>2019-05-01T10:05:16Z</time>
      </trkpt>
      <trkpt lat="44.87792" lon="3.41187">
        <ele>1343</ele>
        <time>2019-05-01T10:05:21Z</time>
      </trkpt>
      <trkpt lat="44.87787" lon="3.41186">
        <ele>1342</ele>
        <time>2019-05-01T10:05:23Z</time>
      </trkpt>
      <trkpt lat="44.8778" lon="3.41185">
        <ele>1341</ele>
        <time>2019-05-01T10:05:29Z</time>
      </trkpt>
      <trkpt lat="44.87776" lon="3.41187">
        <ele>1340</ele>
        <time>2019-05-01T10:05:35Z</time>
      </trkpt>
      <trkpt lat="44.87772" lon="3.41182">
        <ele>1340</ele>
        <time>2019-05-01T10:05:38Z</time>
      </trkpt>
      <trkpt lat="44.8777" lon="3.41177">
        <ele>1339</ele>
        <time>2019-05-01T10:05:41Z</time>
      </trkpt>
      <trkpt lat="44.87768" lon="3.41165">
        <ele>1338</ele>
        <time>2019-05-01T10:05:46Z</time>
      </trkpt>
      <trkpt lat="44.87767" lon="3.41159">
        <ele>1338</ele>
        <time>2019-05-01T10:05:49Z</time>
      </trkpt>
      <trkpt lat="44.87766" lon="3.41152">
        <ele>1337</ele>
        <time>2019-05-01T10:05:52Z</time>
      </trkpt>
      <trkpt lat="44.87765" lon="3.41146">
        <ele>1337</ele>
        <time>2019-05-01T10:05:55Z</time>
      </trkpt>
      <trkpt lat="44.87766" lon="3.41134">
        <ele>1336</ele>
        <time>2019-05-01T10:06:02Z</time>
      </trkpt>
      <trkpt lat="44.87764" lon="3.41109">
        <ele>1335</ele>
        <time>2019-05-01T10:06:12Z</time>
      </trkpt>
      <trkpt lat="44.87764" lon="3.41097">
        <ele>1334</ele>
        <time>2019-05-01T10:06:18Z</time>
      </trkpt>
      <trkpt lat="44.87764" lon="3.41082">
        <ele>1333</ele>
        <time>2019-05-01T10:06:24Z</time>
      </trkpt>
      <trkpt lat="44.87765" lon="3.41077">
        <ele>1333</ele>
        <time>2019-05-01T10:06:28Z</time>
      </trkpt>
      <trkpt lat="44.87765" lon="3.41071">
        <ele>1332</ele>
        <time>2019-05-01T10:06:31Z</time>
      </trkpt>
      <trkpt lat="44.87763" lon="3.41049">
        <ele>1331</ele>
        <time>2019-05-01T10:06:39Z</time>
      </trkpt>
      <trkpt lat="44.87761" lon="3.4104">
        <ele>1331</ele>
        <time>2019-05-01T10:06:43Z</time>
      </trkpt>
      <trkpt lat="44.87763" lon="3.4103">
        <ele>1330</ele>
        <time>2019-05-01T10:06:47Z</time>
      </trkpt>
      <trkpt lat="44.87765" lon="3.41023">
        <ele>1330</ele>
        <time>2019-05-01T10:06:50Z</time>
      </trkpt>
      <trkpt lat="44.87768" lon="3.41008">
        <ele>1329</ele>
        <time>2019-05-01T10:06:56Z</time>
      </trkpt>
      <trkpt lat="44.8777" lon="3.41">
        <ele>1329</ele>
        <time>2019-05-01T10:06:59Z</time>
      </trkpt>
      <trkpt lat="44.87771" lon="3.4099">
        <ele>1328</ele>
        <time>2019-05-01T10:07:02Z</time>
      </trkpt>
      <trkpt lat="44.87772" lon="3.40974">
        <ele>1327</ele>
        <time>2019-05-01T10:07:12Z</time>
      </trkpt>
      <trkpt lat="44.8777" lon="3.40965">
        <ele>1326</ele>
        <time>2019-05-01T10:07:15Z</time>
      </trkpt>
      <trkpt lat="44.87769" lon="3.40958">
        <ele>1326</ele>
        <time>2019-05-01T10:07:19Z</time>
      </trkpt>
      <trkpt lat="44.87771" lon="3.40949">
        <ele>1325</ele>
        <time>2019-05-01T10:07:22Z</time>
      </trkpt>
      <trkpt lat="44.8777" lon="3.40942">
        <ele>1325</ele>
        <time>2019-05-01T10:07:24Z</time>
      </trkpt>
      <trkpt lat="44.8777" lon="3.40934">
        <ele>1324</ele>
        <time>2019-05-01T10:07:26Z</time>
      </trkpt>
      <trkpt lat="44.87766" lon="3.40907">
        <ele>1323</ele>
        <time>2019-05-01T10:07:37Z</time>
      </trkpt>
      <trkpt lat="44.87756" lon="3.40874">
        <ele>1319</ele>
        <time>2019-05-01T10:07:50Z</time>
      </trkpt>
      <trkpt lat="44.87754" lon="3.40868">
        <ele>1319</ele>
        <time>2019-05-01T10:07:52Z</time>
      </trkpt>
      <trkpt lat="44.8775" lon="3.40859">
        <ele>1318</ele>
        <time>2019-05-01T10:07:57Z</time>
      </trkpt>
      <trkpt lat="44.87749" lon="3.40853">
        <ele>1317</ele>
        <time>2019-05-01T10:08:00Z</time>
      </trkpt>
      <trkpt lat="44.87747" lon="3.40846">
        <ele>1316</ele>
        <time>2019-05-01T10:08:03Z</time>
      </trkpt>
      <trkpt lat="44.87744" lon="3.40842">
        <ele>1315</ele>
        <time>2019-05-01T10:08:06Z</time>
      </trkpt>
      <trkpt lat="44.87732" lon="3.40828">
        <ele>1313</ele>
        <time>2019-05-01T10:08:15Z</time>
      </trkpt>
      <trkpt lat="44.87716" lon="3.4079">
        <ele>1310</ele>
        <time>2019-05-01T10:08:30Z</time>
      </trkpt>
      <trkpt lat="44.87715" lon="3.40784">
        <ele>1310</ele>
        <time>2019-05-01T10:08:32Z</time>
      </trkpt>
      <trkpt lat="44.87714" lon="3.40777">
        <ele>1309</ele>
        <time>2019-05-01T10:08:35Z</time>
      </trkpt>
      <trkpt lat="44.87709" lon="3.40757">
        <ele>1307</ele>
        <time>2019-05-01T10:08:50Z</time>
      </trkpt>
      <trkpt lat="44.87704" lon="3.40746">
        <ele>1306</ele>
        <time>2019-05-01T10:08:55Z</time>
      </trkpt>
      <trkpt lat="44.8768" lon="3.40724">
        <ele>1303</ele>
        <time>2019-05-01T10:09:10Z</time>
      </trkpt>
      <trkpt lat="44.87672" lon="3.40718">
        <ele>1302</ele>
        <time>2019-05-01T10:09:16Z</time>
      </trkpt>
      <trkpt lat="44.87664" lon="3.40711">
        <ele>1301</ele>
        <time>2019-05-01T10:09:22Z</time>
      </trkpt>
      <trkpt lat="44.87641" lon="3.40694">
        <ele>1299</ele>
        <time>2019-05-01T10:09:35Z</time>
      </trkpt>
      <trkpt lat="44.8763" lon="3.40678">
        <ele>1298</ele>
        <time>2019-05-01T10:09:43Z</time>
      </trkpt>
      <trkpt lat="44.87626" lon="3.40667">
        <ele>1297</ele>
        <time>2019-05-01T10:09:47Z</time>
      </trkpt>
      <trkpt lat="44.87622" lon="3.40659">
        <ele>1297</ele>
        <time>2019-05-01T10:09:51Z</time>
      </trkpt>
      <trkpt lat="44.87619" lon="3.40653">
        <ele>1297</ele>
        <time>2019-05-01T10:09:54Z</time>
      </trkpt>
      <trkpt lat="44.87614" lon="3.40643">
        <ele>1296</ele>
        <time>2019-05-01T10:09:59Z</time>
      </trkpt>
      <trkpt lat="44.87606" lon="3.40628">
        <ele>1295</ele>
        <time>2019-05-01T10:10:06Z</time>
      </trkpt>
      <trkpt lat="44.87604" lon="3.40623">
        <ele>1295</ele>
        <time>2019-05-01T10:10:08Z</time>
      </trkpt>
      <trkpt lat="44.87603" lon="3.40617">
        <ele>1294</ele>
        <time>2019-05-01T10:10:11Z</time>
      </trkpt>
      <trkpt lat="44.87611" lon="3.40545">
        <ele>1291</ele>
        <time>2019-05-01T10:10:41Z</time>
      </trkpt>
      <trkpt lat="44.87614" lon="3.40501">
        <ele>1287</ele>
        <time>2019-05-01T10:11:04Z</time>
      </trkpt>
      <trkpt lat="44.87615" lon="3.40491">
        <ele>1286</ele>
        <time>2019-05-01T10:11:08Z</time>
      </trkpt>
      <trkpt lat="44.87608" lon="3.40475">
        <ele>1285</ele>
        <time>2019-05-01T10:11:13Z</time>
      </trkpt>
      <trkpt lat="44.87606" lon="3.4047">
        <ele>1284</ele>
        <time>2019-05-01T10:11:15Z</time>
      </trkpt>
      <trkpt lat="44.876" lon="3.40464">
        <ele>1284</ele>
        <time>2019-05-01T10:11:20Z</time>
      </trkpt>
      <trkpt lat="44.87595" lon="3.40456">
        <ele>1283</ele>
        <time>2019-05-01T10:11:24Z</time>
      </trkpt>
      <trkpt lat="44.87591" lon="3.40451">
        <ele>1282</ele>
        <time>2019-05-01T10:11:28Z</time>
      </trkpt>
      <trkpt lat="44.87589" lon="3.40444">
        <ele>1281</ele>
        <time>2019-05-01T10:11:31Z</time>
      </trkpt>
      <trkpt lat="44.87585" lon="3.40438">
        <ele>1281</ele>
        <time>2019-05-01T10:11:37Z</time>
      </trkpt>
      <trkpt lat="44.87574" lon="3.40428">
        <ele>1279</ele>
        <time>2019-05-01T10:11:46Z</time>
      </trkpt>
      <trkpt lat="44.8757" lon="3.40423">
        <ele>1278</ele>
        <time>2019-05-01T10:11:49Z</time>
      </trkpt>
      <trkpt lat="44.87558" lon="3.40424">
        <ele>1277</ele>
        <time>2019-05-01T10:11:55Z</time>
      </trkpt>
      <trkpt lat="44.87546" lon="3.40429">
        <ele>1276</ele>
        <time>2019-05-01T10:12:01Z</time>
      </trkpt>
      <trkpt lat="44.87534" lon="3.40431">
        <ele>1275</ele>
        <time>2019-05-01T10:12:08Z</time>
      </trkpt>
      <trkpt lat="44.87522" lon="3.40435">
        <ele>1274</ele>
        <time>2019-05-01T10:12:17Z</time>
      </trkpt>
      <trkpt lat="44.87466" lon="3.40451">
        <ele>1269</ele>
        <time>2019-05-01T10:12:50Z</time>
      </trkpt>
      <trkpt lat="44.87451" lon="3.40448">
        <ele>1268</ele>
        <time>2019-05-01T10:12:58Z</time>
      </trkpt>
      <trkpt lat="44.87445" lon="3.40444">
        <ele>1267</ele>
        <time>2019-05-01T10:13:01Z</time>
      </trkpt>
      <trkpt lat="44.87419" lon="3.40397">
        <ele>1264</ele>
        <time>2019-05-01T10:13:23Z</time>
      </trkpt>
      <trkpt lat="44.87413" lon="3.40379">
        <ele>1264</ele>
        <time>2019-05-01T10:13:31Z</time>
      </trkpt>
      <trkpt lat="44.874" lon="3.40351">
        <ele>1262</ele>
        <time>2019-05-01T10:13:46Z</time>
      </trkpt>
      <trkpt lat="44.87392" lon="3.40339">
        <ele>1261</ele>
        <time>2019-05-01T10:13:54Z</time>
      </trkpt>
      <trkpt lat="44.87352" lon="3.40304">
        <ele>1257</ele>
        <time>2019-05-01T10:14:25Z</time>
      </trkpt>
      <trkpt lat="44.87319" lon="3.40257">
        <ele>1252</ele>
        <time>2019-05-01T10:14:55Z</time>
      </trkpt>
      <trkpt lat="44.87312" lon="3.40251">
        <ele>1251</ele>
        <time>2019-05-01T10:15:02Z</time>
      </trkpt>
      <trkpt lat="44.87309" lon="3.40247">
        <ele>1250</ele>
        <time>2019-05-01T10:15:05Z</time>
      </trkpt>
      <trkpt lat="44.87307" lon="3.40241">
        <ele>1249</ele>
        <time>2019-05-01T10:15:09Z</time>
      </trkpt>
      <trkpt lat="44.87306" lon="3.40235">
        <ele>1248</ele>
        <time>2019-05-01T10:15:12Z</time>
      </trkpt>
      <trkpt lat="44.87306" lon="3.4023">
        <ele>1248</ele>
        <time>2019-05-01T10:15:15Z</time>
      </trkpt>
      <trkpt lat="44.87311" lon="3.40214">
        <ele>1246</ele>
        <time>2019-05-01T10:15:24Z</time>
      </trkpt>
      <trkpt lat="44.87314" lon="3.40196">
        <ele>1244</ele>
        <time>2019-05-01T10:15:32Z</time>
      </trkpt>
      <trkpt lat="44.87314" lon="3.40188">
        <ele>1244</ele>
        <time>2019-05-01T10:15:35Z</time>
      </trkpt>
      <trkpt lat="44.87296" lon="3.40128">
        <ele>1240</ele>
        <time>2019-05-01T10:16:00Z</time>
      </trkpt>
      <trkpt lat="44.87294" lon="3.40122">
        <ele>1239</ele>
        <time>2019-05-01T10:16:03Z</time>
      </trkpt>
      <trkpt lat="44.87293" lon="3.40117">
        <ele>1239</ele>
        <time>2019-05-01T10:16:06Z</time>
      </trkpt>
      <trkpt lat="44.87283" lon="3.40102">
        <ele>1238</ele>
        <time>2019-05-01T10:16:13Z</time>
      </trkpt>
      <trkpt lat="44.87275" lon="3.40094">
        <ele>1237</ele>
        <time>2019-05-01T10:16:19Z</time>
      </trkpt>
      <trkpt lat="44.87259" lon="3.40086">
        <ele>1236</ele>
        <time>2019-05-01T10:16:28Z</time>
      </trkpt>
      <trkpt lat="44.87251" lon="3.40079">
        <ele>1235</ele>
        <time>2019-05-01T10:16:32Z</time>
      </trkpt>
      <trkpt lat="44.87248" lon="3.40076">
        <ele>1235</ele>
        <time>2019-05-01T10:16:34Z</time>
      </trkpt>
      <trkpt lat="44.87188" lon="3.40028">
        <ele>1232</ele>
        <time>2019-05-01T10:17:05Z</time>
      </trkpt>
      <trkpt lat="44.87172" lon="3.40006">
        <ele>1232</ele>
        <time>2019-05-01T10:17:17Z</time>
      </trkpt>
      <trkpt lat="44.87163" lon="3.39999">
        <ele>1231</ele>
        <time>2019-05-01T10:17:23Z</time>
      </trkpt>
      <trkpt lat="44.87144" lon="3.39977">
        <ele>1230</ele>
        <time>2019-05-01T10:17:38Z</time>
      </trkpt>
      <trkpt lat="44.8714" lon="3.39969">
        <ele>1230</ele>
        <time>2019-05-01T10:17:42Z</time>
      </trkpt>
      <trkpt lat="44.87137" lon="3.39961">
        <ele>1230</ele>
        <time>2019-05-01T10:17:46Z</time>
      </trkpt>
      <trkpt lat="44.87135" lon="3.39956">
        <ele>1230</ele>
        <time>2019-05-01T10:17:48Z</time>
      </trkpt>
      <trkpt lat="44.87136" lon="3.39952">
        <ele>1229</ele>
        <time>2019-05-01T10:17:50Z</time>
      </trkpt>
      <trkpt lat="44.8714" lon="3.39944">
        <ele>1229</ele>
        <time>2019-05-01T10:17:53Z</time>
      </trkpt>
      <trkpt lat="44.87143" lon="3.3994">
        <ele>1229</ele>
        <time>2019-05-01T10:17:56Z</time>
      </trkpt>
      <trkpt lat="44.87171" lon="3.39941">
        <ele>1228</ele>
        <time>2019-05-01T10:18:13Z</time>
      </trkpt>
      <trkpt lat="44.87181" lon="3.39938">
        <ele>1228</ele>
        <time>2019-05-01T10:18:19Z</time>
      </trkpt>
      <trkpt lat="44.8719" lon="3.3993">
        <ele>1228</ele>
        <time>2019-05-01T10:18:27Z</time>
      </trkpt>
      <trkpt lat="44.87194" lon="3.39928">
        <ele>1228</ele>
        <time>2019-05-01T10:18:29Z</time>
      </trkpt>
      <trkpt lat="44.87208" lon="3.39905">
        <ele>1228</ele>
        <time>2019-05-01T10:18:41Z</time>
      </trkpt>
      <trkpt lat="44.87211" lon="3.39896">
        <ele>1228</ele>
        <time>2019-05-01T10:18:45Z</time>
      </trkpt>
      <trkpt lat="44.87212" lon="3.39892">
        <ele>1228</ele>
        <time>2019-05-01T10:18:47Z</time>
      </trkpt>
      <trkpt lat="44.87217" lon="3.39873">
        <ele>1228</ele>
        <time>2019-05-01T10:18:55Z</time>
      </trkpt>
      <trkpt lat="44.87219" lon="3.39869">
        <ele>1229</ele>
        <time>2019-05-01T10:18:58Z</time>
      </trkpt>
      <trkpt lat="44.87223" lon="3.39862">
        <ele>1229</ele>
        <time>2019-05-01T10:19:03Z</time>
      </trkpt>
      <trkpt lat="44.87228" lon="3.39856">
        <ele>1229</ele>
        <time>2019-05-01T10:19:07Z</time>
      </trkpt>
      <trkpt lat="44.87236" lon="3.39851">
        <ele>1229</ele>
        <time>2019-05-01T10:19:11Z</time>
      </trkpt>
      <trkpt lat="44.87243" lon="3.39848">
        <ele>1229</ele>
        <time>2019-05-01T10:19:16Z</time>
      </trkpt>
      <trkpt lat="44.87265" lon="3.3984">
        <ele>1230</ele>
        <time>2019-05-01T10:19:29Z</time>
      </trkpt>
      <trkpt lat="44.8727" lon="3.39838">
        <ele>1230</ele>
        <time>2019-05-01T10:19:33Z</time>
      </trkpt>
      <trkpt lat="44.87274" lon="3.39838">
        <ele>1230</ele>
        <time>2019-05-01T10:19:38Z</time>
      </trkpt>
      <trkpt lat="44.87297" lon="3.39838">
        <ele>1231</ele>
        <time>2019-05-01T10:19:51Z</time>
      </trkpt>
      <trkpt lat="44.87307" lon="3.39834">
        <ele>1231</ele>
        <time>2019-05-01T10:19:57Z</time>
      </trkpt>
      <trkpt lat="44.87354" lon="3.39812">
        <ele>1232</ele>
        <time>2019-05-01T10:20:28Z</time>
      </trkpt>
      <trkpt lat="44.87389" lon="3.39794">
        <ele>1233</ele>
        <time>2019-05-01T10:20:48Z</time>
      </trkpt>
      <trkpt lat="44.8741" lon="3.39773">
        <ele>1234</ele>
        <time>2019-05-01T10:21:04Z</time>
      </trkpt>
      <trkpt lat="44.87422" lon="3.39764">
        <ele>1234</ele>
        <time>2019-05-01T10:21:12Z</time>
      </trkpt>
      <trkpt lat="44.87427" lon="3.39756">
        <ele>1234</ele>
        <time>2019-05-01T10:21:16Z</time>
      </trkpt>
      <trkpt lat="44.87447" lon="3.39722">
        <ele>1235</ele>
        <time>2019-05-01T10:21:32Z</time>
      </trkpt>
      <trkpt lat="44.87458" lon="3.39705">
        <ele>1235</ele>
        <time>2019-05-01T10:21:40Z</time>
      </trkpt>
      <trkpt lat="44.87461" lon="3.39695">
        <ele>1235</ele>
        <time>2019-05-01T10:21:44Z</time>
      </trkpt>
      <trkpt lat="44.87469" lon="3.39684">
        <ele>1236</ele>
        <time>2019-05-01T10:21:50Z</time>
      </trkpt>
      <trkpt lat="44.87475" lon="3.39678">
        <ele>1236</ele>
        <time>2019-05-01T10:21:54Z</time>
      </trkpt>
      <trkpt lat="44.87478" lon="3.39676">
        <ele>1236</ele>
        <time>2019-05-01T10:21:56Z</time>
      </trkpt>
      <trkpt lat="44.87485" lon="3.3967">
        <ele>1236</ele>
        <time>2019-05-01T10:22:02Z</time>
      </trkpt>
      <trkpt lat="44.87488" lon="3.39666">
        <ele>1236</ele>
        <time>2019-05-01T10:22:06Z</time>
      </trkpt>
      <trkpt lat="44.87494" lon="3.39666">
        <ele>1236</ele>
        <time>2019-05-01T10:22:09Z</time>
      </trkpt>
      <trkpt lat="44.87503" lon="3.39658">
        <ele>1237</ele>
        <time>2019-05-01T10:22:14Z</time>
      </trkpt>
      <trkpt lat="44.87506" lon="3.39655">
        <ele>1237</ele>
        <time>2019-05-01T10:22:16Z</time>
      </trkpt>
      <trkpt lat="44.87509" lon="3.3965">
        <ele>1237</ele>
        <time>2019-05-01T10:22:19Z</time>
      </trkpt>
      <trkpt lat="44.87514" lon="3.39642">
        <ele>1237</ele>
        <time>2019-05-01T10:22:23Z</time>
      </trkpt>
      <trkpt lat="44.87518" lon="3.39634">
        <ele>1237</ele>
        <time>2019-05-01T10:22:28Z</time>
      </trkpt>
      <trkpt lat="44.8752" lon="3.39629">
        <ele>1237</ele>
        <time>2019-05-01T10:22:30Z</time>
      </trkpt>
      <trkpt lat="44.87532" lon="3.3961">
        <ele>1238</ele>
        <time>2019-05-01T10:22:41Z</time>
      </trkpt>
      <trkpt lat="44.87535" lon="3.39605">
        <ele>1238</ele>
        <time>2019-05-01T10:22:43Z</time>
      </trkpt>
      <trkpt lat="44.87541" lon="3.39596">
        <ele>1238</ele>
        <time>2019-05-01T10:22:49Z</time>
      </trkpt>
      <trkpt lat="44.87545" lon="3.39588">
        <ele>1238</ele>
        <time>2019-05-01T10:22:53Z</time>
      </trkpt>
      <trkpt lat="44.87549" lon="3.3956">
        <ele>1239</ele>
        <time>2019-05-01T10:23:02Z</time>
      </trkpt>
      <trkpt lat="44.87553" lon="3.39546">
        <ele>1239</ele>
        <time>2019-05-01T10:23:08Z</time>
      </trkpt>
      <trkpt lat="44.87554" lon="3.3954">
        <ele>1239</ele>
        <time>2019-05-01T10:23:10Z</time>
      </trkpt>
      <trkpt lat="44.87563" lon="3.39518">
        <ele>1239</ele>
        <time>2019-05-01T10:23:20Z</time>
      </trkpt>
      <trkpt lat="44.87572" lon="3.39481">
        <ele>1240</ele>
        <time>2019-05-01T10:23:36Z</time>
      </trkpt>
      <trkpt lat="44.87575" lon="3.39474">
        <ele>1240</ele>
        <time>2019-05-01T10:23:40Z</time>
      </trkpt>
      <trkpt lat="44.8758" lon="3.39468">
        <ele>1240</ele>
        <time>2019-05-01T10:23:44Z</time>
      </trkpt>
      <trkpt lat="44.87583" lon="3.39465">
        <ele>1240</ele>
        <time>2019-05-01T10:23:46Z</time>
      </trkpt>
      <trkpt lat="44.87588" lon="3.39459">
        <ele>1240</ele>
        <time>2019-05-01T10:23:50Z</time>
      </trkpt>
      <trkpt lat="44.87603" lon="3.3944">
        <ele>1241</ele>
        <time>2019-05-01T10:24:02Z</time>
      </trkpt>
      <trkpt lat="44.87605" lon="3.39437">
        <ele>1241</ele>
        <time>2019-05-01T10:24:05Z</time>
      </trkpt>
      <trkpt lat="44.87611" lon="3.39434">
        <ele>1241</ele>
        <time>2019-05-01T10:24:09Z</time>
      </trkpt>
      <trkpt lat="44.87615" lon="3.39433">
        <ele>1241</ele>
        <time>2019-05-01T10:24:12Z</time>
      </trkpt>
      <trkpt lat="44.87666" lon="3.39455">
        <ele>1242</ele>
        <time>2019-05-01T10:24:44Z</time>
      </trkpt>
      <trkpt lat="44.87675" lon="3.39456">
        <ele>1242</ele>
        <time>2019-05-01T10:24:51Z</time>
      </trkpt>
      <trkpt lat="44.87717" lon="3.39451">
        <ele>1243</ele>
        <time>2019-05-01T10:25:15Z</time>
      </trkpt>
      <trkpt lat="44.87765" lon="3.39452">
        <ele>1245</ele>
        <time>2019-05-01T10:25:45Z</time>
      </trkpt>
      <trkpt lat="44.87786" lon="3.39456">
        <ele>1246</ele>
        <time>2019-05-01T10:25:59Z</time>
      </trkpt>
      <trkpt lat="44.87789" lon="3.39457">
        <ele>1246</ele>
        <time>2019-05-01T10:26:01Z</time>
      </trkpt>
      <trkpt lat="44.87825" lon="3.39487">
        <ele>1247</ele>
        <time>2019-05-01T10:26:24Z</time>
      </trkpt>
      <trkpt lat="44.87869" lon="3.39515">
        <ele>1249</ele>
        <time>2019-05-01T10:26:54Z</time>
      </trkpt>
      <trkpt lat="44.8788" lon="3.39527">
        <ele>1249</ele>
        <time>2019-05-01T10:27:04Z</time>
      </trkpt>
      <trkpt lat="44.87904" lon="3.39527">
        <ele>1250</ele>
        <time>2019-05-01T10:27:16Z</time>
      </trkpt>
      <trkpt lat="44.87912" lon="3.39532">
        <ele>1251</ele>
        <time>2019-05-01T10:27:20Z</time>
      </trkpt>
      <trkpt lat="44.87916" lon="3.39536">
        <ele>1251</ele>
        <time>2019-05-01T10:27:24Z</time>
      </trkpt>
      <trkpt lat="44.87921" lon="3.39538">
        <ele>1252</ele>
        <time>2019-05-01T10:27:28Z</time>
      </trkpt>
      <trkpt lat="44.87934" lon="3.39539">
        <ele>1253</ele>
        <time>2019-05-01T10:27:35Z</time>
      </trkpt>
      <trkpt lat="44.8794" lon="3.39539">
        <ele>1253</ele>
        <time>2019-05-01T10:27:40Z</time>
      </trkpt>
      <trkpt lat="44.87945" lon="3.39537">
        <ele>1254</ele>
        <time>2019-05-01T10:27:44Z</time>
      </trkpt>
      <trkpt lat="44.87951" lon="3.39539">
        <ele>1254</ele>
        <time>2019-05-01T10:27:49Z</time>
      </trkpt>
      <trkpt lat="44.87958" lon="3.39541">
        <ele>1255</ele>
        <time>2019-05-01T10:27:54Z</time>
      </trkpt>
      <trkpt lat="44.87997" lon="3.39567">
        <ele>1257</ele>
        <time>2019-05-01T10:28:25Z</time>
      </trkpt>
      <trkpt lat="44.88009" lon="3.39575">
        <ele>1258</ele>
        <time>2019-05-01T10:28:33Z</time>
      </trkpt>
      <trkpt lat="44.8803" lon="3.39598">
        <ele>1259</ele>
        <time>2019-05-01T10:28:48Z</time>
      </trkpt>
      <trkpt lat="44.88034" lon="3.39603">
        <ele>1259</ele>
        <time>2019-05-01T10:28:52Z</time>
      </trkpt>
      <trkpt lat="44.8805" lon="3.39614">
        <ele>1260</ele>
        <time>2019-05-01T10:29:01Z</time>
      </trkpt>
      <trkpt lat="44.88055" lon="3.39622">
        <ele>1261</ele>
        <time>2019-05-01T10:29:06Z</time>
      </trkpt>
      <trkpt lat="44.881" lon="3.39653">
        <ele>1265</ele>
        <time>2019-05-01T10:29:34Z</time>
      </trkpt>
      <trkpt lat="44.88108" lon="3.39659">
        <ele>1266</ele>
        <time>2019-05-01T10:29:39Z</time>
      </trkpt>
      <trkpt lat="44.88146" lon="3.39699">
        <ele>1271</ele>
        <time>2019-05-01T10:30:10Z</time>
      </trkpt>
      <trkpt lat="44.88154" lon="3.39708">
        <ele>1272</ele>
        <time>2019-05-01T10:30:14Z</time>
      </trkpt>
      <trkpt lat="44.8816" lon="3.39716">
        <ele>1273</ele>
        <time>2019-05-01T10:30:18Z</time>
      </trkpt>
      <trkpt lat="44.88198" lon="3.39751">
        <ele>1277</ele>
        <time>2019-05-01T10:30:48Z</time>
      </trkpt>
      <trkpt lat="44.88246" lon="3.39791">
        <ele>1280</ele>
        <time>2019-05-01T10:31:18Z</time>
      </trkpt>
      <trkpt lat="44.88288" lon="3.39825">
        <ele>1283</ele>
        <time>2019-05-01T10:31:49Z</time>
      </trkpt>
      <trkpt lat="44.88291" lon="3.39828">
        <ele>1283</ele>
        <time>2019-05-01T10:31:51Z</time>
      </trkpt>
      <trkpt lat="44.88295" lon="3.39832">
        <ele>1284</ele>
        <time>2019-05-01T10:31:54Z</time>
      </trkpt>
      <trkpt lat="44.88308" lon="3.3984">
        <ele>1285</ele>
        <time>2019-05-01T10:32:03Z</time>
      </trkpt>
      <trkpt lat="44.88311" lon="3.39844">
        <ele>1285</ele>
        <time>2019-05-01T10:32:05Z</time>
      </trkpt>
      <trkpt lat="44.88331" lon="3.39856">
        <ele>1286</ele>
        <time>2019-05-01T10:32:22Z</time>
      </trkpt>
      <trkpt lat="44.88338" lon="3.39865">
        <ele>1287</ele>
        <time>2019-05-01T10:32:27Z</time>
      </trkpt>
      <trkpt lat="44.88343" lon="3.39869">
        <ele>1287</ele>
        <time>2019-05-01T10:32:30Z</time>
      </trkpt>
      <trkpt lat="44.88367" lon="3.3988">
        <ele>1289</ele>
        <time>2019-05-01T10:32:46Z</time>
      </trkpt>
      <trkpt lat="44.88371" lon="3.39883">
        <ele>1289</ele>
        <time>2019-05-01T10:32:49Z</time>
      </trkpt>
      <trkpt lat="44.88375" lon="3.39891">
        <ele>1289</ele>
        <time>2019-05-01T10:32:51Z</time>
      </trkpt>
      <trkpt lat="44.88385" lon="3.39896">
        <ele>1290</ele>
        <time>2019-05-01T10:32:58Z</time>
      </trkpt>
      <trkpt lat="44.88389" lon="3.39899">
        <ele>1290</ele>
        <time>2019-05-01T10:33:01Z</time>
      </trkpt>
      <trkpt lat="44.88392" lon="3.39901">
        <ele>1290</ele>
        <time>2019-05-01T10:33:03Z</time>
      </trkpt>
      <trkpt lat="44.88406" lon="3.39918">
        <ele>1292</ele>
        <time>2019-05-01T10:33:14Z</time>
      </trkpt>
      <trkpt lat="44.88413" lon="3.3992">
        <ele>1292</ele>
        <time>2019-05-01T10:33:19Z</time>
      </trkpt>
      <trkpt lat="44.88445" lon="3.3994">
        <ele>1294</ele>
        <time>2019-05-01T10:33:43Z</time>
      </trkpt>
      <trkpt lat="44.8846" lon="3.39936">
        <ele>1295</ele>
        <time>2019-05-01T10:33:56Z</time>
      </trkpt>
      <trkpt lat="44.88514" lon="3.39961">
        <ele>1298</ele>
        <time>2019-05-01T10:34:29Z</time>
      </trkpt>
      <trkpt lat="44.88563" lon="3.39984">
        <ele>1302</ele>
        <time>2019-05-01T10:34:56Z</time>
      </trkpt>
      <trkpt lat="44.88569" lon="3.39986">
        <ele>1302</ele>
        <time>2019-05-01T10:34:58Z</time>
      </trkpt>
      <trkpt lat="44.88574" lon="3.39986">
        <ele>1302</ele>
        <time>2019-05-01T10:35:01Z</time>
      </trkpt>
      <trkpt lat="44.88582" lon="3.39989">
        <ele>1303</ele>
        <time>2019-05-01T10:35:05Z</time>
      </trkpt>
      <trkpt lat="44.88603" lon="3.40002">
        <ele>1305</ele>
        <time>2019-05-01T10:35:19Z</time>
      </trkpt>
      <trkpt lat="44.88614" lon="3.40009">
        <ele>1306</ele>
        <time>2019-05-01T10:35:28Z</time>
      </trkpt>
      <trkpt lat="44.88639" lon="3.40022">
        <ele>1309</ele>
        <time>2019-05-01T10:35:44Z</time>
      </trkpt>
      <trkpt lat="44.8865" lon="3.40031">
        <ele>1310</ele>
        <time>2019-05-01T10:35:54Z</time>
      </trkpt>
      <trkpt lat="44.88655" lon="3.40035">
        <ele>1310</ele>
        <time>2019-05-01T10:35:57Z</time>
      </trkpt>
      <trkpt lat="44.8868" lon="3.40059">
        <ele>1313</ele>
        <time>2019-05-01T10:36:14Z</time>
      </trkpt>
      <trkpt lat="44.88716" lon="3.40076">
        <ele>1316</ele>
        <time>2019-05-01T10:36:39Z</time>
      </trkpt>
      <trkpt lat="44.88729" lon="3.40092">
        <ele>1317</ele>
        <time>2019-05-01T10:36:52Z</time>
      </trkpt>
      <trkpt lat="44.8874" lon="3.40101">
        <ele>1318</ele>
        <time>2019-05-01T10:37:02Z</time>
      </trkpt>
      <trkpt lat="44.88751" lon="3.40108">
        <ele>1320</ele>
        <time>2019-05-01T10:37:11Z</time>
      </trkpt>
      <trkpt lat="44.88757" lon="3.4011">
        <ele>1320</ele>
        <time>2019-05-01T10:37:15Z</time>
      </trkpt>
      <trkpt lat="44.88765" lon="3.40111">
        <ele>1321</ele>
        <time>2019-05-01T10:37:20Z</time>
      </trkpt>
      <trkpt lat="44.88785" lon="3.40125">
        <ele>1322</ele>
        <time>2019-05-01T10:37:34Z</time>
      </trkpt>
      <trkpt lat="44.88822" lon="3.40143">
        <ele>1325</ele>
        <time>2019-05-01T10:38:00Z</time>
      </trkpt>
      <trkpt lat="44.88847" lon="3.4015">
        <ele>1326</ele>
        <time>2019-05-01T10:38:11Z</time>
      </trkpt>
      <trkpt lat="44.88861" lon="3.40158">
        <ele>1327</ele>
        <time>2019-05-01T10:38:20Z</time>
      </trkpt>
      <trkpt lat="44.88867" lon="3.40161">
        <ele>1327</ele>
        <time>2019-05-01T10:38:23Z</time>
      </trkpt>
      <trkpt lat="44.88873" lon="3.40164">
        <ele>1328</ele>
        <time>2019-05-01T10:38:27Z</time>
      </trkpt>
      <trkpt lat="44.88892" lon="3.40167">
        <ele>1329</ele>
        <time>2019-05-01T10:38:36Z</time>
      </trkpt>
      <trkpt lat="44.88898" lon="3.40169">
        <ele>1329</ele>
        <time>2019-05-01T10:38:40Z</time>
      </trkpt>
      <trkpt lat="44.88927" lon="3.40183">
        <ele>1331</ele>
        <time>2019-05-01T10:39:00Z</time>
      </trkpt>
      <trkpt lat="44.88931" lon="3.40185">
        <ele>1331</ele>
        <time>2019-05-01T10:39:02Z</time>
      </trkpt>
      <trkpt lat="44.88941" lon="3.40186">
        <ele>1331</ele>
        <time>2019-05-01T10:39:08Z</time>
      </trkpt>
      <trkpt lat="44.88972" lon="3.40197">
        <ele>1333</ele>
        <time>2019-05-01T10:39:28Z</time>
      </trkpt>
      <trkpt lat="44.8898" lon="3.402">
        <ele>1333</ele>
        <time>2019-05-01T10:39:32Z</time>
      </trkpt>
      <trkpt lat="44.88986" lon="3.40198">
        <ele>1333</ele>
        <time>2019-05-01T10:39:36Z</time>
      </trkpt>
      <trkpt lat="44.89024" lon="3.4021">
        <ele>1335</ele>
        <time>2019-05-01T10:39:59Z</time>
      </trkpt>
      <trkpt lat="44.8903" lon="3.4021">
        <ele>1336</ele>
        <time>2019-05-01T10:40:04Z</time>
      </trkpt>
      <trkpt lat="44.89036" lon="3.40207">
        <ele>1336</ele>
        <time>2019-05-01T10:40:12Z</time>
      </trkpt>
      <trkpt lat="44.89044" lon="3.40208">
        <ele>1337</ele>
        <time>2019-05-01T10:40:16Z</time>
      </trkpt>
      <trkpt lat="44.89051" lon="3.40207">
        <ele>1337</ele>
        <time>2019-05-01T10:40:20Z</time>
      </trkpt>
      <trkpt lat="44.89058" lon="3.40205">
        <ele>1337</ele>
        <time>2019-05-01T10:40:24Z</time>
      </trkpt>
      <trkpt lat="44.8908" lon="3.402">
        <ele>1338</ele>
        <time>2019-05-01T10:40:36Z</time>
      </trkpt>
      <trkpt lat="44.89112" lon="3.40182">
        <ele>1339</ele>
        <time>2019-05-01T10:40:55Z</time>
      </trkpt>
      <trkpt lat="44.89118" lon="3.40177">
        <ele>1339</ele>
        <time>2019-05-01T10:40:58Z</time>
      </trkpt>
      <trkpt lat="44.89152" lon="3.40159">
        <ele>1340</ele>
        <time>2019-05-01T10:41:19Z</time>
      </trkpt>
      <trkpt lat="44.89158" lon="3.40156">
        <ele>1340</ele>
        <time>2019-05-01T10:41:23Z</time>
      </trkpt>
      <trkpt lat="44.89163" lon="3.40153">
        <ele>1340</ele>
        <time>2019-05-01T10:41:26Z</time>
      </trkpt>
      <trkpt lat="44.89183" lon="3.4014">
        <ele>1340</ele>
        <time>2019-05-01T10:41:35Z</time>
      </trkpt>
      <trkpt lat="44.89188" lon="3.40137">
        <ele>1340</ele>
        <time>2019-05-01T10:41:38Z</time>
      </trkpt>
      <trkpt lat="44.89193" lon="3.40133">
        <ele>1340</ele>
        <time>2019-05-01T10:41:44Z</time>
      </trkpt>
      <trkpt lat="44.89198" lon="3.40128">
        <ele>1340</ele>
        <time>2019-05-01T10:41:47Z</time>
      </trkpt>
      <trkpt lat="44.89214" lon="3.40114">
        <ele>1340</ele>
        <time>2019-05-01T10:41:55Z</time>
      </trkpt>
      <trkpt lat="44.89246" lon="3.40102">
        <ele>1340</ele>
        <time>2019-05-01T10:42:14Z</time>
      </trkpt>
      <trkpt lat="44.8925" lon="3.401">
        <ele>1340</ele>
        <time>2019-05-01T10:42:16Z</time>
      </trkpt>
      <trkpt lat="44.89272" lon="3.40103">
        <ele>1339</ele>
        <time>2019-05-01T10:42:30Z</time>
      </trkpt>
      <trkpt lat="44.89277" lon="3.40103">
        <ele>1339</ele>
        <time>2019-05-01T10:42:33Z</time>
      </trkpt>
      <trkpt lat="44.89318" lon="3.40097">
        <ele>1338</ele>
        <time>2019-05-01T10:42:53Z</time>
      </trkpt>
      <trkpt lat="44.89321" lon="3.40095">
        <ele>1338</ele>
        <time>2019-05-01T10:42:55Z</time>
      </trkpt>
      <trkpt lat="44.89369" lon="3.4009">
        <ele>1337</ele>
        <time>2019-05-01T10:43:24Z</time>
      </trkpt>
      <trkpt lat="44.89413" lon="3.40119">
        <ele>1336</ele>
        <time>2019-05-01T10:43:50Z</time>
      </trkpt>
      <trkpt lat="44.89417" lon="3.40121">
        <ele>1336</ele>
        <time>2019-05-01T10:43:53Z</time>
      </trkpt>
      <trkpt lat="44.89439" lon="3.40136">
        <ele>1335</ele>
        <time>2019-05-01T10:44:07Z</time>
      </trkpt>
      <trkpt lat="44.89444" lon="3.40138">
        <ele>1335</ele>
        <time>2019-05-01T10:44:10Z</time>
      </trkpt>
      <trkpt lat="44.89448" lon="3.40137">
        <ele>1335</ele>
        <time>2019-05-01T10:44:13Z</time>
      </trkpt>
      <trkpt lat="44.89453" lon="3.40134">
        <ele>1335</ele>
        <time>2019-05-01T10:44:16Z</time>
      </trkpt>
      <trkpt lat="44.89455" lon="3.40125">
        <ele>1334</ele>
        <time>2019-05-01T10:44:19Z</time>
      </trkpt>
      <trkpt lat="44.89457" lon="3.40113">
        <ele>1334</ele>
        <time>2019-05-01T10:44:25Z</time>
      </trkpt>
      <trkpt lat="44.89458" lon="3.40108">
        <ele>1334</ele>
        <time>2019-05-01T10:44:27Z</time>
      </trkpt>
      <trkpt lat="44.89459" lon="3.40104">
        <ele>1334</ele>
        <time>2019-05-01T10:44:29Z</time>
      </trkpt>
      <trkpt lat="44.89446" lon="3.40035">
        <ele>1332</ele>
        <time>2019-05-01T10:45:00Z</time>
      </trkpt>
      <trkpt lat="44.89435" lon="3.4">
        <ele>1331</ele>
        <time>2019-05-01T10:45:14Z</time>
      </trkpt>
      <trkpt lat="44.89429" lon="3.39986">
        <ele>1330</ele>
        <time>2019-05-01T10:45:20Z</time>
      </trkpt>
      <trkpt lat="44.89425" lon="3.39978">
        <ele>1330</ele>
        <time>2019-05-01T10:45:24Z</time>
      </trkpt>
      <trkpt lat="44.89393" lon="3.39918">
        <ele>1329</ele>
        <time>2019-05-01T10:45:55Z</time>
      </trkpt>
      <trkpt lat="44.89375" lon="3.39869">
        <ele>1327</ele>
        <time>2019-05-01T10:46:18Z</time>
      </trkpt>
      <trkpt lat="44.89371" lon="3.39854">
        <ele>1327</ele>
        <time>2019-05-01T10:46:25Z</time>
      </trkpt>
      <trkpt lat="44.89372" lon="3.39849">
        <ele>1327</ele>
        <time>2019-05-01T10:46:27Z</time>
      </trkpt>
      <trkpt lat="44.89362" lon="3.39794">
        <ele>1326</ele>
        <time>2019-05-01T10:46:46Z</time>
      </trkpt>
      <trkpt lat="44.89366" lon="3.39784">
        <ele>1326</ele>
        <time>2019-05-01T10:46:51Z</time>
      </trkpt>
      <trkpt lat="44.89372" lon="3.39726">
        <ele>1326</ele>
        <time>2019-05-01T10:47:12Z</time>
      </trkpt>
      <trkpt lat="44.89377" lon="3.39691">
        <ele>1325</ele>
        <time>2019-05-01T10:47:27Z</time>
      </trkpt>
      <trkpt lat="44.89378" lon="3.39665">
        <ele>1325</ele>
        <time>2019-05-01T10:47:38Z</time>
      </trkpt>
      <trkpt lat="44.89378" lon="3.39659">
        <ele>1325</ele>
        <time>2019-05-01T10:47:41Z</time>
      </trkpt>
      <trkpt lat="44.89379" lon="3.3965">
        <ele>1325</ele>
        <time>2019-05-01T10:47:45Z</time>
      </trkpt>
      <trkpt lat="44.89376" lon="3.39641">
        <ele>1325</ele>
        <time>2019-05-01T10:47:48Z</time>
      </trkpt>
      <trkpt lat="44.89376" lon="3.39636">
        <ele>1324</ele>
        <time>2019-05-01T10:47:51Z</time>
      </trkpt>
      <trkpt lat="44.89375" lon="3.39631">
        <ele>1324</ele>
        <time>2019-05-01T10:47:53Z</time>
      </trkpt>
      <trkpt lat="44.89373" lon="3.39627">
        <ele>1324</ele>
        <time>2019-05-01T10:47:54Z</time>
      </trkpt>
      <trkpt lat="44.89369" lon="3.39614">
        <ele>1324</ele>
        <time>2019-05-01T10:47:59Z</time>
      </trkpt>
      <trkpt lat="44.89351" lon="3.39557">
        <ele>1323</ele>
        <time>2019-05-01T10:48:25Z</time>
      </trkpt>
      <trkpt lat="44.89349" lon="3.39553">
        <ele>1323</ele>
        <time>2019-05-01T10:48:27Z</time>
      </trkpt>
      <trkpt lat="44.89348" lon="3.39549">
        <ele>1323</ele>
        <time>2019-05-01T10:48:29Z</time>
      </trkpt>
      <trkpt lat="44.89346" lon="3.39546">
        <ele>1323</ele>
        <time>2019-05-01T10:48:31Z</time>
      </trkpt>
      <trkpt lat="44.89307" lon="3.39488">
        <ele>1322</ele>
        <time>2019-05-01T10:49:02Z</time>
      </trkpt>
      <trkpt lat="44.89298" lon="3.39472">
        <ele>1322</ele>
        <time>2019-05-01T10:49:11Z</time>
      </trkpt>
      <trkpt lat="44.89296" lon="3.39468">
        <ele>1322</ele>
        <time>2019-05-01T10:49:13Z</time>
      </trkpt>
      <trkpt lat="44.89288" lon="3.39459">
        <ele>1322</ele>
        <time>2019-05-01T10:49:19Z</time>
      </trkpt>
      <trkpt lat="44.89275" lon="3.39439">
        <ele>1322</ele>
        <time>2019-05-01T10:49:29Z</time>
      </trkpt>
      <trkpt lat="44.89273" lon="3.39435">
        <ele>1322</ele>
        <time>2019-05-01T10:49:31Z</time>
      </trkpt>
      <trkpt lat="44.89256" lon="3.39394">
        <ele>1321</ele>
        <time>2019-05-01T10:49:52Z</time>
      </trkpt>
      <trkpt lat="44.89252" lon="3.3938">
        <ele>1321</ele>
        <time>2019-05-01T10:50:00Z</time>
      </trkpt>
      <trkpt lat="44.89234" lon="3.39334">
        <ele>1320</ele>
        <time>2019-05-01T10:50:21Z</time>
      </trkpt>
      <trkpt lat="44.8922" lon="3.39261">
        <ele>1318</ele>
        <time>2019-05-01T10:50:52Z</time>
      </trkpt>
      <trkpt lat="44.89217" lon="3.39238">
        <ele>1318</ele>
        <time>2019-05-01T10:51:02Z</time>
      </trkpt>
      <trkpt lat="44.89217" lon="3.39221">
        <ele>1318</ele>
        <time>2019-05-01T10:51:09Z</time>
      </trkpt>
      <trkpt lat="44.89211" lon="3.39198">
        <ele>1317</ele>
        <time>2019-05-01T10:51:21Z</time>
      </trkpt>
      <trkpt lat="44.89184" lon="3.39165">
        <ele>1316</ele>
        <time>2019-05-01T10:51:41Z</time>
      </trkpt>
      <trkpt lat="44.89181" lon="3.39162">
        <ele>1316</ele>
        <time>2019-05-01T10:51:43Z</time>
      </trkpt>
      <trkpt lat="44.89177" lon="3.3916">
        <ele>1316</ele>
        <time>2019-05-01T10:51:45Z</time>
      </trkpt>
      <trkpt lat="44.89174" lon="3.39157">
        <ele>1316</ele>
        <time>2019-05-01T10:51:47Z</time>
      </trkpt>
      <trkpt lat="44.8917" lon="3.39154">
        <ele>1316</ele>
        <time>2019-05-01T10:51:49Z</time>
      </trkpt>
      <trkpt lat="44.89165" lon="3.3915">
        <ele>1316</ele>
        <time>2019-05-01T10:51:51Z</time>
      </trkpt>
      <trkpt lat="44.89147" lon="3.39139">
        <ele>1315</ele>
        <time>2019-05-01T10:52:05Z</time>
      </trkpt>
      <trkpt lat="44.89138" lon="3.39136">
        <ele>1315</ele>
        <time>2019-05-01T10:52:09Z</time>
      </trkpt>
      <trkpt lat="44.89131" lon="3.39134">
        <ele>1315</ele>
        <time>2019-05-01T10:52:13Z</time>
      </trkpt>
      <trkpt lat="44.89127" lon="3.39133">
        <ele>1315</ele>
        <time>2019-05-01T10:52:15Z</time>
      </trkpt>
      <trkpt lat="44.89121" lon="3.39131">
        <ele>1315</ele>
        <time>2019-05-01T10:52:18Z</time>
      </trkpt>
      <trkpt lat="44.89118" lon="3.39129">
        <ele>1315</ele>
        <time>2019-05-01T10:52:20Z</time>
      </trkpt>
      <trkpt lat="44.89115" lon="3.39129">
        <ele>1314</ele>
        <time>2019-05-01T10:52:22Z</time>
      </trkpt>
      <trkpt lat="44.89113" lon="3.39125">
        <ele>1314</ele>
        <time>2019-05-01T10:52:25Z</time>
      </trkpt>
      <trkpt lat="44.89105" lon="3.39111">
        <ele>1314</ele>
        <time>2019-05-01T10:52:35Z</time>
      </trkpt>
      <trkpt lat="44.89103" lon="3.39107">
        <ele>1314</ele>
        <time>2019-05-01T10:52:37Z</time>
      </trkpt>
      <trkpt lat="44.891" lon="3.391">
        <ele>1314</ele>
        <time>2019-05-01T10:52:41Z</time>
      </trkpt>
      <trkpt lat="44.89094" lon="3.39085">
        <ele>1313</ele>
        <time>2019-05-01T10:52:49Z</time>
      </trkpt>
      <trkpt lat="44.89092" lon="3.39076">
        <ele>1313</ele>
        <time>2019-05-01T10:52:53Z</time>
      </trkpt>
      <trkpt lat="44.89091" lon="3.39072">
        <ele>1313</ele>
        <time>2019-05-01T10:52:55Z</time>
      </trkpt>
      <trkpt lat="44.89083" lon="3.39057">
        <ele>1312</ele>
        <time>2019-05-01T10:53:03Z</time>
      </trkpt>
      <trkpt lat="44.8908" lon="3.39054">
        <ele>1312</ele>
        <time>2019-05-01T10:53:05Z</time>
      </trkpt>
      <trkpt lat="44.89078" lon="3.39052">
        <ele>1312</ele>
        <time>2019-05-01T10:53:07Z</time>
      </trkpt>
      <trkpt lat="44.89073" lon="3.39042">
        <ele>1312</ele>
        <time>2019-05-01T10:53:13Z</time>
      </trkpt>
      <trkpt lat="44.89059" lon="3.39021">
        <ele>1311</ele>
        <time>2019-05-01T10:53:24Z</time>
      </trkpt>
      <trkpt lat="44.89055" lon="3.39019">
        <ele>1311</ele>
        <time>2019-05-01T10:53:27Z</time>
      </trkpt>
      <trkpt lat="44.89051" lon="3.39015">
        <ele>1311</ele>
        <time>2019-05-01T10:53:30Z</time>
      </trkpt>
      <trkpt lat="44.89045" lon="3.38992">
        <ele>1310</ele>
        <time>2019-05-01T10:53:39Z</time>
      </trkpt>
      <trkpt lat="44.89045" lon="3.38986">
        <ele>1310</ele>
        <time>2019-05-01T10:53:41Z</time>
      </trkpt>
      <trkpt lat="44.89046" lon="3.38972">
        <ele>1310</ele>
        <time>2019-05-01T10:53:45Z</time>
      </trkpt>
      <trkpt lat="44.89048" lon="3.38967">
        <ele>1310</ele>
        <time>2019-05-01T10:53:47Z</time>
      </trkpt>
      <trkpt lat="44.89052" lon="3.38963">
        <ele>1310</ele>
        <time>2019-05-01T10:53:49Z</time>
      </trkpt>
      <trkpt lat="44.89058" lon="3.38955">
        <ele>1310</ele>
        <time>2019-05-01T10:53:53Z</time>
      </trkpt>
      <trkpt lat="44.8906" lon="3.38952">
        <ele>1309</ele>
        <time>2019-05-01T10:53:55Z</time>
      </trkpt>
      <trkpt lat="44.8906" lon="3.38946">
        <ele>1309</ele>
        <time>2019-05-01T10:53:58Z</time>
      </trkpt>
      <trkpt lat="44.89056" lon="3.38931">
        <ele>1309</ele>
        <time>2019-05-01T10:54:05Z</time>
      </trkpt>
      <trkpt lat="44.89055" lon="3.38925">
        <ele>1308</ele>
        <time>2019-05-01T10:54:08Z</time>
      </trkpt>
      <trkpt lat="44.8905" lon="3.38909">
        <ele>1307</ele>
        <time>2019-05-01T10:54:16Z</time>
      </trkpt>
      <trkpt lat="44.89049" lon="3.38905">
        <ele>1307</ele>
        <time>2019-05-01T10:54:18Z</time>
      </trkpt>
      <trkpt lat="44.89048" lon="3.38899">
        <ele>1307</ele>
        <time>2019-05-01T10:54:20Z</time>
      </trkpt>
      <trkpt lat="44.8905" lon="3.38895">
        <ele>1306</ele>
        <time>2019-05-01T10:54:22Z</time>
      </trkpt>
      <trkpt lat="44.89056" lon="3.38882">
        <ele>1305</ele>
        <time>2019-05-01T10:54:28Z</time>
      </trkpt>
      <trkpt lat="44.89058" lon="3.38878">
        <ele>1305</ele>
        <time>2019-05-01T10:54:30Z</time>
      </trkpt>
      <trkpt lat="44.89058" lon="3.38873">
        <ele>1305</ele>
        <time>2019-05-01T10:54:33Z</time>
      </trkpt>
      <trkpt lat="44.89058" lon="3.38869">
        <ele>1304</ele>
        <time>2019-05-01T10:54:37Z</time>
      </trkpt>
      <trkpt lat="44.89061" lon="3.38865">
        <ele>1302</ele>
        <time>2019-05-01T10:54:39Z</time>
      </trkpt>
      <trkpt lat="44.89066" lon="3.38855">
        <ele>1300</ele>
        <time>2019-05-01T10:54:43Z</time>
      </trkpt>
      <trkpt lat="44.89068" lon="3.38852">
        <ele>1299</ele>
        <time>2019-05-01T10:54:44Z</time>
      </trkpt>
      <trkpt lat="44.89077" lon="3.38845">
        <ele>1297</ele>
        <time>2019-05-01T10:54:50Z</time>
      </trkpt>
      <trkpt lat="44.89082" lon="3.38839">
        <ele>1295</ele>
        <time>2019-05-01T10:54:55Z</time>
      </trkpt>
      <trkpt lat="44.89083" lon="3.38834">
        <ele>1293</ele>
        <time>2019-05-01T10:54:58Z</time>
      </trkpt>
      <trkpt lat="44.89084" lon="3.3883">
        <ele>1293</ele>
        <time>2019-05-01T10:55:00Z</time>
      </trkpt>
      <trkpt lat="44.89085" lon="3.38825">
        <ele>1291</ele>
        <time>2019-05-01T10:55:02Z</time>
      </trkpt>
      <trkpt lat="44.89101" lon="3.38809">
        <ele>1286</ele>
        <time>2019-05-01T10:55:15Z</time>
      </trkpt>
      <trkpt lat="44.89104" lon="3.38806">
        <ele>1285</ele>
        <time>2019-05-01T10:55:17Z</time>
      </trkpt>
      <trkpt lat="44.89107" lon="3.38804">
        <ele>1284</ele>
        <time>2019-05-01T10:55:19Z</time>
      </trkpt>
      <trkpt lat="44.89112" lon="3.38797">
        <ele>1282</ele>
        <time>2019-05-01T10:55:23Z</time>
      </trkpt>
      <trkpt lat="44.89115" lon="3.38792">
        <ele>1281</ele>
        <time>2019-05-01T10:55:25Z</time>
      </trkpt>
      <trkpt lat="44.89117" lon="3.38789">
        <ele>1281</ele>
        <time>2019-05-01T10:55:27Z</time>
      </trkpt>
      <trkpt lat="44.89127" lon="3.38767">
        <ele>1276</ele>
        <time>2019-05-01T10:55:39Z</time>
      </trkpt>
      <trkpt lat="44.89129" lon="3.38759">
        <ele>1275</ele>
        <time>2019-05-01T10:55:43Z</time>
      </trkpt>
      <trkpt lat="44.89138" lon="3.38738">
        <ele>1271</ele>
        <time>2019-05-01T10:55:55Z</time>
      </trkpt>
      <trkpt lat="44.89142" lon="3.38733">
        <ele>1270</ele>
        <time>2019-05-01T10:55:59Z</time>
      </trkpt>
      <trkpt lat="44.89144" lon="3.3873">
        <ele>1270</ele>
        <time>2019-05-01T10:56:01Z</time>
      </trkpt>
      <trkpt lat="44.89145" lon="3.38727">
        <ele>1269</ele>
        <time>2019-05-01T10:56:03Z</time>
      </trkpt>
      <trkpt lat="44.89148" lon="3.38724">
        <ele>1269</ele>
        <time>2019-05-01T10:56:05Z</time>
      </trkpt>
      <trkpt lat="44.89151" lon="3.38721">
        <ele>1268</ele>
        <time>2019-05-01T10:56:07Z</time>
      </trkpt>
      <trkpt lat="44.89161" lon="3.3871">
        <ele>1267</ele>
        <time>2019-05-01T10:56:12Z</time>
      </trkpt>
      <trkpt lat="44.89165" lon="3.38707">
        <ele>1266</ele>
        <time>2019-05-01T10:56:14Z</time>
      </trkpt>
      <trkpt lat="44.89169" lon="3.38698">
        <ele>1265</ele>
        <time>2019-05-01T10:56:18Z</time>
      </trkpt>
      <trkpt lat="44.89174" lon="3.38686">
        <ele>1264</ele>
        <time>2019-05-01T10:56:24Z</time>
      </trkpt>
      <trkpt lat="44.89176" lon="3.38683">
        <ele>1264</ele>
        <time>2019-05-01T10:56:26Z</time>
      </trkpt>
      <trkpt lat="44.89179" lon="3.38681">
        <ele>1263</ele>
        <time>2019-05-01T10:56:28Z</time>
      </trkpt>
      <trkpt lat="44.89181" lon="3.38679">
        <ele>1263</ele>
        <time>2019-05-01T10:56:30Z</time>
      </trkpt>
      <trkpt lat="44.89184" lon="3.38676">
        <ele>1262</ele>
        <time>2019-05-01T10:56:33Z</time>
      </trkpt>
      <trkpt lat="44.89187" lon="3.38674">
        <ele>1262</ele>
        <time>2019-05-01T10:56:35Z</time>
      </trkpt>
      <trkpt lat="44.89191" lon="3.38667">
        <ele>1261</ele>
        <time>2019-05-01T10:56:39Z</time>
      </trkpt>
      <trkpt lat="44.89193" lon="3.38663">
        <ele>1261</ele>
        <time>2019-05-01T10:56:41Z</time>
      </trkpt>
      <trkpt lat="44.89195" lon="3.3866">
        <ele>1260</ele>
        <time>2019-05-01T10:56:43Z</time>
      </trkpt>
      <trkpt lat="44.89201" lon="3.38654">
        <ele>1260</ele>
        <time>2019-05-01T10:56:47Z</time>
      </trkpt>
      <trkpt lat="44.89205" lon="3.38647">
        <ele>1259</ele>
        <time>2019-05-01T10:56:51Z</time>
      </trkpt>
      <trkpt lat="44.89211" lon="3.38636">
        <ele>1258</ele>
        <time>2019-05-01T10:56:57Z</time>
      </trkpt>
      <trkpt lat="44.89212" lon="3.38632">
        <ele>1258</ele>
        <time>2019-05-01T10:56:59Z</time>
      </trkpt>
      <trkpt lat="44.89216" lon="3.38622">
        <ele>1257</ele>
        <time>2019-05-01T10:57:04Z</time>
      </trkpt>
      <trkpt lat="44.89217" lon="3.38618">
        <ele>1257</ele>
        <time>2019-05-01T10:57:06Z</time>
      </trkpt>
      <trkpt lat="44.89218" lon="3.38614">
        <ele>1256</ele>
        <time>2019-05-01T10:57:08Z</time>
      </trkpt>
      <trkpt lat="44.8922" lon="3.3861">
        <ele>1256</ele>
        <time>2019-05-01T10:57:10Z</time>
      </trkpt>
      <trkpt lat="44.89225" lon="3.38592">
        <ele>1255</ele>
        <time>2019-05-01T10:57:20Z</time>
      </trkpt>
      <trkpt lat="44.89226" lon="3.38575">
        <ele>1254</ele>
        <time>2019-05-01T10:57:27Z</time>
      </trkpt>
      <trkpt lat="44.89228" lon="3.38571">
        <ele>1253</ele>
        <time>2019-05-01T10:57:29Z</time>
      </trkpt>
      <trkpt lat="44.89229" lon="3.38567">
        <ele>1253</ele>
        <time>2019-05-01T10:57:31Z</time>
      </trkpt>
      <trkpt lat="44.89231" lon="3.38564">
        <ele>1253</ele>
        <time>2019-05-01T10:57:33Z</time>
      </trkpt>
      <trkpt lat="44.89234" lon="3.38555">
        <ele>1252</ele>
        <time>2019-05-01T10:57:38Z</time>
      </trkpt>
      <trkpt lat="44.89237" lon="3.38551">
        <ele>1252</ele>
        <time>2019-05-01T10:57:41Z</time>
      </trkpt>
      <trkpt lat="44.89237" lon="3.38542">
        <ele>1252</ele>
        <time>2019-05-01T10:57:44Z</time>
      </trkpt>
      <trkpt lat="44.89238" lon="3.38517">
        <ele>1250</ele>
        <time>2019-05-01T10:57:57Z</time>
      </trkpt>
      <trkpt lat="44.89242" lon="3.38504">
        <ele>1249</ele>
        <time>2019-05-01T10:58:03Z</time>
      </trkpt>
      <trkpt lat="44.89243" lon="3.38499">
        <ele>1249</ele>
        <time>2019-05-01T10:58:05Z</time>
      </trkpt>
      <trkpt lat="44.89243" lon="3.38496">
        <ele>1249</ele>
        <time>2019-05-01T10:58:07Z</time>
      </trkpt>
      <trkpt lat="44.89244" lon="3.38492">
        <ele>1249</ele>
        <time>2019-05-01T10:58:09Z</time>
      </trkpt>
      <trkpt lat="44.89244" lon="3.38489">
        <ele>1249</ele>
        <time>2019-05-01T10:58:11Z</time>
      </trkpt>
      <trkpt lat="44.89244" lon="3.38485">
        <ele>1248</ele>
        <time>2019-05-01T10:58:13Z</time>
      </trkpt>
      <trkpt lat="44.89243" lon="3.38481">
        <ele>1248</ele>
        <time>2019-05-01T10:58:15Z</time>
      </trkpt>
      <trkpt lat="44.89244" lon="3.38469">
        <ele>1247</ele>
        <time>2019-05-01T10:58:22Z</time>
      </trkpt>
      <trkpt lat="44.89244" lon="3.38466">
        <ele>1247</ele>
        <time>2019-05-01T10:58:23Z</time>
      </trkpt>
      <trkpt lat="44.89244" lon="3.38464">
        <ele>1247</ele>
        <time>2019-05-01T10:58:24Z</time>
      </trkpt>
      <trkpt lat="44.89248" lon="3.38447">
        <ele>1247</ele>
        <time>2019-05-01T10:58:30Z</time>
      </trkpt>
      <trkpt lat="44.89255" lon="3.38427">
        <ele>1246</ele>
        <time>2019-05-01T10:58:39Z</time>
      </trkpt>
      <trkpt lat="44.89255" lon="3.38424">
        <ele>1245</ele>
        <time>2019-05-01T10:58:41Z</time>
      </trkpt>
      <trkpt lat="44.89259" lon="3.38409">
        <ele>1244</ele>
        <time>2019-05-01T10:58:52Z</time>
      </trkpt>
      <trkpt lat="44.89262" lon="3.38396">
        <ele>1244</ele>
        <time>2019-05-01T10:58:57Z</time>
      </trkpt>
      <trkpt lat="44.89275" lon="3.38383">
        <ele>1231</ele>
        <time>2019-05-01T11:13:02Z</time>
      </trkpt>
      <trkpt lat="44.89275" lon="3.38383">
        <ele>1231</ele>
        <time>2019-05-01T11:13:02Z</time>
      </trkpt>
      <trkpt lat="44.89266" lon="3.38382">
        <ele>1231</ele>
        <time>2019-05-01T11:13:06Z</time>
      </trkpt>
      <trkpt lat="44.89261" lon="3.38383">
        <ele>1231</ele>
        <time>2019-05-01T11:13:09Z</time>
      </trkpt>
      <trkpt lat="44.89253" lon="3.38375">
        <ele>1231</ele>
        <time>2019-05-01T11:13:15Z</time>
      </trkpt>
      <trkpt lat="44.89247" lon="3.38375">
        <ele>1231</ele>
        <time>2019-05-01T11:13:18Z</time>
      </trkpt>
      <trkpt lat="44.89244" lon="3.38375">
        <ele>1231</ele>
        <time>2019-05-01T11:13:20Z</time>
      </trkpt>
      <trkpt lat="44.89231" lon="3.38375">
        <ele>1231</ele>
        <time>2019-05-01T11:13:27Z</time>
      </trkpt>
      <trkpt lat="44.89218" lon="3.38372">
        <ele>1231</ele>
        <time>2019-05-01T11:13:35Z</time>
      </trkpt>
      <trkpt lat="44.89199" lon="3.38368">
        <ele>1231</ele>
        <time>2019-05-01T11:13:47Z</time>
      </trkpt>
      <trkpt lat="44.89198" lon="3.38362">
        <ele>1231</ele>
        <time>2019-05-01T11:13:52Z</time>
      </trkpt>
      <trkpt lat="44.89198" lon="3.38356">
        <ele>1231</ele>
        <time>2019-05-01T11:13:55Z</time>
      </trkpt>
      <trkpt lat="44.892" lon="3.38349">
        <ele>1231</ele>
        <time>2019-05-01T11:13:58Z</time>
      </trkpt>
      <trkpt lat="44.89206" lon="3.38335">
        <ele>1231</ele>
        <time>2019-05-01T11:14:05Z</time>
      </trkpt>
      <trkpt lat="44.89213" lon="3.38326">
        <ele>1231</ele>
        <time>2019-05-01T11:14:11Z</time>
      </trkpt>
      <trkpt lat="44.89216" lon="3.38322">
        <ele>1231</ele>
        <time>2019-05-01T11:14:13Z</time>
      </trkpt>
      <trkpt lat="44.89222" lon="3.3832">
        <ele>1231</ele>
        <time>2019-05-01T11:14:16Z</time>
      </trkpt>
      <trkpt lat="44.89225" lon="3.38318">
        <ele>1231</ele>
        <time>2019-05-01T11:14:18Z</time>
      </trkpt>
      <trkpt lat="44.89228" lon="3.38316">
        <ele>1231</ele>
        <time>2019-05-01T11:14:20Z</time>
      </trkpt>
      <trkpt lat="44.89231" lon="3.38315">
        <ele>1231</ele>
        <time>2019-05-01T11:14:22Z</time>
      </trkpt>
      <trkpt lat="44.89243" lon="3.383">
        <ele>1230</ele>
        <time>2019-05-01T11:14:30Z</time>
      </trkpt>
      <trkpt lat="44.89245" lon="3.38298">
        <ele>1230</ele>
        <time>2019-05-01T11:14:32Z</time>
      </trkpt>
      <trkpt lat="44.89248" lon="3.38294">
        <ele>1230</ele>
        <time>2019-05-01T11:14:34Z</time>
      </trkpt>
      <trkpt lat="44.89249" lon="3.3829">
        <ele>1230</ele>
        <time>2019-05-01T11:14:36Z</time>
      </trkpt>
      <trkpt lat="44.89255" lon="3.38284">
        <ele>1230</ele>
        <time>2019-05-01T11:14:41Z</time>
      </trkpt>
      <trkpt lat="44.89259" lon="3.38277">
        <ele>1230</ele>
        <time>2019-05-01T11:14:45Z</time>
      </trkpt>
      <trkpt lat="44.89261" lon="3.38274">
        <ele>1230</ele>
        <time>2019-05-01T11:14:48Z</time>
      </trkpt>
      <trkpt lat="44.89264" lon="3.38271">
        <ele>1230</ele>
        <time>2019-05-01T11:14:51Z</time>
      </trkpt>
      <trkpt lat="44.89263" lon="3.38267">
        <ele>1230</ele>
        <time>2019-05-01T11:14:53Z</time>
      </trkpt>
      <trkpt lat="44.89261" lon="3.38262">
        <ele>1230</ele>
        <time>2019-05-01T11:14:55Z</time>
      </trkpt>
      <trkpt lat="44.89258" lon="3.38258">
        <ele>1230</ele>
        <time>2019-05-01T11:14:57Z</time>
      </trkpt>
      <trkpt lat="44.89255" lon="3.38256">
        <ele>1230</ele>
        <time>2019-05-01T11:14:59Z</time>
      </trkpt>
      <trkpt lat="44.89232" lon="3.38237">
        <ele>1229</ele>
        <time>2019-05-01T11:15:16Z</time>
      </trkpt>
      <trkpt lat="44.89223" lon="3.38228">
        <ele>1229</ele>
        <time>2019-05-01T11:15:22Z</time>
      </trkpt>
      <trkpt lat="44.89213" lon="3.38212">
        <ele>1229</ele>
        <time>2019-05-01T11:15:32Z</time>
      </trkpt>
      <trkpt lat="44.89211" lon="3.38208">
        <ele>1229</ele>
        <time>2019-05-01T11:15:34Z</time>
      </trkpt>
      <trkpt lat="44.89197" lon="3.38196">
        <ele>1229</ele>
        <time>2019-05-01T11:15:44Z</time>
      </trkpt>
      <trkpt lat="44.89194" lon="3.38192">
        <ele>1229</ele>
        <time>2019-05-01T11:15:46Z</time>
      </trkpt>
      <trkpt lat="44.8919" lon="3.38185">
        <ele>1229</ele>
        <time>2019-05-01T11:15:50Z</time>
      </trkpt>
      <trkpt lat="44.89186" lon="3.38176">
        <ele>1229</ele>
        <time>2019-05-01T11:15:54Z</time>
      </trkpt>
      <trkpt lat="44.89185" lon="3.3817">
        <ele>1229</ele>
        <time>2019-05-01T11:15:56Z</time>
      </trkpt>
      <trkpt lat="44.89185" lon="3.38163">
        <ele>1229</ele>
        <time>2019-05-01T11:15:58Z</time>
      </trkpt>
      <trkpt lat="44.89186" lon="3.38157">
        <ele>1229</ele>
        <time>2019-05-01T11:16:00Z</time>
      </trkpt>
      <trkpt lat="44.89189" lon="3.38151">
        <ele>1228</ele>
        <time>2019-05-01T11:16:02Z</time>
      </trkpt>
      <trkpt lat="44.89197" lon="3.38142">
        <ele>1228</ele>
        <time>2019-05-01T11:16:08Z</time>
      </trkpt>
      <trkpt lat="44.89219" lon="3.38135">
        <ele>1228</ele>
        <time>2019-05-01T11:16:21Z</time>
      </trkpt>
      <trkpt lat="44.89222" lon="3.38131">
        <ele>1228</ele>
        <time>2019-05-01T11:16:24Z</time>
      </trkpt>
      <trkpt lat="44.89246" lon="3.38121">
        <ele>1228</ele>
        <time>2019-05-01T11:16:38Z</time>
      </trkpt>
      <trkpt lat="44.89251" lon="3.38119">
        <ele>1227</ele>
        <time>2019-05-01T11:16:41Z</time>
      </trkpt>
      <trkpt lat="44.8926" lon="3.38119">
        <ele>1227</ele>
        <time>2019-05-01T11:16:45Z</time>
      </trkpt>
      <trkpt lat="44.89264" lon="3.38117">
        <ele>1227</ele>
        <time>2019-05-01T11:16:48Z</time>
      </trkpt>
      <trkpt lat="44.89266" lon="3.38114">
        <ele>1227</ele>
        <time>2019-05-01T11:16:50Z</time>
      </trkpt>
      <trkpt lat="44.89268" lon="3.38112">
        <ele>1227</ele>
        <time>2019-05-01T11:16:52Z</time>
      </trkpt>
      <trkpt lat="44.89298" lon="3.38108">
        <ele>1227</ele>
        <time>2019-05-01T11:17:11Z</time>
      </trkpt>
      <trkpt lat="44.89326" lon="3.38097">
        <ele>1226</ele>
        <time>2019-05-01T11:17:35Z</time>
      </trkpt>
      <trkpt lat="44.89331" lon="3.38096">
        <ele>1226</ele>
        <time>2019-05-01T11:17:39Z</time>
      </trkpt>
      <trkpt lat="44.89338" lon="3.38094">
        <ele>1226</ele>
        <time>2019-05-01T11:17:43Z</time>
      </trkpt>
      <trkpt lat="44.8935" lon="3.38095">
        <ele>1226</ele>
        <time>2019-05-01T11:17:51Z</time>
      </trkpt>
      <trkpt lat="44.89367" lon="3.38088">
        <ele>1225</ele>
        <time>2019-05-01T11:18:01Z</time>
      </trkpt>
      <trkpt lat="44.89373" lon="3.38089">
        <ele>1225</ele>
        <time>2019-05-01T11:18:05Z</time>
      </trkpt>
      <trkpt lat="44.89382" lon="3.38088">
        <ele>1225</ele>
        <time>2019-05-01T11:18:10Z</time>
      </trkpt>
      <trkpt lat="44.89396" lon="3.38088">
        <ele>1224</ele>
        <time>2019-05-01T11:18:16Z</time>
      </trkpt>
      <trkpt lat="44.89408" lon="3.38086">
        <ele>1223</ele>
        <time>2019-05-01T11:18:24Z</time>
      </trkpt>
      <trkpt lat="44.89453" lon="3.38092">
        <ele>1219</ele>
        <time>2019-05-01T11:18:51Z</time>
      </trkpt>
      <trkpt lat="44.89461" lon="3.38091">
        <ele>1218</ele>
        <time>2019-05-01T11:18:54Z</time>
      </trkpt>
      <trkpt lat="44.89471" lon="3.38078">
        <ele>1217</ele>
        <time>2019-05-01T11:19:00Z</time>
      </trkpt>
      <trkpt lat="44.89475" lon="3.38077">
        <ele>1216</ele>
        <time>2019-05-01T11:19:03Z</time>
      </trkpt>
      <trkpt lat="44.89502" lon="3.381">
        <ele>1213</ele>
        <time>2019-05-01T11:19:18Z</time>
      </trkpt>
      <trkpt lat="44.89506" lon="3.38104">
        <ele>1212</ele>
        <time>2019-05-01T11:19:20Z</time>
      </trkpt>
      <trkpt lat="44.89509" lon="3.38108">
        <ele>1212</ele>
        <time>2019-05-01T11:19:22Z</time>
      </trkpt>
      <trkpt lat="44.89523" lon="3.38131">
        <ele>1209</ele>
        <time>2019-05-01T11:19:35Z</time>
      </trkpt>
      <trkpt lat="44.89559" lon="3.38147">
        <ele>1204</ele>
        <time>2019-05-01T11:19:54Z</time>
      </trkpt>
      <trkpt lat="44.89563" lon="3.3815">
        <ele>1203</ele>
        <time>2019-05-01T11:19:57Z</time>
      </trkpt>
      <trkpt lat="44.89578" lon="3.38165">
        <ele>1201</ele>
        <time>2019-05-01T11:20:05Z</time>
      </trkpt>
      <trkpt lat="44.89584" lon="3.38172">
        <ele>1199</ele>
        <time>2019-05-01T11:20:11Z</time>
      </trkpt>
      <trkpt lat="44.89608" lon="3.38192">
        <ele>1196</ele>
        <time>2019-05-01T11:20:27Z</time>
      </trkpt>
      <trkpt lat="44.8961" lon="3.38196">
        <ele>1195</ele>
        <time>2019-05-01T11:20:31Z</time>
      </trkpt>
      <trkpt lat="44.89612" lon="3.38201">
        <ele>1194</ele>
        <time>2019-05-01T11:20:34Z</time>
      </trkpt>
      <trkpt lat="44.8962" lon="3.38213">
        <ele>1193</ele>
        <time>2019-05-01T11:20:42Z</time>
      </trkpt>
      <trkpt lat="44.89629" lon="3.38217">
        <ele>1192</ele>
        <time>2019-05-01T11:20:46Z</time>
      </trkpt>
      <trkpt lat="44.89634" lon="3.38217">
        <ele>1192</ele>
        <time>2019-05-01T11:20:49Z</time>
      </trkpt>
      <trkpt lat="44.8964" lon="3.38224">
        <ele>1191</ele>
        <time>2019-05-01T11:20:55Z</time>
      </trkpt>
      <trkpt lat="44.89651" lon="3.38225">
        <ele>1190</ele>
        <time>2019-05-01T11:20:59Z</time>
      </trkpt>
      <trkpt lat="44.89657" lon="3.38225">
        <ele>1190</ele>
        <time>2019-05-01T11:21:02Z</time>
      </trkpt>
      <trkpt lat="44.89668" lon="3.3823">
        <ele>1189</ele>
        <time>2019-05-01T11:21:08Z</time>
      </trkpt>
      <trkpt lat="44.89672" lon="3.38231">
        <ele>1189</ele>
        <time>2019-05-01T11:21:10Z</time>
      </trkpt>
      <trkpt lat="44.89684" lon="3.38238">
        <ele>1188</ele>
        <time>2019-05-01T11:21:19Z</time>
      </trkpt>
      <trkpt lat="44.8969" lon="3.38241">
        <ele>1187</ele>
        <time>2019-05-01T11:21:23Z</time>
      </trkpt>
      <trkpt lat="44.89725" lon="3.38256">
        <ele>1186</ele>
        <time>2019-05-01T11:21:41Z</time>
      </trkpt>
      <trkpt lat="44.89733" lon="3.38262">
        <ele>1185</ele>
        <time>2019-05-01T11:21:46Z</time>
      </trkpt>
      <trkpt lat="44.89745" lon="3.38268">
        <ele>1185</ele>
        <time>2019-05-01T11:21:53Z</time>
      </trkpt>
      <trkpt lat="44.89748" lon="3.38271">
        <ele>1185</ele>
        <time>2019-05-01T11:21:57Z</time>
      </trkpt>
      <trkpt lat="44.8975" lon="3.38276">
        <ele>1184</ele>
        <time>2019-05-01T11:22:01Z</time>
      </trkpt>
      <trkpt lat="44.89752" lon="3.38283">
        <ele>1184</ele>
        <time>2019-05-01T11:22:05Z</time>
      </trkpt>
      <trkpt lat="44.89754" lon="3.38287">
        <ele>1184</ele>
        <time>2019-05-01T11:22:08Z</time>
      </trkpt>
      <trkpt lat="44.89764" lon="3.38294">
        <ele>1184</ele>
        <time>2019-05-01T11:22:14Z</time>
      </trkpt>
      <trkpt lat="44.89794" lon="3.38305">
        <ele>1183</ele>
        <time>2019-05-01T11:22:32Z</time>
      </trkpt>
      <trkpt lat="44.89797" lon="3.38307">
        <ele>1183</ele>
        <time>2019-05-01T11:22:36Z</time>
      </trkpt>
      <trkpt lat="44.89851" lon="3.38323">
        <ele>1181</ele>
        <time>2019-05-01T11:23:07Z</time>
      </trkpt>
      <trkpt lat="44.89865" lon="3.38324">
        <ele>1181</ele>
        <time>2019-05-01T11:23:18Z</time>
      </trkpt>
      <trkpt lat="44.89897" lon="3.38318">
        <ele>1180</ele>
        <time>2019-05-01T11:24:12Z</time>
      </trkpt>
      <trkpt lat="44.89899" lon="3.38314">
        <ele>1180</ele>
        <time>2019-05-01T11:24:30Z</time>
      </trkpt>
      <trkpt lat="44.89903" lon="3.38313">
        <ele>1180</ele>
        <time>2019-05-01T11:24:35Z</time>
      </trkpt>
      <trkpt lat="44.89907" lon="3.38318">
        <ele>1179</ele>
        <time>2019-05-01T11:24:42Z</time>
      </trkpt>
      <trkpt lat="44.8992" lon="3.38322">
        <ele>1179</ele>
        <time>2019-05-01T11:24:50Z</time>
      </trkpt>
      <trkpt lat="44.89929" lon="3.38321">
        <ele>1179</ele>
        <time>2019-05-01T11:24:53Z</time>
      </trkpt>
      <trkpt lat="44.89934" lon="3.38313">
        <ele>1178</ele>
        <time>2019-05-01T11:24:56Z</time>
      </trkpt>
      <trkpt lat="44.89937" lon="3.383">
        <ele>1178</ele>
        <time>2019-05-01T11:25:00Z</time>
      </trkpt>
      <trkpt lat="44.89938" lon="3.38295">
        <ele>1178</ele>
        <time>2019-05-01T11:25:02Z</time>
      </trkpt>
      <trkpt lat="44.89943" lon="3.38286">
        <ele>1178</ele>
        <time>2019-05-01T11:25:06Z</time>
      </trkpt>
      <trkpt lat="44.89944" lon="3.38282">
        <ele>1178</ele>
        <time>2019-05-01T11:25:08Z</time>
      </trkpt>
      <trkpt lat="44.89943" lon="3.38272">
        <ele>1178</ele>
        <time>2019-05-01T11:25:12Z</time>
      </trkpt>
      <trkpt lat="44.89941" lon="3.38261">
        <ele>1177</ele>
        <time>2019-05-01T11:25:17Z</time>
      </trkpt>
      <trkpt lat="44.89941" lon="3.38258">
        <ele>1177</ele>
        <time>2019-05-01T11:25:19Z</time>
      </trkpt>
      <trkpt lat="44.89939" lon="3.38254">
        <ele>1177</ele>
        <time>2019-05-01T11:25:21Z</time>
      </trkpt>
      <trkpt lat="44.89927" lon="3.38238">
        <ele>1177</ele>
        <time>2019-05-01T11:25:31Z</time>
      </trkpt>
      <trkpt lat="44.89926" lon="3.38232">
        <ele>1177</ele>
        <time>2019-05-01T11:25:34Z</time>
      </trkpt>
      <trkpt lat="44.89929" lon="3.38227">
        <ele>1177</ele>
        <time>2019-05-01T11:25:36Z</time>
      </trkpt>
      <trkpt lat="44.89932" lon="3.38224">
        <ele>1177</ele>
        <time>2019-05-01T11:25:38Z</time>
      </trkpt>
      <trkpt lat="44.89937" lon="3.38217">
        <ele>1177</ele>
        <time>2019-05-01T11:25:42Z</time>
      </trkpt>
      <trkpt lat="44.89939" lon="3.38213">
        <ele>1177</ele>
        <time>2019-05-01T11:25:44Z</time>
      </trkpt>
      <trkpt lat="44.8994" lon="3.38209">
        <ele>1177</ele>
        <time>2019-05-01T11:25:46Z</time>
      </trkpt>
      <trkpt lat="44.89946" lon="3.38202">
        <ele>1177</ele>
        <time>2019-05-01T11:25:50Z</time>
      </trkpt>
      <trkpt lat="44.89951" lon="3.38194">
        <ele>1177</ele>
        <time>2019-05-01T11:25:54Z</time>
      </trkpt>
      <trkpt lat="44.89955" lon="3.3819">
        <ele>1177</ele>
        <time>2019-05-01T11:25:56Z</time>
      </trkpt>
      <trkpt lat="44.89958" lon="3.38186">
        <ele>1177</ele>
        <time>2019-05-01T11:25:58Z</time>
      </trkpt>
      <trkpt lat="44.89964" lon="3.3818">
        <ele>1177</ele>
        <time>2019-05-01T11:26:02Z</time>
      </trkpt>
      <trkpt lat="44.89979" lon="3.38167">
        <ele>1177</ele>
        <time>2019-05-01T11:26:12Z</time>
      </trkpt>
      <trkpt lat="44.89987" lon="3.38157">
        <ele>1177</ele>
        <time>2019-05-01T11:26:18Z</time>
      </trkpt>
      <trkpt lat="44.89989" lon="3.38154">
        <ele>1177</ele>
        <time>2019-05-01T11:26:20Z</time>
      </trkpt>
      <trkpt lat="44.89992" lon="3.38152">
        <ele>1177</ele>
        <time>2019-05-01T11:26:22Z</time>
      </trkpt>
      <trkpt lat="44.89994" lon="3.38147">
        <ele>1177</ele>
        <time>2019-05-01T11:26:24Z</time>
      </trkpt>
      <trkpt lat="44.90012" lon="3.38116">
        <ele>1177</ele>
        <time>2019-05-01T11:26:40Z</time>
      </trkpt>
      <trkpt lat="44.90015" lon="3.38112">
        <ele>1177</ele>
        <time>2019-05-01T11:26:42Z</time>
      </trkpt>
      <trkpt lat="44.90023" lon="3.38106">
        <ele>1177</ele>
        <time>2019-05-01T11:26:47Z</time>
      </trkpt>
      <trkpt lat="44.90026" lon="3.38104">
        <ele>1177</ele>
        <time>2019-05-01T11:26:49Z</time>
      </trkpt>
      <trkpt lat="44.90029" lon="3.38102">
        <ele>1177</ele>
        <time>2019-05-01T11:26:51Z</time>
      </trkpt>
      <trkpt lat="44.90048" lon="3.38072">
        <ele>1177</ele>
        <time>2019-05-01T11:27:06Z</time>
      </trkpt>
      <trkpt lat="44.90051" lon="3.38059">
        <ele>1177</ele>
        <time>2019-05-01T11:27:12Z</time>
      </trkpt>
      <trkpt lat="44.90059" lon="3.38034">
        <ele>1177</ele>
        <time>2019-05-01T11:27:24Z</time>
      </trkpt>
      <trkpt lat="44.90061" lon="3.38014">
        <ele>1177</ele>
        <time>2019-05-01T11:27:33Z</time>
      </trkpt>
      <trkpt lat="44.90061" lon="3.38002">
        <ele>1177</ele>
        <time>2019-05-01T11:27:37Z</time>
      </trkpt>
      <trkpt lat="44.9006" lon="3.37997">
        <ele>1177</ele>
        <time>2019-05-01T11:27:39Z</time>
      </trkpt>
      <trkpt lat="44.90059" lon="3.37989">
        <ele>1177</ele>
        <time>2019-05-01T11:27:42Z</time>
      </trkpt>
      <trkpt lat="44.90054" lon="3.37983">
        <ele>1177</ele>
        <time>2019-05-01T11:27:44Z</time>
      </trkpt>
      <trkpt lat="44.90049" lon="3.37977">
        <ele>1178</ele>
        <time>2019-05-01T11:27:48Z</time>
      </trkpt>
      <trkpt lat="44.90048" lon="3.37972">
        <ele>1178</ele>
        <time>2019-05-01T11:27:51Z</time>
      </trkpt>
      <trkpt lat="44.90046" lon="3.37966">
        <ele>1178</ele>
        <time>2019-05-01T11:27:55Z</time>
      </trkpt>
      <trkpt lat="44.90045" lon="3.37954">
        <ele>1178</ele>
        <time>2019-05-01T11:28:00Z</time>
      </trkpt>
      <trkpt lat="44.90046" lon="3.37927">
        <ele>1178</ele>
        <time>2019-05-01T11:28:12Z</time>
      </trkpt>
      <trkpt lat="44.90047" lon="3.37919">
        <ele>1178</ele>
        <time>2019-05-01T11:28:15Z</time>
      </trkpt>
      <trkpt lat="44.90052" lon="3.379">
        <ele>1178</ele>
        <time>2019-05-01T11:28:25Z</time>
      </trkpt>
      <trkpt lat="44.90053" lon="3.37894">
        <ele>1178</ele>
        <time>2019-05-01T11:28:29Z</time>
      </trkpt>
      <trkpt lat="44.90056" lon="3.37883">
        <ele>1178</ele>
        <time>2019-05-01T11:28:35Z</time>
      </trkpt>
      <trkpt lat="44.90058" lon="3.37839">
        <ele>1179</ele>
        <time>2019-05-01T11:28:54Z</time>
      </trkpt>
      <trkpt lat="44.90059" lon="3.37835">
        <ele>1179</ele>
        <time>2019-05-01T11:28:56Z</time>
      </trkpt>
      <trkpt lat="44.90061" lon="3.3783">
        <ele>1179</ele>
        <time>2019-05-01T11:28:59Z</time>
      </trkpt>
      <trkpt lat="44.90055" lon="3.3779">
        <ele>1179</ele>
        <time>2019-05-01T11:29:12Z</time>
      </trkpt>
      <trkpt lat="44.90054" lon="3.37783">
        <ele>1179</ele>
        <time>2019-05-01T11:29:15Z</time>
      </trkpt>
      <trkpt lat="44.90053" lon="3.37774">
        <ele>1179</ele>
        <time>2019-05-01T11:29:18Z</time>
      </trkpt>
      <trkpt lat="44.90051" lon="3.37765">
        <ele>1179</ele>
        <time>2019-05-01T11:29:21Z</time>
      </trkpt>
      <trkpt lat="44.90046" lon="3.37751">
        <ele>1179</ele>
        <time>2019-05-01T11:29:29Z</time>
      </trkpt>
      <trkpt lat="44.90039" lon="3.37746">
        <ele>1179</ele>
        <time>2019-05-01T11:29:35Z</time>
      </trkpt>
      <trkpt lat="44.90036" lon="3.37738">
        <ele>1179</ele>
        <time>2019-05-01T11:29:39Z</time>
      </trkpt>
      <trkpt lat="44.9002" lon="3.37707">
        <ele>1180</ele>
        <time>2019-05-01T11:29:57Z</time>
      </trkpt>
      <trkpt lat="44.90008" lon="3.3769">
        <ele>1180</ele>
        <time>2019-05-01T11:30:08Z</time>
      </trkpt>
      <trkpt lat="44.90002" lon="3.37684">
        <ele>1180</ele>
        <time>2019-05-01T11:30:12Z</time>
      </trkpt>
      <trkpt lat="44.89986" lon="3.37654">
        <ele>1181</ele>
        <time>2019-05-01T11:30:28Z</time>
      </trkpt>
      <trkpt lat="44.89984" lon="3.3765">
        <ele>1181</ele>
        <time>2019-05-01T11:30:30Z</time>
      </trkpt>
      <trkpt lat="44.89982" lon="3.37645">
        <ele>1181</ele>
        <time>2019-05-01T11:30:32Z</time>
      </trkpt>
      <trkpt lat="44.8998" lon="3.37638">
        <ele>1181</ele>
        <time>2019-05-01T11:30:35Z</time>
      </trkpt>
      <trkpt lat="44.89982" lon="3.37634">
        <ele>1181</ele>
        <time>2019-05-01T11:30:40Z</time>
      </trkpt>
      <trkpt lat="44.89987" lon="3.37633">
        <ele>1181</ele>
        <time>2019-05-01T11:30:44Z</time>
      </trkpt>
      <trkpt lat="44.90002" lon="3.37638">
        <ele>1181</ele>
        <time>2019-05-01T11:30:57Z</time>
      </trkpt>
      <trkpt lat="44.90007" lon="3.37644">
        <ele>1182</ele>
        <time>2019-05-01T11:31:04Z</time>
      </trkpt>
      <trkpt lat="44.90014" lon="3.3765">
        <ele>1182</ele>
        <time>2019-05-01T11:31:12Z</time>
      </trkpt>
      <trkpt lat="44.90018" lon="3.37659">
        <ele>1182</ele>
        <time>2019-05-01T11:31:15Z</time>
      </trkpt>
      <trkpt lat="44.90029" lon="3.37659">
        <ele>1182</ele>
        <time>2019-05-01T11:31:22Z</time>
      </trkpt>
      <trkpt lat="44.90031" lon="3.37662">
        <ele>1182</ele>
        <time>2019-05-01T11:32:35Z</time>
      </trkpt>
      <trkpt lat="44.90035" lon="3.37662">
        <ele>1183</ele>
        <time>2019-05-01T11:32:52Z</time>
      </trkpt>
      <trkpt lat="44.90039" lon="3.37664">
        <ele>1183</ele>
        <time>2019-05-01T11:32:54Z</time>
      </trkpt>
      <trkpt lat="44.90046" lon="3.37668">
        <ele>1183</ele>
        <time>2019-05-01T11:32:57Z</time>
      </trkpt>
      <trkpt lat="44.90051" lon="3.37668">
        <ele>1184</ele>
        <time>2019-05-01T11:33:00Z</time>
      </trkpt>
      <trkpt lat="44.90057" lon="3.37666">
        <ele>1184</ele>
        <time>2019-05-01T11:33:05Z</time>
      </trkpt>
      <trkpt lat="44.90071" lon="3.3767">
        <ele>1184</ele>
        <time>2019-05-01T11:33:12Z</time>
      </trkpt>
      <trkpt lat="44.90075" lon="3.37671">
        <ele>1184</ele>
        <time>2019-05-01T11:33:15Z</time>
      </trkpt>
      <trkpt lat="44.90093" lon="3.37676">
        <ele>1184</ele>
        <time>2019-05-01T11:33:26Z</time>
      </trkpt>
      <trkpt lat="44.90097" lon="3.37676">
        <ele>1185</ele>
        <time>2019-05-01T11:33:30Z</time>
      </trkpt>
      <trkpt lat="44.90101" lon="3.37677">
        <ele>1185</ele>
        <time>2019-05-01T11:33:33Z</time>
      </trkpt>
      <trkpt lat="44.90114" lon="3.37677">
        <ele>1185</ele>
        <time>2019-05-01T11:33:39Z</time>
      </trkpt>
      <trkpt lat="44.90132" lon="3.37678">
        <ele>1185</ele>
        <time>2019-05-01T11:33:49Z</time>
      </trkpt>
      <trkpt lat="44.90138" lon="3.37675">
        <ele>1185</ele>
        <time>2019-05-01T11:33:53Z</time>
      </trkpt>
      <trkpt lat="44.90168" lon="3.37669">
        <ele>1185</ele>
        <time>2019-05-01T11:34:13Z</time>
      </trkpt>
      <trkpt lat="44.90186" lon="3.37658">
        <ele>1186</ele>
        <time>2019-05-01T11:34:26Z</time>
      </trkpt>
      <trkpt lat="44.90194" lon="3.37653">
        <ele>1186</ele>
        <time>2019-05-01T11:34:48Z</time>
      </trkpt>
      <trkpt lat="44.90195" lon="3.37647">
        <ele>1186</ele>
        <time>2019-05-01T11:34:51Z</time>
      </trkpt>
      <trkpt lat="44.90198" lon="3.37642">
        <ele>1186</ele>
        <time>2019-05-01T11:34:55Z</time>
      </trkpt>
      <trkpt lat="44.902" lon="3.37635">
        <ele>1186</ele>
        <time>2019-05-01T11:34:59Z</time>
      </trkpt>
      <trkpt lat="44.90215" lon="3.37609">
        <ele>1187</ele>
        <time>2019-05-01T11:35:12Z</time>
      </trkpt>
      <trkpt lat="44.90218" lon="3.37605">
        <ele>1187</ele>
        <time>2019-05-01T11:35:14Z</time>
      </trkpt>
      <trkpt lat="44.90222" lon="3.37594">
        <ele>1187</ele>
        <time>2019-05-01T11:35:19Z</time>
      </trkpt>
      <trkpt lat="44.90225" lon="3.3759">
        <ele>1187</ele>
        <time>2019-05-01T11:35:22Z</time>
      </trkpt>
      <trkpt lat="44.90227" lon="3.37584">
        <ele>1187</ele>
        <time>2019-05-01T11:35:25Z</time>
      </trkpt>
      <trkpt lat="44.9023" lon="3.37573">
        <ele>1187</ele>
        <time>2019-05-01T11:35:30Z</time>
      </trkpt>
      <trkpt lat="44.90232" lon="3.3756">
        <ele>1187</ele>
        <time>2019-05-01T11:35:35Z</time>
      </trkpt>
      <trkpt lat="44.90232" lon="3.37554">
        <ele>1187</ele>
        <time>2019-05-01T11:35:38Z</time>
      </trkpt>
      <trkpt lat="44.90232" lon="3.37548">
        <ele>1187</ele>
        <time>2019-05-01T11:35:40Z</time>
      </trkpt>
      <trkpt lat="44.90231" lon="3.37539">
        <ele>1188</ele>
        <time>2019-05-01T11:35:44Z</time>
      </trkpt>
      <trkpt lat="44.90228" lon="3.37532">
        <ele>1188</ele>
        <time>2019-05-01T11:35:50Z</time>
      </trkpt>
      <trkpt lat="44.90222" lon="3.37532">
        <ele>1188</ele>
        <time>2019-05-01T11:35:53Z</time>
      </trkpt>
      <trkpt lat="44.90219" lon="3.3753">
        <ele>1188</ele>
        <time>2019-05-01T11:35:55Z</time>
      </trkpt>
      <trkpt lat="44.90215" lon="3.37529">
        <ele>1188</ele>
        <time>2019-05-01T11:35:57Z</time>
      </trkpt>
      <trkpt lat="44.90204" lon="3.37522">
        <ele>1188</ele>
        <time>2019-05-01T11:36:03Z</time>
      </trkpt>
      <trkpt lat="44.90187" lon="3.37518">
        <ele>1189</ele>
        <time>2019-05-01T11:36:13Z</time>
      </trkpt>
      <trkpt lat="44.90182" lon="3.37516">
        <ele>1189</ele>
        <time>2019-05-01T11:36:15Z</time>
      </trkpt>
      <trkpt lat="44.90177" lon="3.37517">
        <ele>1189</ele>
        <time>2019-05-01T11:36:17Z</time>
      </trkpt>
      <trkpt lat="44.90173" lon="3.37515">
        <ele>1189</ele>
        <time>2019-05-01T11:36:20Z</time>
      </trkpt>
      <trkpt lat="44.90164" lon="3.37512">
        <ele>1189</ele>
        <time>2019-05-01T11:36:26Z</time>
      </trkpt>
      <trkpt lat="44.90159" lon="3.3751">
        <ele>1190</ele>
        <time>2019-05-01T11:36:30Z</time>
      </trkpt>
      <trkpt lat="44.9016" lon="3.37503">
        <ele>1190</ele>
        <time>2019-05-01T11:36:36Z</time>
      </trkpt>
      <trkpt lat="44.90168" lon="3.37497">
        <ele>1190</ele>
        <time>2019-05-01T11:36:41Z</time>
      </trkpt>
      <trkpt lat="44.90203" lon="3.37461">
        <ele>1192</ele>
        <time>2019-05-01T11:37:09Z</time>
      </trkpt>
      <trkpt lat="44.90207" lon="3.37455">
        <ele>1192</ele>
        <time>2019-05-01T11:37:12Z</time>
      </trkpt>
      <trkpt lat="44.9021" lon="3.37452">
        <ele>1192</ele>
        <time>2019-05-01T11:37:14Z</time>
      </trkpt>
      <trkpt lat="44.90216" lon="3.37438">
        <ele>1193</ele>
        <time>2019-05-01T11:37:21Z</time>
      </trkpt>
      <trkpt lat="44.90218" lon="3.37432">
        <ele>1193</ele>
        <time>2019-05-01T11:37:24Z</time>
      </trkpt>
      <trkpt lat="44.90223" lon="3.37422">
        <ele>1193</ele>
        <time>2019-05-01T11:37:32Z</time>
      </trkpt>
      <trkpt lat="44.90225" lon="3.37418">
        <ele>1194</ele>
        <time>2019-05-01T11:37:34Z</time>
      </trkpt>
      <trkpt lat="44.90231" lon="3.37412">
        <ele>1194</ele>
        <time>2019-05-01T11:37:38Z</time>
      </trkpt>
      <trkpt lat="44.90269" lon="3.37373">
        <ele>1197</ele>
        <time>2019-05-01T11:38:09Z</time>
      </trkpt>
      <trkpt lat="44.90274" lon="3.37369">
        <ele>1197</ele>
        <time>2019-05-01T11:38:12Z</time>
      </trkpt>
      <trkpt lat="44.90285" lon="3.37359">
        <ele>1197</ele>
        <time>2019-05-01T11:38:18Z</time>
      </trkpt>
      <trkpt lat="44.9029" lon="3.37355">
        <ele>1198</ele>
        <time>2019-05-01T11:38:22Z</time>
      </trkpt>
      <trkpt lat="44.90299" lon="3.37342">
        <ele>1198</ele>
        <time>2019-05-01T11:38:30Z</time>
      </trkpt>
      <trkpt lat="44.90302" lon="3.37335">
        <ele>1199</ele>
        <time>2019-05-01T11:38:35Z</time>
      </trkpt>
      <trkpt lat="44.90307" lon="3.37331">
        <ele>1199</ele>
        <time>2019-05-01T11:38:40Z</time>
      </trkpt>
      <trkpt lat="44.90318" lon="3.3732">
        <ele>1200</ele>
        <time>2019-05-01T11:38:49Z</time>
      </trkpt>
      <trkpt lat="44.90324" lon="3.37317">
        <ele>1201</ele>
        <time>2019-05-01T11:38:54Z</time>
      </trkpt>
      <trkpt lat="44.9033" lon="3.37311">
        <ele>1201</ele>
        <time>2019-05-01T11:38:59Z</time>
      </trkpt>
      <trkpt lat="44.9034" lon="3.37302">
        <ele>1203</ele>
        <time>2019-05-01T11:39:06Z</time>
      </trkpt>
      <trkpt lat="44.90346" lon="3.37298">
        <ele>1203</ele>
        <time>2019-05-01T11:39:10Z</time>
      </trkpt>
      <trkpt lat="44.90378" lon="3.37269">
        <ele>1209</ele>
        <time>2019-05-01T11:39:33Z</time>
      </trkpt>
      <trkpt lat="44.90386" lon="3.37259">
        <ele>1211</ele>
        <time>2019-05-01T11:39:41Z</time>
      </trkpt>
      <trkpt lat="44.9039" lon="3.37256">
        <ele>1211</ele>
        <time>2019-05-01T11:39:44Z</time>
      </trkpt>
      <trkpt lat="44.90422" lon="3.37222">
        <ele>1217</ele>
        <time>2019-05-01T11:40:10Z</time>
      </trkpt>
      <trkpt lat="44.90429" lon="3.37217">
        <ele>1218</ele>
        <time>2019-05-01T11:40:15Z</time>
      </trkpt>
      <trkpt lat="44.90434" lon="3.37211">
        <ele>1219</ele>
        <time>2019-05-01T11:40:19Z</time>
      </trkpt>
      <trkpt lat="44.9045" lon="3.37196">
        <ele>1221</ele>
        <time>2019-05-01T11:40:29Z</time>
      </trkpt>
      <trkpt lat="44.90456" lon="3.37187">
        <ele>1222</ele>
        <time>2019-05-01T11:40:33Z</time>
      </trkpt>
      <trkpt lat="44.90459" lon="3.37184">
        <ele>1222</ele>
        <time>2019-05-01T11:40:35Z</time>
      </trkpt>
      <trkpt lat="44.90465" lon="3.37178">
        <ele>1223</ele>
        <time>2019-05-01T11:40:39Z</time>
      </trkpt>
      <trkpt lat="44.90473" lon="3.37169">
        <ele>1224</ele>
        <time>2019-05-01T11:40:46Z</time>
      </trkpt>
      <trkpt lat="44.90478" lon="3.37158">
        <ele>1225</ele>
        <time>2019-05-01T11:40:52Z</time>
      </trkpt>
      <trkpt lat="44.9048" lon="3.37154">
        <ele>1226</ele>
        <time>2019-05-01T11:40:54Z</time>
      </trkpt>
      <trkpt lat="44.90481" lon="3.37149">
        <ele>1226</ele>
        <time>2019-05-01T11:40:56Z</time>
      </trkpt>
      <trkpt lat="44.90482" lon="3.37145">
        <ele>1226</ele>
        <time>2019-05-01T11:40:58Z</time>
      </trkpt>
      <trkpt lat="44.90484" lon="3.37136">
        <ele>1227</ele>
        <time>2019-05-01T11:41:02Z</time>
      </trkpt>
      <trkpt lat="44.90486" lon="3.37116">
        <ele>1228</ele>
        <time>2019-05-01T11:41:10Z</time>
      </trkpt>
      <trkpt lat="44.90486" lon="3.3711">
        <ele>1229</ele>
        <time>2019-05-01T11:41:12Z</time>
      </trkpt>
      <trkpt lat="44.90488" lon="3.37101">
        <ele>1229</ele>
        <time>2019-05-01T11:41:16Z</time>
      </trkpt>
      <trkpt lat="44.90488" lon="3.37096">
        <ele>1229</ele>
        <time>2019-05-01T11:41:18Z</time>
      </trkpt>
      <trkpt lat="44.9049" lon="3.37093">
        <ele>1230</ele>
        <time>2019-05-01T11:41:20Z</time>
      </trkpt>
      <trkpt lat="44.90489" lon="3.37088">
        <ele>1230</ele>
        <time>2019-05-01T11:41:22Z</time>
      </trkpt>
      <trkpt lat="44.90487" lon="3.37085">
        <ele>1230</ele>
        <time>2019-05-01T11:41:25Z</time>
      </trkpt>
      <trkpt lat="44.90487" lon="3.37076">
        <ele>1231</ele>
        <time>2019-05-01T11:41:31Z</time>
      </trkpt>
      <trkpt lat="44.90488" lon="3.37071">
        <ele>1231</ele>
        <time>2019-05-01T11:41:34Z</time>
      </trkpt>
      <trkpt lat="44.90494" lon="3.37066">
        <ele>1232</ele>
        <time>2019-05-01T11:41:38Z</time>
      </trkpt>
      <trkpt lat="44.90497" lon="3.37065">
        <ele>1232</ele>
        <time>2019-05-01T11:41:40Z</time>
      </trkpt>
      <trkpt lat="44.905" lon="3.37062">
        <ele>1232</ele>
        <time>2019-05-01T11:41:42Z</time>
      </trkpt>
      <trkpt lat="44.90513" lon="3.37049">
        <ele>1234</ele>
        <time>2019-05-01T11:41:52Z</time>
      </trkpt>
      <trkpt lat="44.90516" lon="3.37048">
        <ele>1234</ele>
        <time>2019-05-01T11:41:54Z</time>
      </trkpt>
      <trkpt lat="44.90529" lon="3.3705">
        <ele>1235</ele>
        <time>2019-05-01T11:42:04Z</time>
      </trkpt>
      <trkpt lat="44.90528" lon="3.3705">
        <ele>1237</ele>
        <time>2019-05-01T11:42:36Z</time>
      </trkpt>
      <trkpt lat="44.90529" lon="3.37048">
        <ele>1238</ele>
        <time>2019-05-01T11:42:46Z</time>
      </trkpt>
      <trkpt lat="44.90541" lon="3.37054">
        <ele>1238</ele>
        <time>2019-05-01T11:42:54Z</time>
      </trkpt>
      <trkpt lat="44.90553" lon="3.37057">
        <ele>1241</ele>
        <time>2019-05-01T11:43:03Z</time>
      </trkpt>
      <trkpt lat="44.90561" lon="3.37061">
        <ele>1242</ele>
        <time>2019-05-01T11:43:09Z</time>
      </trkpt>
      <trkpt lat="44.90575" lon="3.37064">
        <ele>1243</ele>
        <time>2019-05-01T11:43:16Z</time>
      </trkpt>
      <trkpt lat="44.90579" lon="3.37065">
        <ele>1243</ele>
        <time>2019-05-01T11:43:18Z</time>
      </trkpt>
      <trkpt lat="44.90583" lon="3.37067">
        <ele>1243</ele>
        <time>2019-05-01T11:43:20Z</time>
      </trkpt>
      <trkpt lat="44.90623" lon="3.37086">
        <ele>1245</ele>
        <time>2019-05-01T11:43:47Z</time>
      </trkpt>
      <trkpt lat="44.90626" lon="3.3709">
        <ele>1245</ele>
        <time>2019-05-01T11:43:49Z</time>
      </trkpt>
      <trkpt lat="44.90637" lon="3.37101">
        <ele>1246</ele>
        <time>2019-05-01T11:43:57Z</time>
      </trkpt>
      <trkpt lat="44.90637" lon="3.37119">
        <ele>1246</ele>
        <time>2019-05-01T11:44:08Z</time>
      </trkpt>
      <trkpt lat="44.90642" lon="3.37126">
        <ele>1247</ele>
        <time>2019-05-01T11:44:13Z</time>
      </trkpt>
      <trkpt lat="44.90643" lon="3.37131">
        <ele>1247</ele>
        <time>2019-05-01T11:44:15Z</time>
      </trkpt>
      <trkpt lat="44.90647" lon="3.37146">
        <ele>1247</ele>
        <time>2019-05-01T11:44:22Z</time>
      </trkpt>
      <trkpt lat="44.90659" lon="3.37159">
        <ele>1248</ele>
        <time>2019-05-01T11:44:31Z</time>
      </trkpt>
      <trkpt lat="44.90668" lon="3.37161">
        <ele>1248</ele>
        <time>2019-05-01T11:44:35Z</time>
      </trkpt>
      <trkpt lat="44.90675" lon="3.37174">
        <ele>1248</ele>
        <time>2019-05-01T11:44:42Z</time>
      </trkpt>
      <trkpt lat="44.90679" lon="3.37181">
        <ele>1248</ele>
        <time>2019-05-01T11:44:45Z</time>
      </trkpt>
      <trkpt lat="44.90682" lon="3.3719">
        <ele>1248</ele>
        <time>2019-05-01T11:44:48Z</time>
      </trkpt>
      <trkpt lat="44.90688" lon="3.37198">
        <ele>1248</ele>
        <time>2019-05-01T11:44:52Z</time>
      </trkpt>
      <trkpt lat="44.90695" lon="3.37202">
        <ele>1249</ele>
        <time>2019-05-01T11:45:01Z</time>
      </trkpt>
      <trkpt lat="44.90714" lon="3.37225">
        <ele>1249</ele>
        <time>2019-05-01T11:45:14Z</time>
      </trkpt>
      <trkpt lat="44.9073" lon="3.37231">
        <ele>1250</ele>
        <time>2019-05-01T11:45:22Z</time>
      </trkpt>
      <trkpt lat="44.90734" lon="3.37242">
        <ele>1250</ele>
        <time>2019-05-01T11:45:30Z</time>
      </trkpt>
      <trkpt lat="44.9074" lon="3.37244">
        <ele>1250</ele>
        <time>2019-05-01T11:45:33Z</time>
      </trkpt>
      <trkpt lat="44.90747" lon="3.37245">
        <ele>1250</ele>
        <time>2019-05-01T11:45:35Z</time>
      </trkpt>
      <trkpt lat="44.90752" lon="3.3725">
        <ele>1250</ele>
        <time>2019-05-01T11:45:39Z</time>
      </trkpt>
      <trkpt lat="44.90763" lon="3.3726">
        <ele>1250</ele>
        <time>2019-05-01T11:45:47Z</time>
      </trkpt>
      <trkpt lat="44.90771" lon="3.37262">
        <ele>1251</ele>
        <time>2019-05-01T11:45:50Z</time>
      </trkpt>
      <trkpt lat="44.90789" lon="3.37274">
        <ele>1251</ele>
        <time>2019-05-01T11:45:58Z</time>
      </trkpt>
      <trkpt lat="44.90828" lon="3.37296">
        <ele>1252</ele>
        <time>2019-05-01T11:46:31Z</time>
      </trkpt>
      <trkpt lat="44.90841" lon="3.373">
        <ele>1253</ele>
        <time>2019-05-01T11:46:37Z</time>
      </trkpt>
      <trkpt lat="44.90897" lon="3.37324">
        <ele>1254</ele>
        <time>2019-05-01T11:47:08Z</time>
      </trkpt>
      <trkpt lat="44.90902" lon="3.37328">
        <ele>1254</ele>
        <time>2019-05-01T11:47:12Z</time>
      </trkpt>
      <trkpt lat="44.90911" lon="3.37332">
        <ele>1255</ele>
        <time>2019-05-01T11:47:23Z</time>
      </trkpt>
      <trkpt lat="44.9092" lon="3.37334">
        <ele>1255</ele>
        <time>2019-05-01T11:47:29Z</time>
      </trkpt>
      <trkpt lat="44.90945" lon="3.37344">
        <ele>1256</ele>
        <time>2019-05-01T11:47:39Z</time>
      </trkpt>
      <trkpt lat="44.9096" lon="3.37349">
        <ele>1256</ele>
        <time>2019-05-01T11:47:48Z</time>
      </trkpt>
      <trkpt lat="44.90964" lon="3.37352">
        <ele>1257</ele>
        <time>2019-05-01T11:47:51Z</time>
      </trkpt>
      <trkpt lat="44.90981" lon="3.37356">
        <ele>1257</ele>
        <time>2019-05-01T11:47:59Z</time>
      </trkpt>
      <trkpt lat="44.90989" lon="3.37363">
        <ele>1258</ele>
        <time>2019-05-01T11:48:05Z</time>
      </trkpt>
      <trkpt lat="44.90997" lon="3.37372">
        <ele>1258</ele>
        <time>2019-05-01T11:48:11Z</time>
      </trkpt>
      <trkpt lat="44.91022" lon="3.37406">
        <ele>1259</ele>
        <time>2019-05-01T11:48:28Z</time>
      </trkpt>
      <trkpt lat="44.9104" lon="3.37435">
        <ele>1260</ele>
        <time>2019-05-01T11:48:42Z</time>
      </trkpt>
      <trkpt lat="44.91043" lon="3.37444">
        <ele>1260</ele>
        <time>2019-05-01T11:48:46Z</time>
      </trkpt>
      <trkpt lat="44.91045" lon="3.37449">
        <ele>1260</ele>
        <time>2019-05-01T11:48:48Z</time>
      </trkpt>
      <trkpt lat="44.91052" lon="3.3746">
        <ele>1261</ele>
        <time>2019-05-01T11:48:55Z</time>
      </trkpt>
      <trkpt lat="44.91063" lon="3.37481">
        <ele>1261</ele>
        <time>2019-05-01T11:49:06Z</time>
      </trkpt>
      <trkpt lat="44.91068" lon="3.37488">
        <ele>1261</ele>
        <time>2019-05-01T11:49:11Z</time>
      </trkpt>
      <trkpt lat="44.91081" lon="3.37496">
        <ele>1262</ele>
        <time>2019-05-01T11:49:19Z</time>
      </trkpt>
      <trkpt lat="44.91085" lon="3.37498">
        <ele>1262</ele>
        <time>2019-05-01T11:49:22Z</time>
      </trkpt>
      <trkpt lat="44.9109" lon="3.37499">
        <ele>1262</ele>
        <time>2019-05-01T11:49:24Z</time>
      </trkpt>
      <trkpt lat="44.91094" lon="3.37502">
        <ele>1262</ele>
        <time>2019-05-01T11:49:27Z</time>
      </trkpt>
      <trkpt lat="44.91104" lon="3.37502">
        <ele>1262</ele>
        <time>2019-05-01T11:49:31Z</time>
      </trkpt>
      <trkpt lat="44.91108" lon="3.37502">
        <ele>1262</ele>
        <time>2019-05-01T11:49:33Z</time>
      </trkpt>
      <trkpt lat="44.91112" lon="3.37501">
        <ele>1262</ele>
        <time>2019-05-01T11:49:35Z</time>
      </trkpt>
      <trkpt lat="44.91116" lon="3.37505">
        <ele>1263</ele>
        <time>2019-05-01T11:49:38Z</time>
      </trkpt>
      <trkpt lat="44.91119" lon="3.37509">
        <ele>1263</ele>
        <time>2019-05-01T11:49:41Z</time>
      </trkpt>
      <trkpt lat="44.91122" lon="3.37514">
        <ele>1263</ele>
        <time>2019-05-01T11:49:43Z</time>
      </trkpt>
      <trkpt lat="44.91126" lon="3.37515">
        <ele>1263</ele>
        <time>2019-05-01T11:49:46Z</time>
      </trkpt>
      <trkpt lat="44.91135" lon="3.37519">
        <ele>1263</ele>
        <time>2019-05-01T11:49:51Z</time>
      </trkpt>
      <trkpt lat="44.91143" lon="3.37524">
        <ele>1263</ele>
        <time>2019-05-01T11:49:57Z</time>
      </trkpt>
      <trkpt lat="44.91184" lon="3.37541">
        <ele>1265</ele>
        <time>2019-05-01T11:50:26Z</time>
      </trkpt>
      <trkpt lat="44.9119" lon="3.37543">
        <ele>1265</ele>
        <time>2019-05-01T11:50:29Z</time>
      </trkpt>
      <trkpt lat="44.91197" lon="3.3754">
        <ele>1265</ele>
        <time>2019-05-01T11:50:33Z</time>
      </trkpt>
      <trkpt lat="44.912" lon="3.37538">
        <ele>1265</ele>
        <time>2019-05-01T11:50:36Z</time>
      </trkpt>
      <trkpt lat="44.91199" lon="3.37538">
        <ele>1266</ele>
        <time>2019-05-01T11:50:50Z</time>
      </trkpt>
      <trkpt lat="44.91197" lon="3.37533">
        <ele>1266</ele>
        <time>2019-05-01T11:50:53Z</time>
      </trkpt>
      <trkpt lat="44.91196" lon="3.37527">
        <ele>1267</ele>
        <time>2019-05-01T11:50:58Z</time>
      </trkpt>
      <trkpt lat="44.91193" lon="3.37517">
        <ele>1267</ele>
        <time>2019-05-01T11:51:05Z</time>
      </trkpt>
      <trkpt lat="44.91195" lon="3.37512">
        <ele>1268</ele>
        <time>2019-05-01T11:51:32Z</time>
      </trkpt>
      <trkpt lat="44.91194" lon="3.375">
        <ele>1271</ele>
        <time>2019-05-01T11:52:03Z</time>
      </trkpt>
      <trkpt lat="44.91198" lon="3.375">
        <ele>1272</ele>
        <time>2019-05-01T11:52:26Z</time>
      </trkpt>
      <trkpt lat="44.91198" lon="3.37509">
        <ele>1272</ele>
        <time>2019-05-01T11:52:31Z</time>
      </trkpt>
      <trkpt lat="44.91197" lon="3.37517">
        <ele>1272</ele>
        <time>2019-05-01T11:52:34Z</time>
      </trkpt>
      <trkpt lat="44.91199" lon="3.37525">
        <ele>1273</ele>
        <time>2019-05-01T11:52:39Z</time>
      </trkpt>
      <trkpt lat="44.9121" lon="3.37537">
        <ele>1274</ele>
        <time>2019-05-01T11:52:49Z</time>
      </trkpt>
      <trkpt lat="44.91227" lon="3.37553">
        <ele>1275</ele>
        <time>2019-05-01T11:53:01Z</time>
      </trkpt>
      <trkpt lat="44.91231" lon="3.37559">
        <ele>1275</ele>
        <time>2019-05-01T11:53:05Z</time>
      </trkpt>
      <trkpt lat="44.91246" lon="3.37567">
        <ele>1275</ele>
        <time>2019-05-01T11:53:15Z</time>
      </trkpt>
      <trkpt lat="44.91254" lon="3.37571">
        <ele>1275</ele>
        <time>2019-05-01T11:53:18Z</time>
      </trkpt>
      <trkpt lat="44.9126" lon="3.37579">
        <ele>1276</ele>
        <time>2019-05-01T11:53:26Z</time>
      </trkpt>
      <trkpt lat="44.91274" lon="3.37606">
        <ele>1276</ele>
        <time>2019-05-01T11:53:40Z</time>
      </trkpt>
      <trkpt lat="44.91276" lon="3.37617">
        <ele>1276</ele>
        <time>2019-05-01T11:53:45Z</time>
      </trkpt>
      <trkpt lat="44.9128" lon="3.37634">
        <ele>1277</ele>
        <time>2019-05-01T11:53:53Z</time>
      </trkpt>
      <trkpt lat="44.91284" lon="3.37642">
        <ele>1277</ele>
        <time>2019-05-01T11:53:59Z</time>
      </trkpt>
      <trkpt lat="44.91285" lon="3.37661">
        <ele>1277</ele>
        <time>2019-05-01T11:54:06Z</time>
      </trkpt>
      <trkpt lat="44.91284" lon="3.3767">
        <ele>1277</ele>
        <time>2019-05-01T11:54:10Z</time>
      </trkpt>
      <trkpt lat="44.91285" lon="3.37678">
        <ele>1278</ele>
        <time>2019-05-01T11:54:14Z</time>
      </trkpt>
      <trkpt lat="44.9129" lon="3.37685">
        <ele>1278</ele>
        <time>2019-05-01T11:54:19Z</time>
      </trkpt>
      <trkpt lat="44.91291" lon="3.37693">
        <ele>1278</ele>
        <time>2019-05-01T11:54:22Z</time>
      </trkpt>
      <trkpt lat="44.91293" lon="3.37702">
        <ele>1279</ele>
        <time>2019-05-01T11:54:26Z</time>
      </trkpt>
      <trkpt lat="44.91298" lon="3.37708">
        <ele>1279</ele>
        <time>2019-05-01T11:54:29Z</time>
      </trkpt>
      <trkpt lat="44.91303" lon="3.37712">
        <ele>1279</ele>
        <time>2019-05-01T11:54:32Z</time>
      </trkpt>
      <trkpt lat="44.91306" lon="3.37719">
        <ele>1280</ele>
        <time>2019-05-01T11:54:36Z</time>
      </trkpt>
      <trkpt lat="44.91306" lon="3.37729">
        <ele>1280</ele>
        <time>2019-05-01T11:54:40Z</time>
      </trkpt>
      <trkpt lat="44.91308" lon="3.37737">
        <ele>1280</ele>
        <time>2019-05-01T11:54:43Z</time>
      </trkpt>
      <trkpt lat="44.91311" lon="3.37742">
        <ele>1281</ele>
        <time>2019-05-01T11:54:46Z</time>
      </trkpt>
      <trkpt lat="44.91314" lon="3.37742">
        <ele>1282</ele>
        <time>2019-05-01T11:54:58Z</time>
      </trkpt>
      <trkpt lat="44.91318" lon="3.37738">
        <ele>1283</ele>
        <time>2019-05-01T11:55:07Z</time>
      </trkpt>
      <trkpt lat="44.91324" lon="3.37729">
        <ele>1285</ele>
        <time>2019-05-01T11:55:20Z</time>
      </trkpt>
      <trkpt lat="44.91328" lon="3.37736">
        <ele>1286</ele>
        <time>2019-05-01T11:56:08Z</time>
      </trkpt>
      <trkpt lat="44.91332" lon="3.37729">
        <ele>1287</ele>
        <time>2019-05-01T11:56:32Z</time>
      </trkpt>
      <trkpt lat="44.91341" lon="3.37717">
        <ele>1290</ele>
        <time>2019-05-01T11:56:39Z</time>
      </trkpt>
      <trkpt lat="44.91346" lon="3.37712">
        <ele>1291</ele>
        <time>2019-05-01T11:56:43Z</time>
      </trkpt>
      <trkpt lat="44.91351" lon="3.37709">
        <ele>1291</ele>
        <time>2019-05-01T11:56:48Z</time>
      </trkpt>
      <trkpt lat="44.91364" lon="3.3769">
        <ele>1292</ele>
        <time>2019-05-01T11:57:01Z</time>
      </trkpt>
      <trkpt lat="44.91369" lon="3.37683">
        <ele>1292</ele>
        <time>2019-05-01T11:57:05Z</time>
      </trkpt>
      <trkpt lat="44.91373" lon="3.37677">
        <ele>1292</ele>
        <time>2019-05-01T11:57:08Z</time>
      </trkpt>
      <trkpt lat="44.91387" lon="3.37659">
        <ele>1293</ele>
        <time>2019-05-01T11:57:21Z</time>
      </trkpt>
      <trkpt lat="44.91388" lon="3.37653">
        <ele>1293</ele>
        <time>2019-05-01T11:57:25Z</time>
      </trkpt>
      <trkpt lat="44.91391" lon="3.37648">
        <ele>1293</ele>
        <time>2019-05-01T11:57:31Z</time>
      </trkpt>
      <trkpt lat="44.91393" lon="3.37642">
        <ele>1293</ele>
        <time>2019-05-01T11:57:34Z</time>
      </trkpt>
      <trkpt lat="44.91397" lon="3.37633">
        <ele>1293</ele>
        <time>2019-05-01T11:57:39Z</time>
      </trkpt>
      <trkpt lat="44.91401" lon="3.37628">
        <ele>1293</ele>
        <time>2019-05-01T11:57:43Z</time>
      </trkpt>
      <trkpt lat="44.91405" lon="3.37621">
        <ele>1294</ele>
        <time>2019-05-01T11:57:47Z</time>
      </trkpt>
      <trkpt lat="44.9141" lon="3.37613">
        <ele>1294</ele>
        <time>2019-05-01T11:57:50Z</time>
      </trkpt>
      <trkpt lat="44.9142" lon="3.37593">
        <ele>1294</ele>
        <time>2019-05-01T11:58:00Z</time>
      </trkpt>
      <trkpt lat="44.91424" lon="3.37586">
        <ele>1294</ele>
        <time>2019-05-01T11:58:04Z</time>
      </trkpt>
      <trkpt lat="44.91426" lon="3.37579">
        <ele>1295</ele>
        <time>2019-05-01T11:58:12Z</time>
      </trkpt>
      <trkpt lat="44.91432" lon="3.37572">
        <ele>1295</ele>
        <time>2019-05-01T11:58:16Z</time>
      </trkpt>
      <trkpt lat="44.91448" lon="3.37558">
        <ele>1295</ele>
        <time>2019-05-01T11:58:29Z</time>
      </trkpt>
      <trkpt lat="44.9146" lon="3.37538">
        <ele>1296</ele>
        <time>2019-05-01T11:58:43Z</time>
      </trkpt>
      <trkpt lat="44.91465" lon="3.37532">
        <ele>1296</ele>
        <time>2019-05-01T11:58:47Z</time>
      </trkpt>
      <trkpt lat="44.91467" lon="3.37524">
        <ele>1296</ele>
        <time>2019-05-01T11:58:51Z</time>
      </trkpt>
      <trkpt lat="44.9147" lon="3.37516">
        <ele>1297</ele>
        <time>2019-05-01T11:58:57Z</time>
      </trkpt>
      <trkpt lat="44.91474" lon="3.37511">
        <ele>1297</ele>
        <time>2019-05-01T11:59:01Z</time>
      </trkpt>
      <trkpt lat="44.91478" lon="3.37505">
        <ele>1297</ele>
        <time>2019-05-01T11:59:07Z</time>
      </trkpt>
      <trkpt lat="44.91481" lon="3.37497">
        <ele>1297</ele>
        <time>2019-05-01T11:59:12Z</time>
      </trkpt>
      <trkpt lat="44.91484" lon="3.3749">
        <ele>1297</ele>
        <time>2019-05-01T11:59:15Z</time>
      </trkpt>
      <trkpt lat="44.91488" lon="3.37482">
        <ele>1298</ele>
        <time>2019-05-01T11:59:20Z</time>
      </trkpt>
      <trkpt lat="44.915" lon="3.37461">
        <ele>1298</ele>
        <time>2019-05-01T11:59:33Z</time>
      </trkpt>
      <trkpt lat="44.91503" lon="3.37453">
        <ele>1299</ele>
        <time>2019-05-01T11:59:39Z</time>
      </trkpt>
      <trkpt lat="44.91507" lon="3.37447">
        <ele>1299</ele>
        <time>2019-05-01T11:59:43Z</time>
      </trkpt>
      <trkpt lat="44.91511" lon="3.37433">
        <ele>1299</ele>
        <time>2019-05-01T11:59:49Z</time>
      </trkpt>
      <trkpt lat="44.91521" lon="3.37421">
        <ele>1300</ele>
        <time>2019-05-01T11:59:58Z</time>
      </trkpt>
      <trkpt lat="44.91526" lon="3.37416">
        <ele>1301</ele>
        <time>2019-05-01T12:00:02Z</time>
      </trkpt>
      <trkpt lat="44.91551" lon="3.37367">
        <ele>1306</ele>
        <time>2019-05-01T12:00:33Z</time>
      </trkpt>
      <trkpt lat="44.91558" lon="3.37354">
        <ele>1308</ele>
        <time>2019-05-01T12:00:40Z</time>
      </trkpt>
      <trkpt lat="44.91561" lon="3.37347">
        <ele>1308</ele>
        <time>2019-05-01T12:00:45Z</time>
      </trkpt>
      <trkpt lat="44.91566" lon="3.3734">
        <ele>1309</ele>
        <time>2019-05-01T12:00:50Z</time>
      </trkpt>
      <trkpt lat="44.91569" lon="3.37333">
        <ele>1310</ele>
        <time>2019-05-01T12:00:53Z</time>
      </trkpt>
      <trkpt lat="44.91581" lon="3.37312">
        <ele>1313</ele>
        <time>2019-05-01T12:01:06Z</time>
      </trkpt>
      <trkpt lat="44.91596" lon="3.37286">
        <ele>1316</ele>
        <time>2019-05-01T12:01:22Z</time>
      </trkpt>
      <trkpt lat="44.91598" lon="3.37278">
        <ele>1316</ele>
        <time>2019-05-01T12:01:25Z</time>
      </trkpt>
      <trkpt lat="44.91603" lon="3.37271">
        <ele>1317</ele>
        <time>2019-05-01T12:01:30Z</time>
      </trkpt>
      <trkpt lat="44.91608" lon="3.37267">
        <ele>1318</ele>
        <time>2019-05-01T12:01:34Z</time>
      </trkpt>
      <trkpt lat="44.91611" lon="3.37259">
        <ele>1319</ele>
        <time>2019-05-01T12:01:39Z</time>
      </trkpt>
      <trkpt lat="44.91633" lon="3.37215">
        <ele>1323</ele>
        <time>2019-05-01T12:02:02Z</time>
      </trkpt>
      <trkpt lat="44.91636" lon="3.37207">
        <ele>1324</ele>
        <time>2019-05-01T12:02:06Z</time>
      </trkpt>
      <trkpt lat="44.91639" lon="3.372">
        <ele>1325</ele>
        <time>2019-05-01T12:02:09Z</time>
      </trkpt>
      <trkpt lat="44.91645" lon="3.37194">
        <ele>1325</ele>
        <time>2019-05-01T12:02:13Z</time>
      </trkpt>
      <trkpt lat="44.9165" lon="3.37192">
        <ele>1326</ele>
        <time>2019-05-01T12:02:17Z</time>
      </trkpt>
      <trkpt lat="44.91656" lon="3.37191">
        <ele>1327</ele>
        <time>2019-05-01T12:02:22Z</time>
      </trkpt>
      <trkpt lat="44.91694" lon="3.37219">
        <ele>1334</ele>
        <time>2019-05-01T12:02:56Z</time>
      </trkpt>
      <trkpt lat="44.91699" lon="3.37225">
        <ele>1335</ele>
        <time>2019-05-01T12:03:05Z</time>
      </trkpt>
      <trkpt lat="44.91706" lon="3.37229">
        <ele>1336</ele>
        <time>2019-05-01T12:03:09Z</time>
      </trkpt>
      <trkpt lat="44.91712" lon="3.37233">
        <ele>1337</ele>
        <time>2019-05-01T12:03:12Z</time>
      </trkpt>
      <trkpt lat="44.91746" lon="3.37247">
        <ele>1341</ele>
        <time>2019-05-01T12:03:37Z</time>
      </trkpt>
      <trkpt lat="44.91766" lon="3.37257">
        <ele>1342</ele>
        <time>2019-05-01T12:03:48Z</time>
      </trkpt>
      <trkpt lat="44.9179" lon="3.37261">
        <ele>1344</ele>
        <time>2019-05-01T12:04:04Z</time>
      </trkpt>
      <trkpt lat="44.91796" lon="3.37262">
        <ele>1344</ele>
        <time>2019-05-01T12:04:08Z</time>
      </trkpt>
      <trkpt lat="44.91849" lon="3.37265">
        <ele>1346</ele>
        <time>2019-05-01T12:04:38Z</time>
      </trkpt>
      <trkpt lat="44.91855" lon="3.37265">
        <ele>1346</ele>
        <time>2019-05-01T12:04:41Z</time>
      </trkpt>
      <trkpt lat="44.91862" lon="3.37266">
        <ele>1346</ele>
        <time>2019-05-01T12:04:48Z</time>
      </trkpt>
      <trkpt lat="44.91868" lon="3.37264">
        <ele>1347</ele>
        <time>2019-05-01T12:04:53Z</time>
      </trkpt>
      <trkpt lat="44.91887" lon="3.37256">
        <ele>1347</ele>
        <time>2019-05-01T12:05:05Z</time>
      </trkpt>
      <trkpt lat="44.91901" lon="3.37247">
        <ele>1348</ele>
        <time>2019-05-01T12:05:14Z</time>
      </trkpt>
      <trkpt lat="44.91904" lon="3.37243">
        <ele>1348</ele>
        <time>2019-05-01T12:05:17Z</time>
      </trkpt>
      <trkpt lat="44.91913" lon="3.37239">
        <ele>1348</ele>
        <time>2019-05-01T12:05:23Z</time>
      </trkpt>
      <trkpt lat="44.91929" lon="3.37235">
        <ele>1348</ele>
        <time>2019-05-01T12:05:35Z</time>
      </trkpt>
      <trkpt lat="44.91935" lon="3.3723">
        <ele>1348</ele>
        <time>2019-05-01T12:05:38Z</time>
      </trkpt>
      <trkpt lat="44.91941" lon="3.37219">
        <ele>1348</ele>
        <time>2019-05-01T12:05:44Z</time>
      </trkpt>
      <trkpt lat="44.91945" lon="3.37214">
        <ele>1348</ele>
        <time>2019-05-01T12:05:47Z</time>
      </trkpt>
      <trkpt lat="44.91951" lon="3.37208">
        <ele>1348</ele>
        <time>2019-05-01T12:05:55Z</time>
      </trkpt>
      <trkpt lat="44.91958" lon="3.372">
        <ele>1349</ele>
        <time>2019-05-01T12:06:01Z</time>
      </trkpt>
      <trkpt lat="44.91969" lon="3.37193">
        <ele>1349</ele>
        <time>2019-05-01T12:06:11Z</time>
      </trkpt>
      <trkpt lat="44.91972" lon="3.3719">
        <ele>1349</ele>
        <time>2019-05-01T12:06:13Z</time>
      </trkpt>
      <trkpt lat="44.91975" lon="3.37185">
        <ele>1349</ele>
        <time>2019-05-01T12:06:16Z</time>
      </trkpt>
      <trkpt lat="44.91978" lon="3.37181">
        <ele>1349</ele>
        <time>2019-05-01T12:06:19Z</time>
      </trkpt>
      <trkpt lat="44.91982" lon="3.37178">
        <ele>1349</ele>
        <time>2019-05-01T12:06:22Z</time>
      </trkpt>
      <trkpt lat="44.91986" lon="3.37173">
        <ele>1349</ele>
        <time>2019-05-01T12:06:25Z</time>
      </trkpt>
      <trkpt lat="44.91995" lon="3.37164">
        <ele>1349</ele>
        <time>2019-05-01T12:06:31Z</time>
      </trkpt>
      <trkpt lat="44.92001" lon="3.37151">
        <ele>1349</ele>
        <time>2019-05-01T12:06:40Z</time>
      </trkpt>
      <trkpt lat="44.9201" lon="3.37142">
        <ele>1349</ele>
        <time>2019-05-01T12:06:46Z</time>
      </trkpt>
      <trkpt lat="44.92015" lon="3.37135">
        <ele>1349</ele>
        <time>2019-05-01T12:06:51Z</time>
      </trkpt>
      <trkpt lat="44.92017" lon="3.37132">
        <ele>1348</ele>
        <time>2019-05-01T12:06:53Z</time>
      </trkpt>
      <trkpt lat="44.92021" lon="3.37125">
        <ele>1348</ele>
        <time>2019-05-01T12:06:57Z</time>
      </trkpt>
      <trkpt lat="44.92023" lon="3.37121">
        <ele>1348</ele>
        <time>2019-05-01T12:06:59Z</time>
      </trkpt>
      <trkpt lat="44.92028" lon="3.3711">
        <ele>1348</ele>
        <time>2019-05-01T12:07:05Z</time>
      </trkpt>
      <trkpt lat="44.92031" lon="3.37106">
        <ele>1348</ele>
        <time>2019-05-01T12:07:08Z</time>
      </trkpt>
      <trkpt lat="44.92035" lon="3.37102">
        <ele>1348</ele>
        <time>2019-05-01T12:07:12Z</time>
      </trkpt>
      <trkpt lat="44.92045" lon="3.37077">
        <ele>1347</ele>
        <time>2019-05-01T12:07:28Z</time>
      </trkpt>
      <trkpt lat="44.92047" lon="3.37075">
        <ele>1347</ele>
        <time>2019-05-01T12:07:30Z</time>
      </trkpt>
      <trkpt lat="44.9205" lon="3.37073">
        <ele>1347</ele>
        <time>2019-05-01T12:07:32Z</time>
      </trkpt>
      <trkpt lat="44.92053" lon="3.3707">
        <ele>1347</ele>
        <time>2019-05-01T12:07:34Z</time>
      </trkpt>
      <trkpt lat="44.92069" lon="3.37049">
        <ele>1346</ele>
        <time>2019-05-01T12:07:50Z</time>
      </trkpt>
      <trkpt lat="44.92079" lon="3.37036">
        <ele>1345</ele>
        <time>2019-05-01T12:08:00Z</time>
      </trkpt>
      <trkpt lat="44.92094" lon="3.37026">
        <ele>1344</ele>
        <time>2019-05-01T12:08:10Z</time>
      </trkpt>
      <trkpt lat="44.92101" lon="3.37023">
        <ele>1344</ele>
        <time>2019-05-01T12:08:15Z</time>
      </trkpt>
      <trkpt lat="44.92108" lon="3.37018">
        <ele>1344</ele>
        <time>2019-05-01T12:08:21Z</time>
      </trkpt>
      <trkpt lat="44.92111" lon="3.37017">
        <ele>1344</ele>
        <time>2019-05-01T12:08:23Z</time>
      </trkpt>
      <trkpt lat="44.92116" lon="3.37012">
        <ele>1343</ele>
        <time>2019-05-01T12:08:27Z</time>
      </trkpt>
      <trkpt lat="44.9212" lon="3.37009">
        <ele>1343</ele>
        <time>2019-05-01T12:08:36Z</time>
      </trkpt>
      <trkpt lat="44.92122" lon="3.37005">
        <ele>1343</ele>
        <time>2019-05-01T12:08:40Z</time>
      </trkpt>
      <trkpt lat="44.92126" lon="3.37001">
        <ele>1342</ele>
        <time>2019-05-01T12:08:43Z</time>
      </trkpt>
      <trkpt lat="44.92134" lon="3.36995">
        <ele>1342</ele>
        <time>2019-05-01T12:08:49Z</time>
      </trkpt>
      <trkpt lat="44.92139" lon="3.36992">
        <ele>1342</ele>
        <time>2019-05-01T12:08:52Z</time>
      </trkpt>
      <trkpt lat="44.92156" lon="3.36973">
        <ele>1341</ele>
        <time>2019-05-01T12:09:06Z</time>
      </trkpt>
      <trkpt lat="44.92167" lon="3.36968">
        <ele>1341</ele>
        <time>2019-05-01T12:09:13Z</time>
      </trkpt>
      <trkpt lat="44.92171" lon="3.36967">
        <ele>1341</ele>
        <time>2019-05-01T12:09:16Z</time>
      </trkpt>
      <trkpt lat="44.92181" lon="3.36959">
        <ele>1340</ele>
        <time>2019-05-01T12:09:21Z</time>
      </trkpt>
      <trkpt lat="44.92201" lon="3.36944">
        <ele>1340</ele>
        <time>2019-05-01T12:09:33Z</time>
      </trkpt>
      <trkpt lat="44.92203" lon="3.36939">
        <ele>1339</ele>
        <time>2019-05-01T12:09:35Z</time>
      </trkpt>
      <trkpt lat="44.92209" lon="3.36929">
        <ele>1339</ele>
        <time>2019-05-01T12:09:40Z</time>
      </trkpt>
      <trkpt lat="44.92216" lon="3.36924">
        <ele>1339</ele>
        <time>2019-05-01T12:09:45Z</time>
      </trkpt>
      <trkpt lat="44.92219" lon="3.36922">
        <ele>1339</ele>
        <time>2019-05-01T12:09:47Z</time>
      </trkpt>
      <trkpt lat="44.92222" lon="3.36917">
        <ele>1339</ele>
        <time>2019-05-01T12:09:50Z</time>
      </trkpt>
      <trkpt lat="44.92224" lon="3.36914">
        <ele>1338</ele>
        <time>2019-05-01T12:09:53Z</time>
      </trkpt>
      <trkpt lat="44.92232" lon="3.36908">
        <ele>1338</ele>
        <time>2019-05-01T12:09:59Z</time>
      </trkpt>
      <trkpt lat="44.92242" lon="3.36899">
        <ele>1338</ele>
        <time>2019-05-01T12:10:06Z</time>
      </trkpt>
      <trkpt lat="44.92249" lon="3.36894">
        <ele>1337</ele>
        <time>2019-05-01T12:10:12Z</time>
      </trkpt>
      <trkpt lat="44.92255" lon="3.36883">
        <ele>1337</ele>
        <time>2019-05-01T12:10:18Z</time>
      </trkpt>
      <trkpt lat="44.92265" lon="3.36873">
        <ele>1337</ele>
        <time>2019-05-01T12:10:24Z</time>
      </trkpt>
      <trkpt lat="44.9227" lon="3.36867">
        <ele>1337</ele>
        <time>2019-05-01T12:10:28Z</time>
      </trkpt>
      <trkpt lat="44.92277" lon="3.36853">
        <ele>1336</ele>
        <time>2019-05-01T12:10:34Z</time>
      </trkpt>
      <trkpt lat="44.92282" lon="3.36846">
        <ele>1336</ele>
        <time>2019-05-01T12:10:38Z</time>
      </trkpt>
      <trkpt lat="44.92284" lon="3.36841">
        <ele>1336</ele>
        <time>2019-05-01T12:10:40Z</time>
      </trkpt>
      <trkpt lat="44.92286" lon="3.36836">
        <ele>1336</ele>
        <time>2019-05-01T12:10:43Z</time>
      </trkpt>
      <trkpt lat="44.92294" lon="3.36832">
        <ele>1335</ele>
        <time>2019-05-01T12:10:50Z</time>
      </trkpt>
      <trkpt lat="44.92297" lon="3.36831">
        <ele>1335</ele>
        <time>2019-05-01T12:10:52Z</time>
      </trkpt>
      <trkpt lat="44.923" lon="3.36829">
        <ele>1335</ele>
        <time>2019-05-01T12:10:55Z</time>
      </trkpt>
      <trkpt lat="44.92323" lon="3.36799">
        <ele>1333</ele>
        <time>2019-05-01T12:11:15Z</time>
      </trkpt>
      <trkpt lat="44.92332" lon="3.36794">
        <ele>1333</ele>
        <time>2019-05-01T12:11:21Z</time>
      </trkpt>
      <trkpt lat="44.92337" lon="3.36787">
        <ele>1333</ele>
        <time>2019-05-01T12:11:25Z</time>
      </trkpt>
      <trkpt lat="44.92337" lon="3.36782">
        <ele>1332</ele>
        <time>2019-05-01T12:11:28Z</time>
      </trkpt>
      <trkpt lat="44.92344" lon="3.36779">
        <ele>1332</ele>
        <time>2019-05-01T12:11:36Z</time>
      </trkpt>
      <trkpt lat="44.92354" lon="3.36777">
        <ele>1331</ele>
        <time>2019-05-01T12:11:42Z</time>
      </trkpt>
      <trkpt lat="44.92388" lon="3.36758">
        <ele>1329</ele>
        <time>2019-05-01T12:12:03Z</time>
      </trkpt>
      <trkpt lat="44.92391" lon="3.36756">
        <ele>1329</ele>
        <time>2019-05-01T12:12:06Z</time>
      </trkpt>
      <trkpt lat="44.92433" lon="3.3674">
        <ele>1327</ele>
        <time>2019-05-01T12:12:33Z</time>
      </trkpt>
      <trkpt lat="44.92436" lon="3.36737">
        <ele>1327</ele>
        <time>2019-05-01T12:12:35Z</time>
      </trkpt>
      <trkpt lat="44.92456" lon="3.36724">
        <ele>1325</ele>
        <time>2019-05-01T12:12:50Z</time>
      </trkpt>
      <trkpt lat="44.92458" lon="3.36722">
        <ele>1325</ele>
        <time>2019-05-01T12:12:52Z</time>
      </trkpt>
      <trkpt lat="44.92475" lon="3.36706">
        <ele>1324</ele>
        <time>2019-05-01T12:13:05Z</time>
      </trkpt>
      <trkpt lat="44.92481" lon="3.36697">
        <ele>1324</ele>
        <time>2019-05-01T12:13:09Z</time>
      </trkpt>
      <trkpt lat="44.92484" lon="3.36689">
        <ele>1323</ele>
        <time>2019-05-01T12:13:13Z</time>
      </trkpt>
      <trkpt lat="44.92486" lon="3.36684">
        <ele>1323</ele>
        <time>2019-05-01T12:13:15Z</time>
      </trkpt>
      <trkpt lat="44.92493" lon="3.36671">
        <ele>1323</ele>
        <time>2019-05-01T12:13:19Z</time>
      </trkpt>
      <trkpt lat="44.92503" lon="3.36634">
        <ele>1322</ele>
        <time>2019-05-01T12:13:27Z</time>
      </trkpt>
      <trkpt lat="44.92527" lon="3.36591">
        <ele>1321</ele>
        <time>2019-05-01T12:13:38Z</time>
      </trkpt>
      <trkpt lat="44.9257" lon="3.36547">
        <ele>1319</ele>
        <time>2019-05-01T12:13:53Z</time>
      </trkpt>
      <trkpt lat="44.92582" lon="3.3654">
        <ele>1319</ele>
        <time>2019-05-01T12:13:57Z</time>
      </trkpt>
      <trkpt lat="44.92611" lon="3.36527">
        <ele>1319</ele>
        <time>2019-05-01T12:14:05Z</time>
      </trkpt>
      <trkpt lat="44.92623" lon="3.36518">
        <ele>1319</ele>
        <time>2019-05-01T12:14:09Z</time>
      </trkpt>
      <trkpt lat="44.92628" lon="3.36513">
        <ele>1319</ele>
        <time>2019-05-01T12:14:11Z</time>
      </trkpt>
      <trkpt lat="44.92665" lon="3.36497">
        <ele>1319</ele>
        <time>2019-05-01T12:14:23Z</time>
      </trkpt>
      <trkpt lat="44.92691" lon="3.36488">
        <ele>1318</ele>
        <time>2019-05-01T12:14:32Z</time>
      </trkpt>
      <trkpt lat="44.92738" lon="3.36461">
        <ele>1318</ele>
        <time>2019-05-01T12:14:47Z</time>
      </trkpt>
      <trkpt lat="44.92744" lon="3.36455">
        <ele>1318</ele>
        <time>2019-05-01T12:14:49Z</time>
      </trkpt>
      <trkpt lat="44.92754" lon="3.36443">
        <ele>1318</ele>
        <time>2019-05-01T12:14:53Z</time>
      </trkpt>
      <trkpt lat="44.9277" lon="3.36429">
        <ele>1318</ele>
        <time>2019-05-01T12:15:04Z</time>
      </trkpt>
      <trkpt lat="44.92779" lon="3.36424">
        <ele>1318</ele>
        <time>2019-05-01T12:15:10Z</time>
      </trkpt>
      <trkpt lat="44.92783" lon="3.3642">
        <ele>1318</ele>
        <time>2019-05-01T12:15:13Z</time>
      </trkpt>
      <trkpt lat="44.92819" lon="3.36408">
        <ele>1318</ele>
        <time>2019-05-01T12:15:34Z</time>
      </trkpt>
      <trkpt lat="44.9283" lon="3.36406">
        <ele>1318</ele>
        <time>2019-05-01T12:15:42Z</time>
      </trkpt>
      <trkpt lat="44.92833" lon="3.36404">
        <ele>1318</ele>
        <time>2019-05-01T12:15:44Z</time>
      </trkpt>
      <trkpt lat="44.92837" lon="3.36404">
        <ele>1318</ele>
        <time>2019-05-01T12:15:47Z</time>
      </trkpt>
      <trkpt lat="44.92853" lon="3.36399">
        <ele>1318</ele>
        <time>2019-05-01T12:15:57Z</time>
      </trkpt>
      <trkpt lat="44.92861" lon="3.36397">
        <ele>1318</ele>
        <time>2019-05-01T12:16:02Z</time>
      </trkpt>
      <trkpt lat="44.9289" lon="3.36382">
        <ele>1318</ele>
        <time>2019-05-01T12:16:21Z</time>
      </trkpt>
      <trkpt lat="44.92894" lon="3.36381">
        <ele>1318</ele>
        <time>2019-05-01T12:16:23Z</time>
      </trkpt>
      <trkpt lat="44.92903" lon="3.36376">
        <ele>1318</ele>
        <time>2019-05-01T12:16:29Z</time>
      </trkpt>
      <trkpt lat="44.92906" lon="3.36374">
        <ele>1318</ele>
        <time>2019-05-01T12:16:31Z</time>
      </trkpt>
      <trkpt lat="44.92921" lon="3.36366">
        <ele>1317</ele>
        <time>2019-05-01T12:16:42Z</time>
      </trkpt>
      <trkpt lat="44.92953" lon="3.36359">
        <ele>1317</ele>
        <time>2019-05-01T12:17:02Z</time>
      </trkpt>
      <trkpt lat="44.92963" lon="3.36356">
        <ele>1317</ele>
        <time>2019-05-01T12:17:09Z</time>
      </trkpt>
      <trkpt lat="44.92966" lon="3.36355">
        <ele>1317</ele>
        <time>2019-05-01T12:17:11Z</time>
      </trkpt>
      <trkpt lat="44.92976" lon="3.36353">
        <ele>1317</ele>
        <time>2019-05-01T12:17:18Z</time>
      </trkpt>
      <trkpt lat="44.92983" lon="3.3635">
        <ele>1317</ele>
        <time>2019-05-01T12:17:24Z</time>
      </trkpt>
      <trkpt lat="44.92995" lon="3.36348">
        <ele>1317</ele>
        <time>2019-05-01T12:17:31Z</time>
      </trkpt>
      <trkpt lat="44.93002" lon="3.36347">
        <ele>1317</ele>
        <time>2019-05-01T12:17:35Z</time>
      </trkpt>
      <trkpt lat="44.93012" lon="3.36345">
        <ele>1317</ele>
        <time>2019-05-01T12:17:41Z</time>
      </trkpt>
      <trkpt lat="44.93021" lon="3.36343">
        <ele>1316</ele>
        <time>2019-05-01T12:17:47Z</time>
      </trkpt>
      <trkpt lat="44.93041" lon="3.3634">
        <ele>1316</ele>
        <time>2019-05-01T12:18:01Z</time>
      </trkpt>
      <trkpt lat="44.93077" lon="3.36323">
        <ele>1316</ele>
        <time>2019-05-01T12:18:25Z</time>
      </trkpt>
      <trkpt lat="44.931" lon="3.36309">
        <ele>1316</ele>
        <time>2019-05-01T12:18:41Z</time>
      </trkpt>
      <trkpt lat="44.93113" lon="3.36304">
        <ele>1316</ele>
        <time>2019-05-01T12:18:50Z</time>
      </trkpt>
      <trkpt lat="44.93123" lon="3.36295">
        <ele>1315</ele>
        <time>2019-05-01T12:18:58Z</time>
      </trkpt>
      <trkpt lat="44.93136" lon="3.36291">
        <ele>1315</ele>
        <time>2019-05-01T12:19:07Z</time>
      </trkpt>
      <trkpt lat="44.93145" lon="3.36285">
        <ele>1315</ele>
        <time>2019-05-01T12:19:13Z</time>
      </trkpt>
      <trkpt lat="44.93154" lon="3.36278">
        <ele>1315</ele>
        <time>2019-05-01T12:19:20Z</time>
      </trkpt>
      <trkpt lat="44.9316" lon="3.36276">
        <ele>1315</ele>
        <time>2019-05-01T12:19:24Z</time>
      </trkpt>
      <trkpt lat="44.93163" lon="3.36278">
        <ele>1315</ele>
        <time>2019-05-01T12:19:26Z</time>
      </trkpt>
      <trkpt lat="44.93164" lon="3.36281">
        <ele>1315</ele>
        <time>2019-05-01T12:19:27Z</time>
      </trkpt>
      <trkpt lat="44.93161" lon="3.36292">
        <ele>1315</ele>
        <time>2019-05-01T12:19:32Z</time>
      </trkpt>
      <trkpt lat="44.93159" lon="3.36295">
        <ele>1315</ele>
        <time>2019-05-01T12:19:34Z</time>
      </trkpt>
      <trkpt lat="44.93153" lon="3.36309">
        <ele>1315</ele>
        <time>2019-05-01T12:19:41Z</time>
      </trkpt>
      <trkpt lat="44.93144" lon="3.36324">
        <ele>1314</ele>
        <time>2019-05-01T12:19:48Z</time>
      </trkpt>
      <trkpt lat="44.93142" lon="3.3633">
        <ele>1314</ele>
        <time>2019-05-01T12:19:52Z</time>
      </trkpt>
      <trkpt lat="44.93139" lon="3.36332">
        <ele>1314</ele>
        <time>2019-05-01T12:19:55Z</time>
      </trkpt>
      <trkpt lat="44.93135" lon="3.36331">
        <ele>1314</ele>
        <time>2019-05-01T12:19:58Z</time>
      </trkpt>
      <trkpt lat="44.9313" lon="3.3633">
        <ele>1314</ele>
        <time>2019-05-01T12:20:01Z</time>
      </trkpt>
      <trkpt lat="44.93129" lon="3.36335">
        <ele>1314</ele>
        <time>2019-05-01T12:20:06Z</time>
      </trkpt>
      <trkpt lat="44.93133" lon="3.36333">
        <ele>1314</ele>
        <time>2019-05-01T12:20:14Z</time>
      </trkpt>
      <trkpt lat="44.93135" lon="3.36331">
        <ele>1314</ele>
        <time>2019-05-01T12:20:17Z</time>
      </trkpt>
      <trkpt lat="44.93138" lon="3.36323">
        <ele>1314</ele>
        <time>2019-05-01T12:20:21Z</time>
      </trkpt>
      <trkpt lat="44.93139" lon="3.36318">
        <ele>1314</ele>
        <time>2019-05-01T12:20:23Z</time>
      </trkpt>
      <trkpt lat="44.93144" lon="3.36309">
        <ele>1314</ele>
        <time>2019-05-01T12:20:27Z</time>
      </trkpt>
      <trkpt lat="44.93146" lon="3.36305">
        <ele>1314</ele>
        <time>2019-05-01T12:20:29Z</time>
      </trkpt>
      <trkpt lat="44.93148" lon="3.36299">
        <ele>1314</ele>
        <time>2019-05-01T12:20:31Z</time>
      </trkpt>
      <trkpt lat="44.93165" lon="3.36278">
        <ele>1314</ele>
        <time>2019-05-01T12:20:42Z</time>
      </trkpt>
      <trkpt lat="44.93172" lon="3.36266">
        <ele>1313</ele>
        <time>2019-05-01T12:20:48Z</time>
      </trkpt>
      <trkpt lat="44.93209" lon="3.36225">
        <ele>1313</ele>
        <time>2019-05-01T12:21:18Z</time>
      </trkpt>
      <trkpt lat="44.93241" lon="3.36194">
        <ele>1312</ele>
        <time>2019-05-01T12:21:43Z</time>
      </trkpt>
      <trkpt lat="44.93244" lon="3.36192">
        <ele>1312</ele>
        <time>2019-05-01T12:21:45Z</time>
      </trkpt>
      <trkpt lat="44.93249" lon="3.36188">
        <ele>1312</ele>
        <time>2019-05-01T12:21:50Z</time>
      </trkpt>
      <trkpt lat="44.93279" lon="3.36165">
        <ele>1311</ele>
        <time>2019-05-01T12:22:11Z</time>
      </trkpt>
      <trkpt lat="44.93281" lon="3.36162">
        <ele>1311</ele>
        <time>2019-05-01T12:22:13Z</time>
      </trkpt>
      <trkpt lat="44.93312" lon="3.36147">
        <ele>1311</ele>
        <time>2019-05-01T12:22:36Z</time>
      </trkpt>
      <trkpt lat="44.9334" lon="3.36125">
        <ele>1310</ele>
        <time>2019-05-01T12:22:53Z</time>
      </trkpt>
      <trkpt lat="44.93345" lon="3.36121">
        <ele>1310</ele>
        <time>2019-05-01T12:22:58Z</time>
      </trkpt>
      <trkpt lat="44.93355" lon="3.36114">
        <ele>1310</ele>
        <time>2019-05-01T12:23:06Z</time>
      </trkpt>
      <trkpt lat="44.93365" lon="3.36111">
        <ele>1310</ele>
        <time>2019-05-01T12:23:12Z</time>
      </trkpt>
      <trkpt lat="44.93368" lon="3.3611">
        <ele>1310</ele>
        <time>2019-05-01T12:23:15Z</time>
      </trkpt>
      <trkpt lat="44.93371" lon="3.36109">
        <ele>1310</ele>
        <time>2019-05-01T12:23:17Z</time>
      </trkpt>
      <trkpt lat="44.93384" lon="3.361">
        <ele>1309</ele>
        <time>2019-05-01T12:23:28Z</time>
      </trkpt>
      <trkpt lat="44.93398" lon="3.3609">
        <ele>1309</ele>
        <time>2019-05-01T12:23:36Z</time>
      </trkpt>
      <trkpt lat="44.93406" lon="3.36081">
        <ele>1308</ele>
        <time>2019-05-01T12:23:42Z</time>
      </trkpt>
      <trkpt lat="44.93413" lon="3.36076">
        <ele>1308</ele>
        <time>2019-05-01T12:23:47Z</time>
      </trkpt>
      <trkpt lat="44.93416" lon="3.36073">
        <ele>1308</ele>
        <time>2019-05-01T12:23:50Z</time>
      </trkpt>
      <trkpt lat="44.93422" lon="3.36067">
        <ele>1308</ele>
        <time>2019-05-01T12:23:55Z</time>
      </trkpt>
      <trkpt lat="44.93443" lon="3.36042">
        <ele>1307</ele>
        <time>2019-05-01T12:24:12Z</time>
      </trkpt>
      <trkpt lat="44.93459" lon="3.36033">
        <ele>1307</ele>
        <time>2019-05-01T12:24:24Z</time>
      </trkpt>
      <trkpt lat="44.93466" lon="3.36025">
        <ele>1307</ele>
        <time>2019-05-01T12:24:30Z</time>
      </trkpt>
      <trkpt lat="44.93478" lon="3.36017">
        <ele>1306</ele>
        <time>2019-05-01T12:24:38Z</time>
      </trkpt>
      <trkpt lat="44.93489" lon="3.36004">
        <ele>1306</ele>
        <time>2019-05-01T12:24:48Z</time>
      </trkpt>
      <trkpt lat="44.93508" lon="3.35991">
        <ele>1306</ele>
        <time>2019-05-01T12:25:00Z</time>
      </trkpt>
      <trkpt lat="44.93535" lon="3.3599">
        <ele>1305</ele>
        <time>2019-05-01T12:25:16Z</time>
      </trkpt>
      <trkpt lat="44.93543" lon="3.3599">
        <ele>1305</ele>
        <time>2019-05-01T12:25:22Z</time>
      </trkpt>
      <trkpt lat="44.93556" lon="3.35999">
        <ele>1305</ele>
        <time>2019-05-01T12:25:32Z</time>
      </trkpt>
      <trkpt lat="44.93563" lon="3.36009">
        <ele>1305</ele>
        <time>2019-05-01T12:25:40Z</time>
      </trkpt>
      <trkpt lat="44.93565" lon="3.36013">
        <ele>1305</ele>
        <time>2019-05-01T12:25:42Z</time>
      </trkpt>
      <trkpt lat="44.93566" lon="3.3602">
        <ele>1305</ele>
        <time>2019-05-01T12:25:45Z</time>
      </trkpt>
      <trkpt lat="44.93568" lon="3.36052">
        <ele>1305</ele>
        <time>2019-05-01T12:26:00Z</time>
      </trkpt>
      <trkpt lat="44.93563" lon="3.36071">
        <ele>1305</ele>
        <time>2019-05-01T12:26:09Z</time>
      </trkpt>
      <trkpt lat="44.93555" lon="3.36092">
        <ele>1305</ele>
        <time>2019-05-01T12:26:21Z</time>
      </trkpt>
      <trkpt lat="44.93554" lon="3.36097">
        <ele>1305</ele>
        <time>2019-05-01T12:26:24Z</time>
      </trkpt>
      <trkpt lat="44.93535" lon="3.36152">
        <ele>1304</ele>
        <time>2019-05-01T12:26:51Z</time>
      </trkpt>
      <trkpt lat="44.9353" lon="3.36165">
        <ele>1304</ele>
        <time>2019-05-01T12:26:57Z</time>
      </trkpt>
      <trkpt lat="44.93525" lon="3.36175">
        <ele>1304</ele>
        <time>2019-05-01T12:27:03Z</time>
      </trkpt>
      <trkpt lat="44.93524" lon="3.3618">
        <ele>1304</ele>
        <time>2019-05-01T12:27:05Z</time>
      </trkpt>
      <trkpt lat="44.93515" lon="3.36201">
        <ele>1304</ele>
        <time>2019-05-01T12:27:17Z</time>
      </trkpt>
      <trkpt lat="44.93514" lon="3.36208">
        <ele>1304</ele>
        <time>2019-05-01T12:27:21Z</time>
      </trkpt>
      <trkpt lat="44.93512" lon="3.36214">
        <ele>1304</ele>
        <time>2019-05-01T12:27:25Z</time>
      </trkpt>
      <trkpt lat="44.93507" lon="3.36223">
        <ele>1304</ele>
        <time>2019-05-01T12:27:30Z</time>
      </trkpt>
      <trkpt lat="44.93498" lon="3.36244">
        <ele>1303</ele>
        <time>2019-05-01T12:27:41Z</time>
      </trkpt>
      <trkpt lat="44.93496" lon="3.36248">
        <ele>1303</ele>
        <time>2019-05-01T12:27:43Z</time>
      </trkpt>
      <trkpt lat="44.93489" lon="3.36264">
        <ele>1303</ele>
        <time>2019-05-01T12:27:53Z</time>
      </trkpt>
      <trkpt lat="44.93486" lon="3.36269">
        <ele>1303</ele>
        <time>2019-05-01T12:27:56Z</time>
      </trkpt>
      <trkpt lat="44.93486" lon="3.36274">
        <ele>1303</ele>
        <time>2019-05-01T12:27:58Z</time>
      </trkpt>
      <trkpt lat="44.9348" lon="3.36285">
        <ele>1303</ele>
        <time>2019-05-01T12:28:03Z</time>
      </trkpt>
      <trkpt lat="44.93476" lon="3.3629">
        <ele>1303</ele>
        <time>2019-05-01T12:28:06Z</time>
      </trkpt>
      <trkpt lat="44.9347" lon="3.36302">
        <ele>1303</ele>
        <time>2019-05-01T12:28:13Z</time>
      </trkpt>
      <trkpt lat="44.93468" lon="3.36308">
        <ele>1303</ele>
        <time>2019-05-01T12:28:16Z</time>
      </trkpt>
      <trkpt lat="44.93463" lon="3.36324">
        <ele>1303</ele>
        <time>2019-05-01T12:28:26Z</time>
      </trkpt>
      <trkpt lat="44.93456" lon="3.36354">
        <ele>1302</ele>
        <time>2019-05-01T12:28:41Z</time>
      </trkpt>
      <trkpt lat="44.93453" lon="3.36365">
        <ele>1302</ele>
        <time>2019-05-01T12:28:47Z</time>
      </trkpt>
      <trkpt lat="44.93451" lon="3.36377">
        <ele>1302</ele>
        <time>2019-05-01T12:28:53Z</time>
      </trkpt>
      <trkpt lat="44.9345" lon="3.36383">
        <ele>1302</ele>
        <time>2019-05-01T12:28:56Z</time>
      </trkpt>
      <trkpt lat="44.93447" lon="3.36388">
        <ele>1302</ele>
        <time>2019-05-01T12:28:59Z</time>
      </trkpt>
      <trkpt lat="44.93444" lon="3.36399">
        <ele>1302</ele>
        <time>2019-05-01T12:29:06Z</time>
      </trkpt>
      <trkpt lat="44.93442" lon="3.36405">
        <ele>1302</ele>
        <time>2019-05-01T12:29:09Z</time>
      </trkpt>
      <trkpt lat="44.93436" lon="3.36421">
        <ele>1302</ele>
        <time>2019-05-01T12:29:19Z</time>
      </trkpt>
      <trkpt lat="44.9343" lon="3.36439">
        <ele>1302</ele>
        <time>2019-05-01T12:29:28Z</time>
      </trkpt>
      <trkpt lat="44.93427" lon="3.36445">
        <ele>1302</ele>
        <time>2019-05-01T12:29:31Z</time>
      </trkpt>
      <trkpt lat="44.93425" lon="3.3645">
        <ele>1302</ele>
        <time>2019-05-01T12:29:33Z</time>
      </trkpt>
      <trkpt lat="44.93417" lon="3.36466">
        <ele>1302</ele>
        <time>2019-05-01T12:29:41Z</time>
      </trkpt>
      <trkpt lat="44.93414" lon="3.3647">
        <ele>1301</ele>
        <time>2019-05-01T12:29:44Z</time>
      </trkpt>
      <trkpt lat="44.93405" lon="3.36485">
        <ele>1301</ele>
        <time>2019-05-01T12:29:52Z</time>
      </trkpt>
      <trkpt lat="44.93399" lon="3.36492">
        <ele>1301</ele>
        <time>2019-05-01T12:29:56Z</time>
      </trkpt>
      <trkpt lat="44.93393" lon="3.36497">
        <ele>1301</ele>
        <time>2019-05-01T12:29:59Z</time>
      </trkpt>
      <trkpt lat="44.93383" lon="3.36508">
        <ele>1301</ele>
        <time>2019-05-01T12:30:10Z</time>
      </trkpt>
      <trkpt lat="44.93378" lon="3.36521">
        <ele>1301</ele>
        <time>2019-05-01T12:30:18Z</time>
      </trkpt>
      <trkpt lat="44.9337" lon="3.36545">
        <ele>1301</ele>
        <time>2019-05-01T12:30:32Z</time>
      </trkpt>
      <trkpt lat="44.93367" lon="3.36555">
        <ele>1301</ele>
        <time>2019-05-01T12:30:35Z</time>
      </trkpt>
      <trkpt lat="44.93365" lon="3.36562">
        <ele>1301</ele>
        <time>2019-05-01T12:30:39Z</time>
      </trkpt>
      <trkpt lat="44.93358" lon="3.3657">
        <ele>1301</ele>
        <time>2019-05-01T12:30:45Z</time>
      </trkpt>
      <trkpt lat="44.93355" lon="3.36573">
        <ele>1300</ele>
        <time>2019-05-01T12:30:47Z</time>
      </trkpt>
      <trkpt lat="44.93349" lon="3.36594">
        <ele>1300</ele>
        <time>2019-05-01T12:30:56Z</time>
      </trkpt>
      <trkpt lat="44.93344" lon="3.36599">
        <ele>1300</ele>
        <time>2019-05-01T12:31:01Z</time>
      </trkpt>
      <trkpt lat="44.93337" lon="3.36614">
        <ele>1299</ele>
        <time>2019-05-01T12:31:09Z</time>
      </trkpt>
      <trkpt lat="44.93331" lon="3.3663">
        <ele>1298</ele>
        <time>2019-05-01T12:31:16Z</time>
      </trkpt>
      <trkpt lat="44.93326" lon="3.36635">
        <ele>1298</ele>
        <time>2019-05-01T12:31:20Z</time>
      </trkpt>
      <trkpt lat="44.93314" lon="3.36657">
        <ele>1296</ele>
        <time>2019-05-01T12:31:34Z</time>
      </trkpt>
      <trkpt lat="44.9331" lon="3.36663">
        <ele>1295</ele>
        <time>2019-05-01T12:31:39Z</time>
      </trkpt>
      <trkpt lat="44.93305" lon="3.36672">
        <ele>1295</ele>
        <time>2019-05-01T12:31:43Z</time>
      </trkpt>
      <trkpt lat="44.93272" lon="3.36706">
        <ele>1290</ele>
        <time>2019-05-01T12:32:10Z</time>
      </trkpt>
      <trkpt lat="44.93271" lon="3.36711">
        <ele>1290</ele>
        <time>2019-05-01T12:32:12Z</time>
      </trkpt>
      <trkpt lat="44.93269" lon="3.36717">
        <ele>1289</ele>
        <time>2019-05-01T12:32:14Z</time>
      </trkpt>
      <trkpt lat="44.93265" lon="3.36728">
        <ele>1288</ele>
        <time>2019-05-01T12:32:19Z</time>
      </trkpt>
      <trkpt lat="44.93261" lon="3.36753">
        <ele>1285</ele>
        <time>2019-05-01T12:32:31Z</time>
      </trkpt>
      <trkpt lat="44.93259" lon="3.36758">
        <ele>1284</ele>
        <time>2019-05-01T12:32:34Z</time>
      </trkpt>
      <trkpt lat="44.93259" lon="3.36765">
        <ele>1283</ele>
        <time>2019-05-01T12:32:38Z</time>
      </trkpt>
      <trkpt lat="44.9326" lon="3.36783">
        <ele>1281</ele>
        <time>2019-05-01T12:32:46Z</time>
      </trkpt>
      <trkpt lat="44.93258" lon="3.36813">
        <ele>1277</ele>
        <time>2019-05-01T12:33:01Z</time>
      </trkpt>
      <trkpt lat="44.93255" lon="3.36819">
        <ele>1276</ele>
        <time>2019-05-01T12:33:04Z</time>
      </trkpt>
      <trkpt lat="44.93251" lon="3.36827">
        <ele>1274</ele>
        <time>2019-05-01T12:33:50Z</time>
      </trkpt>
      <trkpt lat="44.93247" lon="3.36838">
        <ele>1271</ele>
        <time>2019-05-01T12:34:09Z</time>
      </trkpt>
      <trkpt lat="44.93247" lon="3.36844">
        <ele>1269</ele>
        <time>2019-05-01T12:34:11Z</time>
      </trkpt>
      <trkpt lat="44.93249" lon="3.36851">
        <ele>1269</ele>
        <time>2019-05-01T12:34:14Z</time>
      </trkpt>
      <trkpt lat="44.93248" lon="3.36857">
        <ele>1268</ele>
        <time>2019-05-01T12:34:17Z</time>
      </trkpt>
      <trkpt lat="44.93256" lon="3.36854">
        <ele>1265</ele>
        <time>2019-05-01T12:34:33Z</time>
      </trkpt>
      <trkpt lat="44.93272" lon="3.36846">
        <ele>1263</ele>
        <time>2019-05-01T12:34:44Z</time>
      </trkpt>
      <trkpt lat="44.93276" lon="3.36844">
        <ele>1263</ele>
        <time>2019-05-01T12:34:47Z</time>
      </trkpt>
      <trkpt lat="44.93288" lon="3.36837">
        <ele>1261</ele>
        <time>2019-05-01T12:34:54Z</time>
      </trkpt>
      <trkpt lat="44.93307" lon="3.36843">
        <ele>1260</ele>
        <time>2019-05-01T12:35:03Z</time>
      </trkpt>
      <trkpt lat="44.93324" lon="3.36853">
        <ele>1258</ele>
        <time>2019-05-01T12:35:16Z</time>
      </trkpt>
      <trkpt lat="44.93355" lon="3.36869">
        <ele>1256</ele>
        <time>2019-05-01T12:35:31Z</time>
      </trkpt>
      <trkpt lat="44.93363" lon="3.36871">
        <ele>1255</ele>
        <time>2019-05-01T12:35:37Z</time>
      </trkpt>
      <trkpt lat="44.93367" lon="3.36873">
        <ele>1255</ele>
        <time>2019-05-01T12:35:40Z</time>
      </trkpt>
      <trkpt lat="44.9337" lon="3.36877">
        <ele>1254</ele>
        <time>2019-05-01T12:35:43Z</time>
      </trkpt>
      <trkpt lat="44.93373" lon="3.36879">
        <ele>1254</ele>
        <time>2019-05-01T12:35:45Z</time>
      </trkpt>
      <trkpt lat="44.9338" lon="3.36883">
        <ele>1254</ele>
        <time>2019-05-01T12:35:49Z</time>
      </trkpt>
      <trkpt lat="44.93384" lon="3.36885">
        <ele>1253</ele>
        <time>2019-05-01T12:35:52Z</time>
      </trkpt>
      <trkpt lat="44.93395" lon="3.36891">
        <ele>1253</ele>
        <time>2019-05-01T12:35:59Z</time>
      </trkpt>
      <trkpt lat="44.93399" lon="3.36895">
        <ele>1253</ele>
        <time>2019-05-01T12:36:03Z</time>
      </trkpt>
      <trkpt lat="44.93402" lon="3.36899">
        <ele>1252</ele>
        <time>2019-05-01T12:36:06Z</time>
      </trkpt>
      <trkpt lat="44.93406" lon="3.36901">
        <ele>1252</ele>
        <time>2019-05-01T12:36:08Z</time>
      </trkpt>
      <trkpt lat="44.93415" lon="3.36908">
        <ele>1252</ele>
        <time>2019-05-01T12:36:13Z</time>
      </trkpt>
      <trkpt lat="44.93447" lon="3.36921">
        <ele>1250</ele>
        <time>2019-05-01T12:36:34Z</time>
      </trkpt>
      <trkpt lat="44.93456" lon="3.36923">
        <ele>1250</ele>
        <time>2019-05-01T12:36:41Z</time>
      </trkpt>
      <trkpt lat="44.93479" lon="3.36933">
        <ele>1249</ele>
        <time>2019-05-01T12:36:56Z</time>
      </trkpt>
      <trkpt lat="44.93483" lon="3.36941">
        <ele>1249</ele>
        <time>2019-05-01T12:36:58Z</time>
      </trkpt>
      <trkpt lat="44.93495" lon="3.36943">
        <ele>1248</ele>
        <time>2019-05-01T12:37:05Z</time>
      </trkpt>
      <trkpt lat="44.935" lon="3.36941">
        <ele>1248</ele>
        <time>2019-05-01T12:37:09Z</time>
      </trkpt>
      <trkpt lat="44.93511" lon="3.36948">
        <ele>1248</ele>
        <time>2019-05-01T12:37:17Z</time>
      </trkpt>
      <trkpt lat="44.93516" lon="3.36955">
        <ele>1247</ele>
        <time>2019-05-01T12:37:22Z</time>
      </trkpt>
      <trkpt lat="44.9353" lon="3.36971">
        <ele>1247</ele>
        <time>2019-05-01T12:37:34Z</time>
      </trkpt>
      <trkpt lat="44.93533" lon="3.36979">
        <ele>1247</ele>
        <time>2019-05-01T12:37:39Z</time>
      </trkpt>
      <trkpt lat="44.93534" lon="3.36988">
        <ele>1247</ele>
        <time>2019-05-01T12:37:44Z</time>
      </trkpt>
      <trkpt lat="44.93536" lon="3.36993">
        <ele>1247</ele>
        <time>2019-05-01T12:37:46Z</time>
      </trkpt>
      <trkpt lat="44.9354" lon="3.36996">
        <ele>1246</ele>
        <time>2019-05-01T12:37:49Z</time>
      </trkpt>
      <trkpt lat="44.93549" lon="3.37006">
        <ele>1246</ele>
        <time>2019-05-01T12:37:56Z</time>
      </trkpt>
      <trkpt lat="44.93555" lon="3.3701">
        <ele>1246</ele>
        <time>2019-05-01T12:37:59Z</time>
      </trkpt>
      <trkpt lat="44.93559" lon="3.37017">
        <ele>1246</ele>
        <time>2019-05-01T12:38:03Z</time>
      </trkpt>
      <trkpt lat="44.93564" lon="3.37023">
        <ele>1246</ele>
        <time>2019-05-01T12:38:06Z</time>
      </trkpt>
      <trkpt lat="44.93585" lon="3.37054">
        <ele>1246</ele>
        <time>2019-05-01T12:38:22Z</time>
      </trkpt>
      <trkpt lat="44.93598" lon="3.37069">
        <ele>1246</ele>
        <time>2019-05-01T12:38:32Z</time>
      </trkpt>
      <trkpt lat="44.93601" lon="3.37073">
        <ele>1246</ele>
        <time>2019-05-01T12:38:34Z</time>
      </trkpt>
      <trkpt lat="44.93602" lon="3.37076">
        <ele>1246</ele>
        <time>2019-05-01T12:38:36Z</time>
      </trkpt>
      <trkpt lat="44.93609" lon="3.37081">
        <ele>1246</ele>
        <time>2019-05-01T12:38:40Z</time>
      </trkpt>
      <trkpt lat="44.93611" lon="3.37084">
        <ele>1246</ele>
        <time>2019-05-01T12:38:42Z</time>
      </trkpt>
      <trkpt lat="44.93613" lon="3.37088">
        <ele>1246</ele>
        <time>2019-05-01T12:38:45Z</time>
      </trkpt>
      <trkpt lat="44.93614" lon="3.37093">
        <ele>1246</ele>
        <time>2019-05-01T12:38:48Z</time>
      </trkpt>
      <trkpt lat="44.93619" lon="3.37099">
        <ele>1246</ele>
        <time>2019-05-01T12:38:53Z</time>
      </trkpt>
      <trkpt lat="44.93641" lon="3.37126">
        <ele>1247</ele>
        <time>2019-05-01T12:39:11Z</time>
      </trkpt>
      <trkpt lat="44.9365" lon="3.37133">
        <ele>1247</ele>
        <time>2019-05-01T12:39:17Z</time>
      </trkpt>
      <trkpt lat="44.93653" lon="3.37136">
        <ele>1247</ele>
        <time>2019-05-01T12:39:19Z</time>
      </trkpt>
      <trkpt lat="44.93657" lon="3.37139">
        <ele>1247</ele>
        <time>2019-05-01T12:39:22Z</time>
      </trkpt>
      <trkpt lat="44.93658" lon="3.37146">
        <ele>1247</ele>
        <time>2019-05-01T12:39:25Z</time>
      </trkpt>
      <trkpt lat="44.93661" lon="3.3715">
        <ele>1247</ele>
        <time>2019-05-01T12:39:28Z</time>
      </trkpt>
      <trkpt lat="44.93662" lon="3.37154">
        <ele>1247</ele>
        <time>2019-05-01T12:39:30Z</time>
      </trkpt>
      <trkpt lat="44.93667" lon="3.37168">
        <ele>1247</ele>
        <time>2019-05-01T12:39:38Z</time>
      </trkpt>
      <trkpt lat="44.93672" lon="3.37172">
        <ele>1248</ele>
        <time>2019-05-01T12:39:43Z</time>
      </trkpt>
      <trkpt lat="44.93675" lon="3.37178">
        <ele>1248</ele>
        <time>2019-05-01T12:39:46Z</time>
      </trkpt>
      <trkpt lat="44.9368" lon="3.37181">
        <ele>1248</ele>
        <time>2019-05-01T12:39:48Z</time>
      </trkpt>
      <trkpt lat="44.9369" lon="3.37186">
        <ele>1248</ele>
        <time>2019-05-01T12:39:55Z</time>
      </trkpt>
      <trkpt lat="44.93694" lon="3.3719">
        <ele>1248</ele>
        <time>2019-05-01T12:39:57Z</time>
      </trkpt>
      <trkpt lat="44.93713" lon="3.37217">
        <ele>1248</ele>
        <time>2019-05-01T12:40:13Z</time>
      </trkpt>
      <trkpt lat="44.93713" lon="3.37223">
        <ele>1248</ele>
        <time>2019-05-01T12:40:15Z</time>
      </trkpt>
      <trkpt lat="44.93723" lon="3.37246">
        <ele>1248</ele>
        <time>2019-05-01T12:40:25Z</time>
      </trkpt>
      <trkpt lat="44.93733" lon="3.37262">
        <ele>1248</ele>
        <time>2019-05-01T12:40:37Z</time>
      </trkpt>
      <trkpt lat="44.93734" lon="3.37268">
        <ele>1248</ele>
        <time>2019-05-01T12:40:40Z</time>
      </trkpt>
      <trkpt lat="44.93738" lon="3.3728">
        <ele>1248</ele>
        <time>2019-05-01T12:40:46Z</time>
      </trkpt>
      <trkpt lat="44.9374" lon="3.37285">
        <ele>1248</ele>
        <time>2019-05-01T12:40:48Z</time>
      </trkpt>
      <trkpt lat="44.93762" lon="3.37315">
        <ele>1248</ele>
        <time>2019-05-01T12:41:07Z</time>
      </trkpt>
      <trkpt lat="44.93764" lon="3.37319">
        <ele>1248</ele>
        <time>2019-05-01T12:41:09Z</time>
      </trkpt>
      <trkpt lat="44.93775" lon="3.37333">
        <ele>1248</ele>
        <time>2019-05-01T12:41:18Z</time>
      </trkpt>
      <trkpt lat="44.93787" lon="3.37344">
        <ele>1247</ele>
        <time>2019-05-01T12:41:26Z</time>
      </trkpt>
      <trkpt lat="44.93789" lon="3.37346">
        <ele>1247</ele>
        <time>2019-05-01T12:41:29Z</time>
      </trkpt>
      <trkpt lat="44.93792" lon="3.37349">
        <ele>1247</ele>
        <time>2019-05-01T12:41:31Z</time>
      </trkpt>
      <trkpt lat="44.93815" lon="3.37378">
        <ele>1246</ele>
        <time>2019-05-01T12:41:49Z</time>
      </trkpt>
      <trkpt lat="44.93817" lon="3.37382">
        <ele>1246</ele>
        <time>2019-05-01T12:41:51Z</time>
      </trkpt>
      <trkpt lat="44.9382" lon="3.37383">
        <ele>1246</ele>
        <time>2019-05-01T12:41:54Z</time>
      </trkpt>
      <trkpt lat="44.93825" lon="3.37389">
        <ele>1246</ele>
        <time>2019-05-01T12:42:00Z</time>
      </trkpt>
      <trkpt lat="44.93841" lon="3.37415">
        <ele>1245</ele>
        <time>2019-05-01T12:42:17Z</time>
      </trkpt>
      <trkpt lat="44.93883" lon="3.37442">
        <ele>1244</ele>
        <time>2019-05-01T12:42:48Z</time>
      </trkpt>
      <trkpt lat="44.93886" lon="3.37444">
        <ele>1244</ele>
        <time>2019-05-01T12:42:50Z</time>
      </trkpt>
      <trkpt lat="44.93893" lon="3.37453">
        <ele>1243</ele>
        <time>2019-05-01T12:42:56Z</time>
      </trkpt>
      <trkpt lat="44.93898" lon="3.37459">
        <ele>1243</ele>
        <time>2019-05-01T12:43:01Z</time>
      </trkpt>
      <trkpt lat="44.939" lon="3.37461">
        <ele>1243</ele>
        <time>2019-05-01T12:43:03Z</time>
      </trkpt>
      <trkpt lat="44.93904" lon="3.37469">
        <ele>1243</ele>
        <time>2019-05-01T12:43:07Z</time>
      </trkpt>
      <trkpt lat="44.93923" lon="3.37496">
        <ele>1243</ele>
        <time>2019-05-01T12:43:21Z</time>
      </trkpt>
      <trkpt lat="44.93924" lon="3.37506">
        <ele>1242</ele>
        <time>2019-05-01T12:43:27Z</time>
      </trkpt>
      <trkpt lat="44.93927" lon="3.37512">
        <ele>1242</ele>
        <time>2019-05-01T12:43:32Z</time>
      </trkpt>
      <trkpt lat="44.9393" lon="3.37515">
        <ele>1242</ele>
        <time>2019-05-01T12:43:36Z</time>
      </trkpt>
      <trkpt lat="44.93951" lon="3.37521">
        <ele>1241</ele>
        <time>2019-05-01T12:43:54Z</time>
      </trkpt>
      <trkpt lat="44.93963" lon="3.3752">
        <ele>1240</ele>
        <time>2019-05-01T12:44:02Z</time>
      </trkpt>
      <trkpt lat="44.93967" lon="3.3752">
        <ele>1239</ele>
        <time>2019-05-01T12:44:05Z</time>
      </trkpt>
      <trkpt lat="44.93975" lon="3.37521">
        <ele>1239</ele>
        <time>2019-05-01T12:44:09Z</time>
      </trkpt>
      <trkpt lat="44.93979" lon="3.37523">
        <ele>1239</ele>
        <time>2019-05-01T12:44:12Z</time>
      </trkpt>
      <trkpt lat="44.93984" lon="3.37525">
        <ele>1238</ele>
        <time>2019-05-01T12:44:14Z</time>
      </trkpt>
      <trkpt lat="44.93988" lon="3.37527">
        <ele>1238</ele>
        <time>2019-05-01T12:44:16Z</time>
      </trkpt>
      <trkpt lat="44.93996" lon="3.3753">
        <ele>1238</ele>
        <time>2019-05-01T12:44:20Z</time>
      </trkpt>
      <trkpt lat="44.94" lon="3.3753">
        <ele>1238</ele>
        <time>2019-05-01T12:44:23Z</time>
      </trkpt>
      <trkpt lat="44.94004" lon="3.37531">
        <ele>1237</ele>
        <time>2019-05-01T12:44:26Z</time>
      </trkpt>
      <trkpt lat="44.94033" lon="3.37549">
        <ele>1236</ele>
        <time>2019-05-01T12:44:44Z</time>
      </trkpt>
      <trkpt lat="44.94054" lon="3.37556">
        <ele>1234</ele>
        <time>2019-05-01T12:44:58Z</time>
      </trkpt>
      <trkpt lat="44.94086" lon="3.37552">
        <ele>1231</ele>
        <time>2019-05-01T12:45:23Z</time>
      </trkpt>
      <trkpt lat="44.94101" lon="3.37548">
        <ele>1229</ele>
        <time>2019-05-01T12:45:32Z</time>
      </trkpt>
      <trkpt lat="44.94106" lon="3.37543">
        <ele>1228</ele>
        <time>2019-05-01T12:45:37Z</time>
      </trkpt>
      <trkpt lat="44.94122" lon="3.37539">
        <ele>1226</ele>
        <time>2019-05-01T12:45:44Z</time>
      </trkpt>
      <trkpt lat="44.9413" lon="3.37541">
        <ele>1225</ele>
        <time>2019-05-01T12:45:48Z</time>
      </trkpt>
      <trkpt lat="44.94139" lon="3.37546">
        <ele>1224</ele>
        <time>2019-05-01T12:45:53Z</time>
      </trkpt>
      <trkpt lat="44.94153" lon="3.37562">
        <ele>1223</ele>
        <time>2019-05-01T12:46:04Z</time>
      </trkpt>
      <trkpt lat="44.94181" lon="3.37582">
        <ele>1219</ele>
        <time>2019-05-01T12:46:23Z</time>
      </trkpt>
      <trkpt lat="44.94193" lon="3.3759">
        <ele>1218</ele>
        <time>2019-05-01T12:46:32Z</time>
      </trkpt>
      <trkpt lat="44.94198" lon="3.37601">
        <ele>1217</ele>
        <time>2019-05-01T12:46:39Z</time>
      </trkpt>
      <trkpt lat="44.94205" lon="3.3761">
        <ele>1216</ele>
        <time>2019-05-01T12:46:45Z</time>
      </trkpt>
      <trkpt lat="44.94225" lon="3.37625">
        <ele>1215</ele>
        <time>2019-05-01T12:46:58Z</time>
      </trkpt>
      <trkpt lat="44.94236" lon="3.37634">
        <ele>1214</ele>
        <time>2019-05-01T12:47:06Z</time>
      </trkpt>
      <trkpt lat="44.94244" lon="3.37639">
        <ele>1213</ele>
        <time>2019-05-01T12:47:13Z</time>
      </trkpt>
      <trkpt lat="44.94272" lon="3.37675">
        <ele>1211</ele>
        <time>2019-05-01T12:47:33Z</time>
      </trkpt>
      <trkpt lat="44.94275" lon="3.3768">
        <ele>1210</ele>
        <time>2019-05-01T12:47:36Z</time>
      </trkpt>
      <trkpt lat="44.9428" lon="3.37704">
        <ele>1209</ele>
        <time>2019-05-01T12:47:46Z</time>
      </trkpt>
      <trkpt lat="44.94282" lon="3.37715">
        <ele>1208</ele>
        <time>2019-05-01T12:47:51Z</time>
      </trkpt>
      <trkpt lat="44.94294" lon="3.37757">
        <ele>1206</ele>
        <time>2019-05-01T12:48:12Z</time>
      </trkpt>
      <trkpt lat="44.94309" lon="3.37782">
        <ele>1204</ele>
        <time>2019-05-01T12:48:26Z</time>
      </trkpt>
      <trkpt lat="44.94311" lon="3.37787">
        <ele>1204</ele>
        <time>2019-05-01T12:48:29Z</time>
      </trkpt>
      <trkpt lat="44.94319" lon="3.37789">
        <ele>1203</ele>
        <time>2019-05-01T12:48:39Z</time>
      </trkpt>
      <trkpt lat="44.94322" lon="3.37792">
        <ele>1202</ele>
        <time>2019-05-01T12:49:03Z</time>
      </trkpt>
      <trkpt lat="44.94324" lon="3.37796">
        <ele>1202</ele>
        <time>2019-05-01T12:49:10Z</time>
      </trkpt>
      <trkpt lat="44.94329" lon="3.37805">
        <ele>1200</ele>
        <time>2019-05-01T12:49:19Z</time>
      </trkpt>
      <trkpt lat="44.94331" lon="3.3781">
        <ele>1199</ele>
        <time>2019-05-01T12:49:21Z</time>
      </trkpt>
      <trkpt lat="44.94332" lon="3.37816">
        <ele>1199</ele>
        <time>2019-05-01T12:49:24Z</time>
      </trkpt>
      <trkpt lat="44.94334" lon="3.37823">
        <ele>1198</ele>
        <time>2019-05-01T12:49:27Z</time>
      </trkpt>
      <trkpt lat="44.9434" lon="3.37837">
        <ele>1197</ele>
        <time>2019-05-01T12:49:33Z</time>
      </trkpt>
      <trkpt lat="44.94343" lon="3.37841">
        <ele>1196</ele>
        <time>2019-05-01T12:49:35Z</time>
      </trkpt>
      <trkpt lat="44.94359" lon="3.37878">
        <ele>1193</ele>
        <time>2019-05-01T12:49:50Z</time>
      </trkpt>
      <trkpt lat="44.94384" lon="3.3792">
        <ele>1190</ele>
        <time>2019-05-01T12:50:10Z</time>
      </trkpt>
      <trkpt lat="44.94425" lon="3.37964">
        <ele>1187</ele>
        <time>2019-05-01T12:50:40Z</time>
      </trkpt>
      <trkpt lat="44.94447" lon="3.37976">
        <ele>1186</ele>
        <time>2019-05-01T12:50:55Z</time>
      </trkpt>
      <trkpt lat="44.94496" lon="3.37991">
        <ele>1184</ele>
        <time>2019-05-01T12:51:26Z</time>
      </trkpt>
      <trkpt lat="44.94503" lon="3.37992">
        <ele>1183</ele>
        <time>2019-05-01T12:51:32Z</time>
      </trkpt>
      <trkpt lat="44.94503" lon="3.37989">
        <ele>1183</ele>
        <time>2019-05-01T12:51:49Z</time>
      </trkpt>
      <trkpt lat="44.94509" lon="3.37989">
        <ele>1182</ele>
        <time>2019-05-01T12:51:59Z</time>
      </trkpt>
      <trkpt lat="44.94552" lon="3.3799">
        <ele>1180</ele>
        <time>2019-05-01T12:52:28Z</time>
      </trkpt>
      <trkpt lat="44.94558" lon="3.37988">
        <ele>1180</ele>
        <time>2019-05-01T12:52:33Z</time>
      </trkpt>
      <trkpt lat="44.94581" lon="3.37982">
        <ele>1179</ele>
        <time>2019-05-01T12:52:52Z</time>
      </trkpt>
      <trkpt lat="44.94598" lon="3.37977">
        <ele>1179</ele>
        <time>2019-05-01T12:53:05Z</time>
      </trkpt>
      <trkpt lat="44.94602" lon="3.37977">
        <ele>1178</ele>
        <time>2019-05-01T12:53:08Z</time>
      </trkpt>
      <trkpt lat="44.94604" lon="3.37979">
        <ele>1178</ele>
        <time>2019-05-01T12:53:10Z</time>
      </trkpt>
      <trkpt lat="44.94607" lon="3.3798">
        <ele>1178</ele>
        <time>2019-05-01T12:53:12Z</time>
      </trkpt>
      <trkpt lat="44.94636" lon="3.37993">
        <ele>1177</ele>
        <time>2019-05-01T12:53:34Z</time>
      </trkpt>
      <trkpt lat="44.94638" lon="3.37996">
        <ele>1177</ele>
        <time>2019-05-01T12:53:37Z</time>
      </trkpt>
      <trkpt lat="44.94644" lon="3.38004">
        <ele>1177</ele>
        <time>2019-05-01T12:53:43Z</time>
      </trkpt>
      <trkpt lat="44.94651" lon="3.38017">
        <ele>1177</ele>
        <time>2019-05-01T12:53:49Z</time>
      </trkpt>
      <trkpt lat="44.94653" lon="3.38021">
        <ele>1177</ele>
        <time>2019-05-01T12:53:53Z</time>
      </trkpt>
      <trkpt lat="44.94655" lon="3.38024">
        <ele>1177</ele>
        <time>2019-05-01T12:53:55Z</time>
      </trkpt>
      <trkpt lat="44.94658" lon="3.38027">
        <ele>1177</ele>
        <time>2019-05-01T12:53:58Z</time>
      </trkpt>
      <trkpt lat="44.94663" lon="3.38033">
        <ele>1176</ele>
        <time>2019-05-01T12:54:08Z</time>
      </trkpt>
      <trkpt lat="44.94665" lon="3.38038">
        <ele>1176</ele>
        <time>2019-05-01T12:54:11Z</time>
      </trkpt>
      <trkpt lat="44.94665" lon="3.38044">
        <ele>1176</ele>
        <time>2019-05-01T12:54:14Z</time>
      </trkpt>
      <trkpt lat="44.94672" lon="3.38067">
        <ele>1176</ele>
        <time>2019-05-01T12:54:29Z</time>
      </trkpt>
      <trkpt lat="44.94676" lon="3.3808">
        <ele>1175</ele>
        <time>2019-05-01T12:54:38Z</time>
      </trkpt>
      <trkpt lat="44.94676" lon="3.38085">
        <ele>1175</ele>
        <time>2019-05-01T12:54:42Z</time>
      </trkpt>
      <trkpt lat="44.94675" lon="3.38088">
        <ele>1175</ele>
        <time>2019-05-01T12:54:45Z</time>
      </trkpt>
      <trkpt lat="44.94672" lon="3.38089">
        <ele>1175</ele>
        <time>2019-05-01T12:54:47Z</time>
      </trkpt>
      <trkpt lat="44.94667" lon="3.38087">
        <ele>1175</ele>
        <time>2019-05-01T12:55:22Z</time>
      </trkpt>
      <trkpt lat="44.94669" lon="3.3809">
        <ele>1175</ele>
        <time>2019-05-01T12:55:26Z</time>
      </trkpt>
      <trkpt lat="44.94667" lon="3.38097">
        <ele>1175</ele>
        <time>2019-05-01T12:55:27Z</time>
      </trkpt>
      <trkpt lat="44.94667" lon="3.38119">
        <ele>1175</ele>
        <time>2019-05-01T12:55:28Z</time>
      </trkpt>
      <trkpt lat="44.94668" lon="3.3814">
        <ele>1175</ele>
        <time>2019-05-01T12:55:30Z</time>
      </trkpt>
      <trkpt lat="44.94677" lon="3.38146">
        <ele>1175</ele>
        <time>2019-05-01T12:55:31Z</time>
      </trkpt>
      <trkpt lat="44.94675" lon="3.38165">
        <ele>1175</ele>
        <time>2019-05-01T12:55:32Z</time>
      </trkpt>
      <trkpt lat="44.94684" lon="3.38154">
        <ele>1175</ele>
        <time>2019-05-01T12:55:33Z</time>
      </trkpt>
      <trkpt lat="44.94683" lon="3.38125">
        <ele>1175</ele>
        <time>2019-05-01T12:55:37Z</time>
      </trkpt>
      <trkpt lat="44.94687" lon="3.38127">
        <ele>1175</ele>
        <time>2019-05-01T12:55:39Z</time>
      </trkpt>
      <trkpt lat="44.94689" lon="3.38107">
        <ele>1175</ele>
        <time>2019-05-01T12:55:43Z</time>
      </trkpt>
      <trkpt lat="44.94687" lon="3.38104">
        <ele>1175</ele>
        <time>2019-05-01T12:56:11Z</time>
      </trkpt>
      <trkpt lat="44.94684" lon="3.38104">
        <ele>1175</ele>
        <time>2019-05-01T12:56:52Z</time>
      </trkpt>
      <trkpt lat="44.9468" lon="3.38106">
        <ele>1175</ele>
        <time>2019-05-01T12:56:55Z</time>
      </trkpt>
      <trkpt lat="44.94662" lon="3.38114">
        <ele>1175</ele>
        <time>2019-05-01T12:57:08Z</time>
      </trkpt>
      <trkpt lat="44.94661" lon="3.38113">
        <ele>1174</ele>
        <time>2019-05-01T12:58:11Z</time>
      </trkpt>
      <trkpt lat="44.94664" lon="3.3811">
        <ele>1174</ele>
        <time>2019-05-01T12:58:14Z</time>
      </trkpt>
      <trkpt lat="44.94669" lon="3.38109">
        <ele>1174</ele>
        <time>2019-05-01T12:58:18Z</time>
      </trkpt>
      <trkpt lat="44.94675" lon="3.38105">
        <ele>1174</ele>
        <time>2019-05-01T12:58:35Z</time>
      </trkpt>
      <trkpt lat="44.94678" lon="3.38105">
        <ele>1174</ele>
        <time>2019-05-01T12:58:42Z</time>
      </trkpt>
      <trkpt lat="44.9468" lon="3.38105">
        <ele>1174</ele>
        <time>2019-05-01T12:58:58Z</time>
      </trkpt>
      <trkpt lat="44.94681" lon="3.38101">
        <ele>1174</ele>
        <time>2019-05-01T12:59:11Z</time>
      </trkpt>
      <trkpt lat="44.94683" lon="3.38103">
        <ele>1173</ele>
        <time>2019-05-01T12:59:22Z</time>
      </trkpt>
      <trkpt lat="44.94685" lon="3.38096">
        <ele>1173</ele>
        <time>2019-05-01T13:00:05Z</time>
      </trkpt>
      <trkpt lat="44.94683" lon="3.38099">
        <ele>1173</ele>
        <time>2019-05-01T13:01:39Z</time>
      </trkpt>
      <trkpt lat="44.9468" lon="3.381">
        <ele>1172</ele>
        <time>2019-05-01T13:02:09Z</time>
      </trkpt>
      <trkpt lat="44.9468" lon="3.38095">
        <ele>1172</ele>
        <time>2019-05-01T13:02:59Z</time>
      </trkpt>
      <trkpt lat="44.94679" lon="3.38091">
        <ele>1172</ele>
        <time>2019-05-01T13:03:14Z</time>
      </trkpt>
      <trkpt lat="44.94675" lon="3.38084">
        <ele>1171</ele>
        <time>2019-05-01T13:03:19Z</time>
      </trkpt>
      <trkpt lat="44.94673" lon="3.38081">
        <ele>1171</ele>
        <time>2019-05-01T13:03:21Z</time>
      </trkpt>
      <trkpt lat="44.94671" lon="3.38074">
        <ele>1171</ele>
        <time>2019-05-01T13:03:25Z</time>
      </trkpt>
      <trkpt lat="44.94664" lon="3.38059">
        <ele>1171</ele>
        <time>2019-05-01T13:03:34Z</time>
      </trkpt>
      <trkpt lat="44.94663" lon="3.38055">
        <ele>1171</ele>
        <time>2019-05-01T13:03:36Z</time>
      </trkpt>
      <trkpt lat="44.94662" lon="3.38051">
        <ele>1171</ele>
        <time>2019-05-01T13:03:39Z</time>
      </trkpt>
      <trkpt lat="44.94659" lon="3.3805">
        <ele>1171</ele>
        <time>2019-05-01T13:03:44Z</time>
      </trkpt>
      <trkpt lat="44.94652" lon="3.38051">
        <ele>1171</ele>
        <time>2019-05-01T13:03:52Z</time>
      </trkpt>
      <trkpt lat="44.94648" lon="3.38052">
        <ele>1171</ele>
        <time>2019-05-01T13:03:55Z</time>
      </trkpt>
      <trkpt lat="44.94643" lon="3.38058">
        <ele>1171</ele>
        <time>2019-05-01T13:04:01Z</time>
      </trkpt>
      <trkpt lat="44.94642" lon="3.38062">
        <ele>1171</ele>
        <time>2019-05-01T13:04:05Z</time>
      </trkpt>
      <trkpt lat="44.94637" lon="3.38063">
        <ele>1171</ele>
        <time>2019-05-01T13:04:18Z</time>
      </trkpt>
      <trkpt lat="44.94637" lon="3.38057">
        <ele>1171</ele>
        <time>2019-05-01T13:04:23Z</time>
      </trkpt>
      <trkpt lat="44.94639" lon="3.38053">
        <ele>1171</ele>
        <time>2019-05-01T13:04:27Z</time>
      </trkpt>
      <trkpt lat="44.94639" lon="3.38048">
        <ele>1170</ele>
        <time>2019-05-01T13:04:44Z</time>
      </trkpt>
      <trkpt lat="44.94636" lon="3.38052">
        <ele>1170</ele>
        <time>2019-05-01T13:04:56Z</time>
      </trkpt>
      <trkpt lat="44.94635" lon="3.38057">
        <ele>1170</ele>
        <time>2019-05-01T13:05:00Z</time>
      </trkpt>
      <trkpt lat="44.94635" lon="3.38062">
        <ele>1170</ele>
        <time>2019-05-01T13:05:08Z</time>
      </trkpt>
      <trkpt lat="44.94632" lon="3.38058">
        <ele>1170</ele>
        <time>2019-05-01T13:05:23Z</time>
      </trkpt>
      <trkpt lat="44.94632" lon="3.38053">
        <ele>1170</ele>
        <time>2019-05-01T13:05:27Z</time>
      </trkpt>
      <trkpt lat="44.9463" lon="3.38051">
        <ele>1170</ele>
        <time>2019-05-01T13:05:44Z</time>
      </trkpt>
      <trkpt lat="44.94631" lon="3.3805">
        <ele>1170</ele>
        <time>2019-05-01T13:06:02Z</time>
      </trkpt>
      <trkpt lat="44.94634" lon="3.38056">
        <ele>1170</ele>
        <time>2019-05-01T13:06:09Z</time>
      </trkpt>
      <trkpt lat="44.94638" lon="3.38056">
        <ele>1170</ele>
        <time>2019-05-01T13:06:15Z</time>
      </trkpt>
      <trkpt lat="44.9464" lon="3.38055">
        <ele>1170</ele>
        <time>2019-05-01T13:06:18Z</time>
      </trkpt>
      <trkpt lat="44.94642" lon="3.38052">
        <ele>1170</ele>
        <time>2019-05-01T13:06:22Z</time>
      </trkpt>
      <trkpt lat="44.94655" lon="3.38053">
        <ele>1170</ele>
        <time>2019-05-01T13:06:32Z</time>
      </trkpt>
      <trkpt lat="44.94662" lon="3.38054">
        <ele>1170</ele>
        <time>2019-05-01T13:06:39Z</time>
      </trkpt>
      <trkpt lat="44.94666" lon="3.38056">
        <ele>1170</ele>
        <time>2019-05-01T13:06:42Z</time>
      </trkpt>
      <trkpt lat="44.94668" lon="3.3806">
        <ele>1170</ele>
        <time>2019-05-01T13:06:46Z</time>
      </trkpt>
      <trkpt lat="44.9467" lon="3.38066">
        <ele>1170</ele>
        <time>2019-05-01T13:06:51Z</time>
      </trkpt>
      <trkpt lat="44.94671" lon="3.3807">
        <ele>1170</ele>
        <time>2019-05-01T13:07:00Z</time>
      </trkpt>
      <trkpt lat="44.94681" lon="3.38091">
        <ele>1169</ele>
        <time>2019-05-01T13:07:16Z</time>
      </trkpt>
      <trkpt lat="44.94684" lon="3.38094">
        <ele>1169</ele>
        <time>2019-05-01T13:07:19Z</time>
      </trkpt>
      <trkpt lat="44.94686" lon="3.38097">
        <ele>1169</ele>
        <time>2019-05-01T13:07:21Z</time>
      </trkpt>
      <trkpt lat="44.94684" lon="3.38098">
        <ele>1169</ele>
        <time>2019-05-01T13:07:31Z</time>
      </trkpt>
      <trkpt lat="44.94682" lon="3.38101">
        <ele>1169</ele>
        <time>2019-05-01T13:07:37Z</time>
      </trkpt>
    </trkseg>
  </trk>
</gpx>